[[{"header":{"parameterUnit":"m.s-1","parameterCategory":1,"la1":30.6,"la2":28.766,"lo1":-90.7593,"lo2":-88.6598,"dy":0.0162,"dx":0.0183,"nx":116,"ny":114,"refTime":"2024-05-26T12:00:00:Z","depth":0,"parameterNumber":2,"parameterNumberName":"U-component_of_WINDS"},"data":[0.0,0.0,0.0,0.0,0.0,0.0,0.0,0.0,0.0,0.0,0.0,0.0,0.0,0.0,0.0,0.0,0.0,0.0,0.0,0.0,0.0,0.0,0.0,0.0,0.0,0.0,0.0,0.0,0.0,0.0,0.0,0.0,0.0,0.0,0.0,0.0,0.0,0.0,0.0,0.0,0.0,0.0,0.0,0.0,0.0,0.0,0.0,0.0,0.0,0.0,0.0,0.0,0.0,0.0,0.0,0.0,0.0,0.0,0.0,0.0,0.0,0.0,0.0,0.0,0.0,0.0,0.0,0.0,0.0,0.0,0.0,0.0,0.0,0.0,0.0,0.0,0.0,0.0,0.0,0.0,0.0,0.0,0.0,0.0,0.0,0.0,0.0,0.0,0.0,0.0,0.0,0.0,0.0,0.0,0.0,0.0,0.0,0.0,0.0,0.0,0.0,0.0,0.0,0.0,0.0,0.0,0.0,0.0,0.0,0.0,0.0,0.0,0.0,0.0,0.0,0.0,0.0,0.0,0.0,0.0,0.0,0.0,0.0,0.0,0.0,0.0,0.0,0.0,0.0,0.0,0.0,0.0,0.0,0.0,0.0,0.0,0.0,0.0,0.0,0.0,0.0,0.0,0.0,0.0,0.0,0.0,0.0,0.0,0.0,0.0,0.0,0.0,0.0,0.0,0.0,0.0,0.0,0.0,0.0,0.0,0.0,0.0,0.0,0.0,0.0,0.0,0.0,0.0,0.0,0.0,0.0,0.0,0.0,0.0,0.0,0.0,0.0,0.0,0.0,0.0,0.0,0.0,0.0,0.0,0.0,0.0,0.0,0.0,0.0,0.0,0.0,0.0,0.0,0.0,0.0,0.0,0.0,0.0,0.0,0.0,0.0,0.0,0.0,0.0,0.0,0.0,0.0,0.0,0.0,0.0,0.0,0.0,0.0,0.0,0.0,0.0,0.0,0.0,0.0,0.0,0.0,0.0,0.0,0.0,0.0,0.0,0.0,0.0,0.0,0.0,0.0,0.0,0.0,0.0,0.0,0.0,0.0,0.0,0.0,0.0,0.0,0.0,0.0,0.0,0.0,0.0,0.0,0.0,0.0,0.0,0.0,0.0,0.0,0.0,0.0,0.0,0.0,0.0,0.0,0.0,0.0,0.0,0.0,0.0,0.0,0.0,0.0,0.0,0.0,0.0,0.0,0.0,0.0,0.0,0.0,0.0,0.0,0.0,0.0,0.0,0.0,0.0,0.0,0.0,0.0,0.0,0.0,0.0,0.0,0.0,0.0,0.0,0.0,0.0,0.0,0.0,0.0,0.0,0.0,0.0,0.0,0.0,0.0,0.0,0.0,0.0,0.0,0.0,0.0,0.0,0.0,0.0,0.0,0.0,0.0,0.0,0.0,0.0,0.0,0.0,0.0,0.0,0.0,0.0,0.0,0.0,0.0,0.0,0.0,0.0,0.0,0.0,0.0,0.0,0.0,0.0,0.0,0.0,0.0,0.0,0.0,0.0,0.0,0.0,0.0,0.0,0.0,0.0,0.0,0.0,0.0,0.0,0.0,0.0,0.0,0.0,0.0,0.0,0.0,0.0,0.0,0.0,0.0,0.0,0.0,0.0,0.0,0.0,0.0,0.0,0.0,0.0,0.0,0.0,0.0,0.0,0.0,0.0,0.0,0.0,0.0,0.0,0.0,0.0,0.0,0.0,0.0,0.0,0.0,0.0,0.0,0.0,0.0,0.0,0.0,0.0,0.0,0.0,0.0,0.0,0.0,0.0,0.0,0.0,0.0,0.0,0.0,0.0,0.0,0.0,0.0,0.0,0.0,0.0,0.0,0.0,0.0,0.0,0.0,0.0,0.0,0.0,0.0,0.0,0.0,0.0,0.0,0.0,0.0,0.0,0.0,0.0,0.0,0.0,0.0,0.0,0.0,0.0,0.0,0.0,0.0,0.0,0.0,0.0,0.0,0.0,0.0,0.0,0.0,0.0,0.0,0.0,0.0,0.0,0.0,0.0,0.0,0.0,0.0,0.0,0.0,0.0,0.0,0.0,0.0,0.0,0.0,0.0,0.0,0.0,0.0,0.0,0.0,0.0,0.0,0.0,0.0,0.0,0.0,0.0,0.0,0.0,0.0,0.0,0.0,0.0,0.0,0.0,0.0,0.0,0.0,0.0,0.0,0.0,0.0,0.0,0.0,0.0,0.0,0.0,0.0,0.0,0.0,0.0,0.0,0.0,0.0,0.0,0.0,0.0,0.0,0.0,0.0,0.0,0.0,0.0,0.0,0.0,0.0,0.0,0.0,0.0,0.0,0.0,0.0,0.0,0.0,0.0,0.0,0.0,0.0,0.0,0.0,0.0,0.0,0.0,0.0,0.0,0.0,0.0,0.0,0.0,0.0,0.0,0.0,0.0,0.0,0.0,0.0,0.0,0.0,0.0,0.0,0.0,0.0,0.0,0.0,0.0,0.0,0.0,0.0,0.0,0.0,0.0,0.0,0.0,0.0,0.0,0.0,0.0,0.0,0.0,0.0,0.0,0.0,0.0,0.0,0.0,0.0,0.0,0.0,0.0,0.0,0.0,0.0,0.0,0.0,0.0,0.0,0.0,0.0,0.0,0.0,0.0,0.0,0.0,0.0,0.0,0.0,0.0,0.0,0.0,0.0,0.0,0.0,0.0,0.0,0.0,0.0,0.0,0.0,0.0,0.0,0.0,0.0,0.0,0.0,0.0,0.0,0.0,0.0,0.0,0.0,0.0,0.0,0.0,0.0,0.0,0.0,0.0,0.0,0.0,0.0,0.0,0.0,0.0,0.0,0.0,0.0,0.0,0.0,0.0,0.0,0.0,0.0,0.0,0.0,0.0,0.0,0.0,0.0,0.0,0.0,0.0,0.0,0.0,0.0,0.0,0.0,0.0,0.0,0.0,0.0,0.0,0.0,0.0,0.0,0.0,0.0,0.0,0.0,0.0,0.0,0.0,0.0,0.0,0.0,0.0,0.0,0.0,0.0,0.0,0.0,0.0,0.0,0.0,0.0,0.0,0.0,0.0,0.0,0.0,0.0,0.0,0.0,0.0,0.0,0.0,0.0,0.0,0.0,0.0,0.0,0.0,0.0,0.0,0.0,0.0,0.0,0.0,0.0,0.0,0.0,0.0,0.0,0.0,0.0,0.0,0.0,0.0,0.0,0.0,0.0,0.0,0.0,0.0,0.0,0.0,0.0,0.0,0.0,0.0,0.0,0.0,0.0,0.0,0.0,0.0,0.0,0.0,0.0,0.0,0.0,0.0,0.0,0.0,0.0,0.0,0.0,0.0,0.0,0.0,0.0,0.0,0.0,0.0,0.0,0.0,0.0,0.0,0.0,0.0,0.0,0.0,0.0,0.0,0.0,0.0,0.0,0.0,0.0,0.0,0.0,0.0,0.0,0.0,0.0,0.0,0.0,0.0,0.0,0.0,0.0,0.0,0.0,0.0,0.0,0.0,0.0,0.0,0.0,0.0,0.0,0.0,0.0,0.0,0.0,0.0,0.0,0.0,0.0,0.0,0.0,0.0,0.0,0.0,0.0,0.0,0.0,0.0,0.0,0.0,0.0,0.0,0.0,0.0,0.0,0.0,0.0,0.0,0.0,0.0,0.0,0.0,0.0,0.0,0.0,0.0,0.0,0.0,0.0,0.0,0.0,0.0,0.0,0.0,0.0,0.0,0.0,0.0,0.0,0.0,0.0,0.0,0.0,0.0,0.0,0.0,0.0,0.0,0.0,0.0,0.0,0.0,0.0,0.0,0.0,0.0,0.0,0.0,0.0,0.0,0.0,0.0,0.0,0.0,0.0,0.0,0.0,0.0,0.0,0.0,0.0,0.0,0.0,0.0,0.0,0.0,0.0,0.0,0.0,0.0,0.0,0.0,0.0,0.0,0.0,0.0,0.0,0.0,0.0,0.0,0.0,0.0,0.0,0.0,0.0,0.0,0.0,0.0,0.0,0.0,0.0,0.0,0.0,0.0,0.0,0.0,0.0,0.0,0.0,0.0,0.0,0.0,0.0,0.0,0.0,0.0,0.0,0.0,0.0,0.0,0.0,0.0,0.0,0.0,0.0,0.0,0.0,0.0,0.0,0.0,0.0,0.0,0.0,0.0,0.0,0.0,0.0,0.0,0.0,0.0,0.0,0.0,0.0,0.0,0.0,0.0,0.0,0.0,0.0,0.0,0.0,0.0,0.0,0.0,0.0,0.0,0.0,0.0,0.0,0.0,0.0,0.0,0.0,0.0,0.0,0.0,0.0,0.0,0.0,0.0,0.0,0.0,0.0,0.0,0.0,0.0,0.0,0.0,0.0,0.0,0.0,0.0,0.0,0.0,0.0,0.0,0.0,0.0,0.0,0.0,0.0,0.0,0.0,0.0,0.0,0.0,0.0,0.0,0.0,0.0,0.0,0.0,0.0,0.0,0.0,0.0,0.0,0.0,0.0,0.0,0.0,0.0,0.0,0.0,0.0,0.0,0.0,0.0,0.0,0.0,0.0,0.0,0.0,0.0,0.0,0.0,0.0,0.0,0.0,0.0,0.0,0.0,0.0,0.0,0.0,0.0,0.0,0.0,0.0,0.0,0.0,0.0,0.0,0.0,0.0,0.0,0.0,0.0,0.0,0.0,0.0,0.0,0.0,0.0,0.0,0.0,0.0,0.0,0.0,0.0,0.0,0.0,0.0,0.0,0.0,0.0,0.0,0.0,0.0,0.0,0.0,0.0,0.0,0.0,0.0,0.0,0.0,0.0,0.0,0.0,0.0,0.0,0.0,0.0,0.0,0.0,0.0,0.0,0.0,0.0,0.0,0.0,0.0,0.0,0.0,0.0,0.0,0.0,0.0,0.0,0.0,0.0,0.0,0.0,0.0,0.0,0.0,0.0,0.0,0.0,0.0,0.0,0.0,0.0,0.0,0.0,0.0,0.0,0.0,0.0,0.0,0.0,0.0,0.0,0.0,0.0,0.0,0.0,0.0,0.0,0.0,0.0,0.0,0.0,0.0,0.0,0.0,0.0,0.0,0.0,0.0,0.0,0.0,0.0,0.0,0.0,0.0,0.0,0.0,0.0,0.0,0.0,0.0,0.0,0.0,0.0,0.0,0.0,0.0,0.0,0.0,0.0,0.0,0.0,0.0,0.0,0.0,0.0,0.0,0.0,0.0,0.0,0.0,0.0,0.0,0.0,0.0,0.0,0.0,0.0,0.0,0.0,0.0,0.0,0.0,0.0,0.0,0.0,0.0,0.0,0.0,0.0,0.0,0.0,0.0,0.0,0.0,0.0,0.0,0.0,0.0,0.0,0.0,0.0,0.0,0.0,0.0,0.0,0.0,0.0,0.0,0.0,0.0,0.0,0.0,0.0,0.0,0.0,0.0,0.0,0.0,0.0,0.0,0.0,0.0,0.0,0.0,0.0,0.0,0.0,0.0,0.0,0.0,0.0,0.0,0.0,0.0,0.0,0.0,0.0,0.0,0.0,0.0,0.0,0.0,0.0,0.0,0.0,0.0,0.0,0.0,0.0,0.0,0.0,0.0,0.0,0.0,0.0,0.0,0.0,0.0,0.0,0.0,0.0,0.0,0.0,0.0,0.0,0.0,0.0,0.0,0.0,0.0,0.0,0.0,0.0,0.0,0.0,0.0,0.0,0.0,0.0,0.0,0.0,0.0,0.0,0.0,0.0,0.0,0.0,0.0,0.0,0.0,0.0,0.0,0.0,0.0,0.0,0.0,0.0,0.0,0.0,0.0,0.0,0.0,0.0,0.0,0.0,0.0,0.0,0.0,0.0,0.0,0.0,0.0,0.0,0.0,0.0,0.0,0.0,0.0,0.0,0.0,0.0,0.0,0.0,0.0,0.0,0.0,0.0,0.0,0.0,0.0,0.0,0.0,0.0,0.0,0.0,0.0,0.0,0.0,0.0,0.0,0.0,0.0,0.0,0.0,0.0,0.0,0.0,0.0,0.0,0.0,0.0,0.0,0.0,0.0,0.0,0.0,0.0,0.0,0.0,0.0,0.0,0.0,0.0,0.0,0.0,0.0,0.0,0.0,0.0,0.0,0.0,0.0,0.0,0.0,0.0,0.8471,0.0,0.0,0.0,0.0,0.0,0.0,0.0,0.0,0.0,0.0,0.0,0.0,0.0,0.0,0.0,0.0,0.0,0.0,0.0,0.0,0.0,0.0,0.0,0.0,-0.0827,-0.0892,-0.0892,-0.1016,-0.1139,-0.1241,0.0,0.0,0.0,0.0,0.0,-0.1482,-0.1552,-0.1596,-0.1623,-0.1658,-0.1784,-0.1966,-0.1698,-0.1458,-0.1221,0.0,0.0,0.0,0.0,0.0,0.0,0.0,0.0,0.0,0.0,0.0,0.0,0.0,0.0,0.0,0.0,0.0,0.0,0.0,0.0,0.0,0.0,0.0,0.0,0.0,0.0,0.0,0.0,0.0,0.0,0.0,0.0,0.0,0.0,0.0,0.0,0.0,0.0,0.0,0.0,0.0,0.0,0.0,0.0,0.0,0.0,0.0,0.0,0.0,0.0,0.0,0.0,0.0,0.0,0.0,0.0,0.0,0.0,0.0,0.0,0.0,0.0,0.0,0.0,0.0,0.0,0.0,0.0,0.0,0.0,0.0,0.8973,0.0,0.0,0.0,0.0,0.0,0.0,0.0,0.0,0.0,0.0,0.0,0.0,0.0,0.0,0.0,0.0,0.0,0.0,0.0,0.0,0.0,-0.109,-0.115,-0.115,-0.1152,-0.1152,-0.1205,-0.1305,-0.1466,-0.1488,0.0,0.0,0.0,-0.1938,-0.1971,-0.1997,-0.2103,-0.2263,-0.2299,-0.2522,-0.2917,-0.253,-0.2273,-0.2109,-0.1668,0.0,0.0,0.0,0.0,0.0,0.0,0.0,0.0,0.0,0.0,0.0,0.0,0.0,0.0,0.0,0.0,0.0,0.0,0.0,0.0,0.0,0.0,0.0,0.0,0.0,0.0,0.0,0.0,0.0,0.0,0.0,0.0,0.0,0.0,0.0,0.0,0.0,0.0,0.0,0.0,0.0,0.0,0.0,0.0,0.0,0.0,0.0,0.0,0.0,0.0,0.0,0.0,0.0,0.0,0.0,0.0,0.0,0.0,0.0,0.0,0.0,0.0,0.0,0.9298,0.9871,1.0733,1.0793,1.1055,1.1409,1.0336,0.9992,1.0123,0.0,0.0,0.0,0.0,0.0,0.0,0.0,0.0,0.0,0.0,0.0,0.0,0.0,0.0,0.0,0.0,0.0,0.0,0.0,0.0,-0.1346,-0.1364,-0.1361,-0.1366,-0.1366,-0.1629,-0.1784,-0.1748,-0.185,0.0,0.0,-0.1953,-0.207,-0.2241,-0.214,-0.2245,-0.2548,-0.2729,-0.3019,-0.3398,-0.3341,-0.3373,-0.3416,-0.2556,-0.2007,-0.1722,0.0,0.0,0.0,0.0,0.0,0.0,0.0,0.0,0.0,0.0,0.0,0.0,0.0,0.0,0.0,0.0,0.0,0.0,0.0,0.0,0.0,0.0,0.0,0.0,0.0,0.0,0.0,0.0,0.0,0.0,0.0,0.0,0.0,0.0,0.0,0.0,0.0,0.0,0.0,0.0,0.0,0.3967,0.4037,0.0,0.0,0.0,0.0,0.0,0.0,0.0,0.0,0.0,0.0,0.0,0.0,0.0,0.0,0.8689,0.9406,0.9619,0.9355,1.0183,1.0502,1.0374,1.0496,1.1107,1.2081,1.1903,0.0,1.1173,1.0634,0.0,0.0,0.0,0.0,0.0,0.0,0.0,0.0,0.0,0.0,0.0,0.0,0.0,0.0,0.0,0.0,0.0,0.0,0.0,0.0,0.0,-0.1813,-0.1794,-0.1794,-0.2061,-0.2236,-0.2247,-0.2302,-0.2338,-0.2344,-0.2376,-0.2442,-0.2524,-0.2508,-0.2642,-0.2932,-0.3322,-0.366,-0.3951,-0.4032,-0.4153,-0.4307,-0.3892,-0.3191,-0.2281,-0.1894,0.0,0.0,0.0,0.0,0.0,0.0,0.0,0.0,0.0,0.0,0.0,0.0,0.0,0.0,0.0,0.0,0.0,0.0,0.0,0.0,0.0,0.0,0.0,0.0,0.0,0.0,0.0,0.0,0.0,0.0,0.0,0.0,0.0,0.0,0.0,0.0,0.0,0.0,0.0,0.3864,0.4025,0.375,0.4202,0.4491,0.0,0.0,0.0,0.0,0.0,0.0,0.0,0.0,0.0,0.8306,0.8311,0.8553,0.9065,0.9416,0.9556,0.9516,1.0303,1.0647,1.0594,1.1033,1.1537,1.2096,1.2096,1.2124,1.2176,1.1896,1.1724,1.1567,0.0,0.0,0.0,0.0,1.1465,1.1753,0.0,0.0,0.0,0.0,0.0,0.0,0.0,0.0,0.0,0.0,0.0,0.0,-0.2373,-0.2231,-0.2141,-0.2193,-0.2471,-0.2665,-0.2702,-0.2744,-0.2791,-0.2828,-0.2766,-0.275,-0.2807,-0.2936,-0.3136,-0.3398,-0.3866,-0.4195,-0.4433,-0.4525,-0.4658,-0.4804,-0.4705,-0.4025,-0.2882,-0.2428,-0.1996,-0.1637,0.0,0.0,0.0,0.0,0.0,0.0,0.0,0.0,0.0,0.0,0.0,0.0,0.0,0.0,0.0,0.0,0.0,0.0,0.0,0.0,0.0,0.0,0.0,0.0,0.0,0.0,0.0,0.0,0.0,0.0,0.0,0.0,0.0,0.0,0.0,0.0,0.0,0.3918,0.4095,0.3682,0.4329,0.4715,0.0,0.0,0.0,0.0,0.0,0.0,0.662,0.7303,0.799,0.8656,0.8671,0.8863,0.931,0.931,0.9402,0.9614,1.0115,1.0405,1.0549,1.1057,1.1434,1.1701,1.1735,1.2039,1.2551,1.2575,1.252,1.2434,1.2219,1.2227,1.2404,1.2692,1.27,1.2789,0.0,0.0,0.0,0.0,0.0,0.0,0.0,0.0,0.0,0.0,0.0,-0.2713,-0.2844,-0.2466,-0.2277,-0.2467,-0.2846,-0.3041,0.0,-0.3165,-0.3236,-0.3178,-0.2933,-0.2883,-0.3083,-0.3403,-0.3695,-0.3955,-0.4188,-0.4461,-0.478,-0.4788,-0.4796,-0.4779,-0.4458,-0.4011,-0.3433,-0.3217,-0.2587,-0.1665,-0.1426,0.0,0.0,0.0,0.0,0.0,0.0,0.0,0.0,0.0,0.0,0.0,0.0,0.0,0.0,0.0,0.0,0.0,0.0,0.0,0.0,0.0,0.0,0.0,0.0,0.0,0.0,0.0,0.0,0.0,0.0,0.0,0.0,0.0,0.0,0.0,0.0,0.0,0.0,0.3981,0.463,0.0,0.0,0.0,0.0,0.546,0.6072,0.6484,0.6518,0.6859,0.7435,0.8301,0.8333,0.874,0.9566,0.9592,0.9599,0.9588,0.964,0.9725,0.9844,0.9895,1.0249,1.088,1.0998,1.1359,1.1886,1.2114,1.2707,1.3379,1.2934,1.2999,1.3286,1.2938,1.3383,1.414,0.0,0.0,0.0,0.0,0.0,-0.3602,-0.3464,-0.3625,-0.372,-0.3636,-0.3504,-0.3383,-0.3291,-0.3445,-0.3506,-0.3414,-0.3843,-0.405,-0.3851,-0.3738,-0.3886,-0.434,-0.4019,-0.4031,-0.4442,-0.487,-0.5106,-0.5154,-0.5656,-0.5765,-0.5518,-0.564,-0.5492,-0.5104,-0.4998,-0.4644,-0.4113,-0.3834,-0.3224,-0.2472,-0.251,-0.2131,0.0,0.0,0.0,0.0,0.0,0.0,0.0,0.0,0.0,0.0,0.0,0.0,0.0,0.0,0.0,0.0,0.0,0.0,0.0,0.0,0.0,0.0,0.0,0.0,0.0,0.0,0.0,0.0,0.0,0.0,0.0,0.0,0.0,0.0,0.0,0.0,0.0,0.3812,0.4565,0.0,0.0,0.5211,0.5453,0.5684,0.6309,0.6681,0.6681,0.7244,0.7709,0.804,0.8047,0.8195,0.8501,0.8641,0.8922,0.9417,0.9535,0.9883,1.0436,1.0436,1.0637,1.0919,1.0974,1.1304,1.1828,1.2053,1.2287,1.2554,1.2716,1.2886,1.3047,1.325,1.3549,1.3882,0.0,0.0,0.0,0.0,-0.3756,-0.4037,-0.3957,-0.4014,-0.4007,-0.3825,-0.3824,-0.379,-0.3651,-0.4056,-0.4241,-0.4027,-0.4543,-0.4767,-0.4515,-0.4351,-0.4498,-0.501,-0.4785,-0.4935,-0.5559,-0.5854,-0.6099,-0.6282,-0.6586,-0.6556,-0.6247,-0.6201,-0.5996,-0.5595,-0.5517,-0.526,-0.4915,-0.4589,-0.3933,-0.3147,-0.3175,-0.2829,-0.2258,0.0,0.0,0.0,0.0,0.0,0.0,0.0,0.0,0.0,0.0,0.0,0.0,0.0,0.0,0.0,0.0,0.0,0.0,0.0,0.0,0.0,0.0,0.0,0.0,0.0,0.0,0.0,0.0,0.0,0.0,0.0,0.0,0.0,0.0,0.0,0.329,0.3478,0.4177,0.4666,0.4664,0.4777,0.4948,0.5184,0.5784,0.618,0.6227,0.685,0.731,0.7551,0.7551,0.7651,0.7868,0.8043,0.837,0.888,0.9077,0.9572,1.0315,1.0351,1.0558,1.0859,1.0916,1.1128,1.1471,1.1656,1.1709,1.174,1.257,1.289,1.2976,1.3536,1.3745,1.3844,0.0,0.0,0.0,-0.3674,-0.3987,-0.4217,-0.4207,-0.4217,-0.4117,-0.3844,-0.3885,-0.3933,-0.3916,-0.4227,-0.4387,-0.4242,-0.4841,-0.5136,-0.495,-0.4975,-0.5039,-0.5124,-0.5164,-0.5559,-0.6342,-0.6312,-0.66,-0.7256,-0.6877,-0.6775,-0.6934,-0.6475,-0.6236,-0.6209,-0.5923,-0.5822,-0.5795,-0.5462,-0.4681,-0.3665,-0.336,-0.3385,-0.3486,0.0,0.0,0.0,0.0,0.0,0.0,0.0,0.0,0.0,0.0,0.0,0.0,0.0,0.0,0.0,0.0,0.0,0.0,0.0,0.0,0.0,0.0,0.0,0.0,0.0,0.0,0.0,0.0,0.0,0.0,0.0,0.0,0.0,0.1865,0.2288,0.2605,0.2995,0.3464,0.3641,0.3394,0.372,0.3978,0.3978,0.4508,0.4924,0.5058,0.5489,0.6069,0.6793,0.6832,0.7118,0.7723,0.7865,0.7981,0.7981,0.818,0.8657,0.9318,0.9512,0.9954,1.0559,1.0695,1.0781,1.0809,1.0946,1.1011,1.1145,1.2519,1.3059,1.3141,1.3727,1.3978,1.4165,0.0,0.0,-0.3559,-0.3433,-0.4085,-0.4584,-0.4435,-0.4544,-0.4504,-0.4138,-0.4495,-0.4641,-0.4297,-0.4904,-0.525,-0.502,-0.5384,-0.5641,-0.5624,-0.5273,-0.5285,-0.5735,-0.6682,-0.7287,-0.7444,-0.7861,-0.8176,-0.8368,-0.8454,-0.8312,-0.799,-0.7503,-0.7074,-0.6691,-0.6268,-0.6077,-0.6077,-0.5996,-0.5761,-0.5405,-0.4493,-0.3896,-0.3505,0.0,0.0,0.0,0.0,0.0,0.0,0.0,0.0,0.0,0.0,0.0,0.0,0.0,0.0,0.0,0.0,0.0,0.0,0.0,0.0,0.0,0.0,0.0,0.0,0.0,0.0,0.0,0.0,0.0,0.0,0.0,0.0,-0.0815,0.0599,0.1235,0.1604,0.1763,0.2382,0.276,0.2682,0.2911,0.3191,0.347,0.3638,0.3931,0.4346,0.4502,0.4692,0.4942,0.5462,0.5816,0.5994,0.6641,0.7265,0.7787,0.7986,0.8506,0.9314,0.9351,0.9544,0.9799,0.9823,1.014,1.0609,1.0786,1.1122,1.1609,1.2012,1.2253,1.2455,1.2932,1.3502,1.4048,0.0,-0.3251,-0.3669,-0.3886,-0.4409,-0.4754,-0.4635,-0.4724,-0.4664,-0.4291,-0.4767,-0.4975,-0.4534,-0.5292,-0.5715,-0.5415,-0.5809,-0.6,-0.574,-0.5598,-0.5901,-0.6754,-0.7494,-0.7982,-0.824,-0.8712,-0.9027,-0.9148,-0.9127,-0.8949,-0.8639,-0.8209,-0.783,-0.7503,-0.7095,-0.6826,-0.6642,-0.6529,-0.6372,-0.6145,-0.549,-0.49,-0.4429,-0.4089,-0.3912,-0.3811,-0.3452,-0.3362,-0.3349,-0.3022,0.0,0.0,0.0,0.0,0.0,0.0,0.0,0.0,0.0,0.0,0.0,0.0,0.0,0.0,0.0,0.0,0.0,0.0,0.0,0.0,0.0,0.0,0.0,0.0,-0.2493,-0.2091,-0.1232,-0.0241,0.0437,0.0585,0.0975,0.1224,0.1224,0.1436,0.1673,0.1901,0.2241,0.2599,0.2979,0.3159,0.3425,0.3762,0.4212,0.4519,0.4742,0.5332,0.5857,0.6269,0.6465,0.7098,0.8162,0.8264,0.8661,0.0,0.9384,0.964,1.0028,1.018,1.0496,0.0,0.0,0.0,0.0,0.0,1.3528,1.4203,0.0,-0.3642,-0.389,-0.4612,-0.4776,-0.4822,-0.4822,-0.4822,-0.4694,-0.4344,-0.4801,-0.5004,-0.4588,-0.5348,-0.5774,-0.5463,-0.6063,-0.6251,0.0,-0.6075,-0.6781,-0.7903,-0.7857,-0.8114,-0.8752,-0.9082,-0.9351,-0.9588,-0.9237,-0.9061,-0.9061,-0.8659,-0.848,-0.8448,-0.8123,-0.7765,-0.7396,-0.7176,-0.6826,-0.6448,-0.6448,-0.6241,-0.5842,-0.5102,-0.4907,-0.4935,-0.4363,-0.4078,-0.3926,-0.3755,0.0,0.0,0.0,0.0,0.0,0.0,0.0,0.0,0.0,0.0,0.0,0.0,0.0,0.0,0.0,0.0,0.0,0.0,0.0,0.0,0.0,0.0,0.0,0.0,-0.3349,-0.3329,-0.3352,-0.2009,-0.0952,-0.0726,-0.0698,-0.0698,-0.0698,-0.0518,-0.0322,-0.0235,0.0422,0.0952,0.1234,0.0,0.0,0.0,0.0,0.3215,0.3737,0.4,0.4151,0.4217,0.4345,0.5094,0.6367,0.6641,0.746,0.8667,0.8924,0.9084,0.9186,0.9288,0.9422,0.9678,1.1296,1.1965,1.2058,1.2873,1.3653,1.435,0.0,-0.3862,-0.4153,-0.4363,-0.4669,-0.4893,-0.4951,-0.4961,-0.4803,-0.4364,-0.4636,-0.4704,-0.424,-0.4795,-0.517,-0.51,-0.5762,-0.6427,-0.7002,-0.7248,-0.767,-0.8278,-0.8422,-0.8685,-0.9097,-0.9372,-0.9555,-0.9588,-0.951,-0.9491,-0.9484,-0.908,-0.8877,-0.8877,-0.8474,-0.8262,-0.8182,-0.8123,-0.8043,-0.7963,-0.7963,-0.745,-0.6661,-0.6329,-0.6238,-0.6213,-0.5945,-0.5722,-0.5487,-0.5031,-0.4733,-0.4513,-0.4107,0.0,0.0,0.0,0.0,0.0,0.0,0.0,0.0,0.0,0.0,0.0,0.0,0.0,0.0,0.0,0.0,0.0,0.0,0.0,0.0,-0.575,-0.5156,-0.4779,-0.5011,-0.3895,-0.2929,-0.2617,-0.2589,-0.2589,-0.2589,-0.267,-0.2401,-0.1582,-0.1538,-0.1148,-0.0255,-0.0127,0.0,0.0594,0.1191,0.1691,0.206,0.2699,0.3239,0.3644,0.0,0.0,0.4935,0.5573,0.61,0.6523,0.7125,0.7749,0.8425,0.8458,0.8877,0.9614,1.0654,1.1062,1.1156,1.2011,1.285,1.3532,-0.4229,-0.4305,-0.4379,-0.4612,-0.4819,-0.4961,-0.499,-0.5,-0.4872,-0.4545,-0.4788,-0.4844,-0.4436,-0.4789,-0.5048,-0.5048,-0.5632,-0.644,-0.7488,-0.7458,-0.7754,-0.8566,-0.8671,-0.887,-0.9192,-0.9595,-0.9803,-0.9803,-0.9803,-0.9803,-0.9803,-0.9472,-0.9309,-0.9283,-0.9099,-0.8896,-0.8692,-0.8692,-0.8586,-0.8395,-0.8395,-0.8229,-0.7892,-0.7419,-0.7158,-0.7037,-0.6936,-0.6764,-0.657,-0.6293,-0.6112,-0.5924,-0.546,-0.5071,-0.4733,0.0,0.0,0.0,0.0,0.0,0.0,0.0,0.0,0.0,0.0,0.0,0.0,0.0,0.0,-0.6081,0.0,0.0,-0.6823,-0.6926,-0.6581,-0.6288,-0.6222,-0.5651,-0.4831,-0.368,-0.3541,-0.3593,-0.3679,-0.3674,-0.3498,-0.3095,-0.2996,-0.2711,-0.2195,-0.2164,-0.1815,-0.1072,-0.0702,-0.0167,0.0536,0.0902,0.1236,0.1504,0.1673,0.2106,0.2835,0.3644,0.4245,0.474,0.5408,0.5932,0.6388,0.692,0.7609,0.8425,0.9314,1.011,1.0867,1.1288,1.1981,1.2697,-0.4963,-0.4771,-0.4675,-0.5011,-0.5078,-0.5078,-0.5098,-0.5098,-0.501,-0.4774,-0.4972,-0.5015,-0.4698,-0.4917,-0.5156,-0.5283,-0.5757,-0.6566,-0.7757,-0.7479,-0.7827,-0.906,-0.8929,-0.9051,-0.9547,-0.9964,-1.0198,-1.0198,-1.0198,-1.0146,-1.0102,-0.9888,-0.9769,-0.9769,-0.9769,-0.955,-0.9192,-0.9192,-0.8975,-0.8633,-0.8633,-0.8817,-0.9054,-0.8455,-0.8057,-0.778,-0.7706,-0.7546,-0.7331,-0.7203,-0.7082,-0.6907,-0.6428,-0.6253,-0.607,-0.531,-0.5214,0.0,0.0,0.0,0.0,0.0,0.0,0.0,0.0,0.0,-0.6429,-0.6922,-0.7055,-0.7214,-0.7519,-0.7592,-0.7639,-0.7803,-0.7738,-0.7551,-0.723,-0.7095,-0.6443,-0.4866,-0.4487,-0.4437,-0.4635,-0.4422,-0.4313,-0.4417,-0.4213,-0.4013,-0.391,-0.391,-0.3476,-0.2541,-0.2541,-0.2074,-0.1138,-0.1004,-0.0904,-0.0803,-0.0436,0.0101,0.0802,0.164,0.2342,0.297,0.3872,0.4273,0.4406,0.5441,0.6207,0.6835,0.7674,0.8854,1.0123,1.0451,1.1031,1.1646,0.0,-0.5146,-0.5165,-0.532,-0.535,-0.5379,-0.5435,-0.5445,-0.531,-0.4932,-0.491,-0.4828,-0.4555,-0.4873,-0.5336,-0.5935,-0.6371,-0.7097,-0.824,-0.806,-0.8588,-1.016,-0.9634,-0.9779,-1.078,-1.0855,-1.088,-1.088,-1.088,-1.0735,-1.0445,-1.0411,-1.0411,-1.0411,-1.0411,-1.0205,-0.9895,-0.9895,-0.9732,-0.9458,-0.9458,-0.9484,-0.951,-0.9432,-0.9171,-0.8784,-0.8497,-0.815,-0.7728,-0.7212,-0.7014,-0.6937,-0.6653,-0.6429,-0.6313,-0.6441,0.0,-0.5896,-0.6282,-0.6389,-0.6544,-0.7167,-0.7104,-0.7134,0.0,0.0,-0.7975,-0.7821,-0.8372,-0.8852,-0.8675,-0.8818,-0.898,-0.9014,-0.8606,-0.8289,-0.8235,-0.7771,-0.7358,-0.7138,-0.6213,-0.5671,-0.5883,-0.5778,-0.5559,-0.5283,-0.5332,-0.518,-0.4713,-0.468,-0.448,-0.4051,-0.4051,-0.3813,-0.3343,-0.2878,-0.2376,-0.1905,-0.141,-0.0873,-0.0301,0.0401,0.0768,0.0934,0.2631,0.3498,0.3834,0.464,0.4981,0.5147,0.5903,0.6776,0.777,0.9148,0.9837,1.0059,0.0,-0.5234,-0.5359,-0.5644,-0.5502,-0.5349,-0.5377,-0.5377,-0.532,-0.5146,-0.5127,-0.504,-0.4823,-0.4938,-0.5153,-0.5438,-0.6182,-0.6961,-0.7711,-0.8126,-0.8973,-1.0396,-0.997,-1.0111,-1.099,-1.1183,-1.1293,-1.1293,-1.1293,-1.1217,-1.1074,-1.0667,-1.0496,-1.0496,-1.0496,-1.0419,-1.0283,-1.0283,-1.0231,-1.0146,-1.0344,-1.0413,-1.0431,-1.0669,-1.0514,-1.0072,-0.9338,-0.8851,0.0,0.0,-0.8156,-0.8084,-0.7675,-0.7473,-0.7405,-0.7445,-0.7567,0.0,-0.8214,-0.81,-0.7925,0.0,-0.8251,-0.84,-0.8855,-0.9121,-0.9304,-0.9336,-0.9647,-0.9869,-0.9758,-0.9559,-0.9543,0.0,-0.9439,-0.9126,-0.9197,-0.8725,-0.8282,-0.8064,-0.7423,-0.7034,-0.7097,-0.7178,-0.7099,-0.6755,-0.698,-0.6793,-0.6046,-0.6013,-0.5712,-0.5084,-0.505,-0.4815,-0.4345,-0.4112,-0.3877,-0.3675,-0.3247,-0.2913,-0.2676,-0.1536,-0.0668,-0.0033,0.0646,0.1402,0.2155,0.2536,0.3289,0.4266,0.4643,0.5224,0.609,0.804,0.9134,0.9614,0.0,-0.5378,-0.552,-0.5863,-0.5641,-0.5435,-0.5482,-0.5492,-0.5454,-0.5349,-0.533,-0.5272,-0.5127,-0.5108,-0.5117,-0.5137,-0.605,-0.6817,-0.7277,-0.8178,-0.9226,-1.037,-1.0193,-1.0487,-1.1367,-1.1623,-1.18,-1.1909,-1.1909,-1.1819,-1.1603,-1.1124,-1.082,-1.0726,-1.0845,-1.0769,-1.0624,-1.0837,-1.0812,-1.0667,-1.1023,-1.1166,-1.1183,-1.1361,-1.1131,-1.0568,-0.984,-0.9344,0.0,0.0,-0.8696,-0.8627,-0.8238,-0.8128,-0.8157,-0.8315,-0.8862,-0.9426,-0.9456,0.0,0.0,-0.9268,-0.9537,-0.9858,-0.9858,-1.0172,-1.0508,-1.0687,-1.0719,-1.0719,-1.0719,-1.0405,-1.0269,-1.066,-1.051,-1.0327,-1.0303,-1.0044,-0.9709,-0.9276,-0.8974,-0.8791,-0.8732,-0.8336,-0.8043,-0.7922,-0.8133,-0.8035,-0.7517,-0.7493,-0.7129,-0.6334,-0.6301,-0.6071,-0.554,-0.5279,-0.5147,-0.5147,-0.4683,-0.4453,-0.4417,-0.3343,-0.2417,-0.1625,-0.1384,-0.077,0.007,0.0467,0.1374,0.2563,0.2974,0.3552,0.4351,0.6267,0.7626,0.8549,0.0,0.0,-0.5746,-0.5964,-0.5824,-0.5752,-0.5952,-0.597,-0.5841,-0.5446,-0.5398,-0.5398,-0.5389,-0.5389,-0.5417,-0.5483,-0.6227,-0.687,-0.7276,-0.8369,-0.9351,-1.0166,-1.0378,-1.1061,-1.2335,-1.2378,-1.2553,-1.2943,-1.2943,-1.2589,-1.1902,-1.1877,-1.1653,-1.1293,-1.1678,-1.1502,-1.0922,-1.1658,-1.1584,-1.1032,-1.1425,-1.1591,-1.1547,-1.1151,-1.0528,-0.9833,-0.9799,0.0,-0.8981,-0.8195,-0.7928,-0.7928,-0.792,-0.7903,0.0,-0.9002,-0.9833,-1.0303,0.0,0.0,-1.088,-1.0605,-1.104,-1.1523,-1.1523,-1.1548,-1.1548,-1.1566,-1.1566,-1.1566,-1.1566,-1.1541,-1.1541,-1.1566,-1.1935,-1.205,-1.1619,-1.1816,-1.1835,-1.136,-1.1183,-1.1099,0.0,-0.9113,-0.8005,-0.8454,-0.8494,-0.8606,-0.8913,-0.8924,-0.8672,-0.8134,-0.8134,-0.7907,-0.7423,-0.6502,-0.6079,-0.6042,-0.518,-0.4782,-0.4782,-0.4749,-0.4613,-0.4418,-0.3242,-0.2619,-0.2319,-0.1198,-0.069,-0.0545,0.0543,0.1482,0.2311,0.3498,0.4815,0.6123,0.0,0.0,0.0,-0.5769,-0.5852,-0.5927,-0.5993,-0.5893,-0.5791,-0.5736,-0.5614,0.0,0.0,0.0,0.0,0.0,-0.6139,-0.6689,-0.7141,-0.8028,-0.8935,-0.9827,-1.0317,-1.0914,-1.1658,-1.1981,-1.219,-1.233,-1.2497,-1.2473,-1.2234,-1.2289,-1.2224,-1.2101,-1.2249,-1.2175,-1.1977,-1.224,-1.2206,-1.199,-1.2082,-1.2134,-1.2139,-1.2227,-1.1595,-1.0656,0.0,0.0,-0.8531,-0.8246,-0.8227,-0.8279,-0.8148,0.0,0.0,-1.04,-1.1043,-1.1314,-1.137,0.0,-1.1489,-1.1294,-1.1428,-1.1591,-1.1591,-1.1888,-1.2135,-1.2135,-1.2135,-1.2135,-1.2135,-1.1839,-1.1715,-1.2061,-1.2224,-1.2274,-1.2141,-1.2469,-1.2405,-1.162,-1.1779,0.0,0.0,0.0,0.0,-0.9892,-0.9764,-0.9575,-0.934,-0.932,-0.916,-0.8737,-0.8737,-0.864,-0.8511,-0.7837,-0.7484,-0.7484,-0.6601,-0.6013,-0.565,-0.5555,-0.5323,-0.4925,-0.4701,-0.413,-0.3391,-0.3107,-0.2328,-0.126,-0.06,0.0037,0.0781,0.2006,0.2688,0.3235,0.0,0.0,0.0,0.0,0.0,0.0,0.0,0.0,0.0,0.0,0.0,0.0,0.0,0.0,0.0,0.0,0.0,-0.6575,-0.6969,-0.7744,-0.8546,-0.9338,-0.9722,-1.0313,-1.1161,-1.1287,-1.162,-1.2152,-1.2328,-1.2382,-1.2377,-1.2404,-1.2346,-1.2228,-1.2285,-1.2238,-1.2111,-1.2332,-1.2379,-1.2317,-1.2215,-1.2223,-1.2291,-1.2247,-1.1636,0.0,-1.071,-0.9808,-0.864,-0.8474,-0.8597,-0.8796,-0.8671,-0.9374,-1.0443,-1.1452,-1.2049,-1.2446,-1.2599,-1.256,-1.2451,-1.2397,-1.2589,-1.2773,-1.2773,-1.3134,-1.3426,-1.3224,-1.3183,-1.3073,-1.2699,-1.2334,-1.2219,-1.2535,-1.2819,-1.303,-1.3061,-1.3554,-1.3608,-1.2842,-1.2966,-1.2997,0.0,0.0,0.0,-1.1363,-1.1129,-1.0891,-1.0595,-1.037,-1.0053,-0.9671,-0.9633,-0.9538,-0.9372,-0.8903,-0.849,-0.8199,-0.7954,-0.7565,-0.7038,-0.7027,-0.6802,-0.6373,-0.6115,-0.556,-0.4852,-0.4699,-0.3986,-0.2968,-0.2345,-0.1719,-0.1031,0.0153,0.0642,0.1114,0.0,0.0,0.0,0.0,0.0,0.0,0.0,0.0,0.0,0.0,0.0,0.0,0.0,0.0,0.0,0.0,0.0,0.0,-0.6769,-0.7519,-0.8183,-0.8686,-0.8703,-0.9396,-1.09,-1.0464,-1.0905,-1.234,-1.2343,-1.2312,-1.2236,-1.2267,-1.2054,-1.1691,-1.1883,-1.1764,-1.1451,-1.2011,-1.2128,-1.197,-1.1797,-1.1849,-1.1969,-1.1262,-1.0721,-1.0258,-1.0029,-0.9676,-0.9259,-0.8831,0.0,0.0,0.0,0.0,-1.2293,-1.2144,-1.2865,-1.3652,-1.3286,-1.3464,-1.3794,-1.385,-1.441,-1.4926,-1.4926,-1.5152,-1.5213,-1.4699,-1.457,-1.4238,0.0,0.0,-1.301,-1.2935,-1.3707,-1.4354,-1.4378,-1.5048,-1.5369,0.0,0.0,0.0,0.0,0.0,0.0,-1.2802,0.0,-1.2414,-1.258,-1.2042,-1.149,-1.0958,-1.0926,-1.0636,-1.0142,-0.9767,-0.9139,-0.8317,-0.9091,-0.9248,-0.8805,-0.9005,-0.8974,-0.8702,-0.7586,-0.6945,-0.6676,-0.6009,-0.5699,-0.5544,-0.4533,-0.375,-0.3085,-0.2075,-0.1293,-0.0351,0.0,0.0,0.0,0.0,0.0,0.0,0.0,0.0,0.0,0.0,0.0,0.0,0.0,0.0,0.0,0.0,0.0,0.0,-0.6557,-0.6992,-0.7341,-0.7524,-0.8228,-0.9066,-1.0012,-1.023,-1.0743,-1.1579,-1.1681,-1.1638,-1.1486,-1.1743,-1.1726,-1.1483,-1.1535,-1.1496,-1.1406,-1.1561,-1.1591,-1.151,-1.1126,-1.1108,-1.1251,-1.1066,-1.0687,-1.0261,-1.0493,0.0,0.0,0.0,0.0,0.0,0.0,-1.2025,-1.2847,0.0,0.0,-1.3994,-1.4361,-1.453,-1.4654,-1.4926,-1.513,-1.5276,-1.5276,-1.5018,-1.4779,-1.4629,-1.4197,-1.3636,0.0,0.0,0.0,-1.3118,-1.422,0.0,-1.5253,-1.5795,0.0,-1.5663,0.0,-1.5289,-1.4923,-1.5083,0.0,0.0,-1.3753,-1.3316,-1.361,-1.3455,-1.3274,-1.2984,-1.2512,-1.2143,-1.1888,-1.0944,-1.0264,-0.9906,-0.9415,-0.9485,-1.0018,-0.9499,-0.945,-0.9824,-0.9643,-0.9042,-0.8114,-0.7647,-0.6923,-0.597,-0.5118,-0.4652,-0.4377,-0.3327,-0.282,-0.2464,0.0,0.0,0.0,0.0,0.0,0.0,0.0,0.0,0.0,0.0,0.0,0.0,0.0,0.0,0.0,0.0,0.0,0.0,0.0,-0.6793,-0.6983,-0.7225,-0.7608,-0.8227,-0.9104,-0.9478,-0.9906,-1.0419,-1.0755,-1.0801,-1.0543,-1.0983,-1.1112,-1.1006,-1.1126,-1.1129,-1.1049,-1.1049,-1.1049,0.0,0.0,-1.0601,-1.0758,-1.0618,-1.0367,-1.015,0.0,0.0,0.0,0.0,0.0,-1.1908,-1.2689,-1.3228,-1.367,-1.4211,0.0,-1.4785,-1.5129,-1.5345,-1.5524,-1.5702,-1.5866,-1.5903,-1.5629,-1.5477,-1.5163,-1.4411,-1.3954,0.0,-1.2277,0.0,0.0,0.0,0.0,0.0,-1.6131,-1.6471,-1.6758,0.0,-1.6774,0.0,-1.6084,-1.6243,-1.621,0.0,-1.484,-1.4291,-1.4394,-1.4145,-1.3936,-1.3837,-1.3515,-1.3175,-1.2805,-1.1814,-1.1247,-1.1075,-1.0895,-1.0968,-1.1239,-1.0906,-1.0833,-1.0967,0.0,-1.0265,-0.947,-0.8978,-0.8333,-0.7613,-0.6619,-0.6237,-0.6083,-0.5038,-0.4455,-0.4105,0.0,0.0,0.0,0.0,0.0,0.0,0.0,0.0,0.0,0.0,-0.6451,0.0,0.0,0.0,0.0,0.0,0.0,0.0,0.0,0.0,-0.6914,-0.7335,-0.7005,-0.7308,-0.8353,-0.855,-0.8849,-0.9296,-0.9803,-0.9891,-0.9566,-1.0023,-1.0231,-1.0202,-1.0449,-1.0448,-1.0266,-1.0351,-1.0386,-1.0351,-1.0199,-1.0244,-1.0405,0.0,0.0,0.0,0.0,0.0,0.0,0.0,-1.2292,-1.2674,-1.3765,-1.4366,-1.4671,-1.4927,-1.5322,-1.568,-1.5734,-1.6001,-1.6287,-1.6318,-1.6543,-1.6612,-1.6023,-1.6027,-1.5696,-1.4132,0.0,-1.3084,-1.1552,-1.2278,-1.3083,-1.3016,0.0,-1.5805,-1.6895,-1.7062,-1.7442,-1.8387,-1.8074,-1.7749,-1.7573,-1.7424,-1.7129,-1.6563,-1.5874,-1.5362,-1.5119,-1.459,-1.4273,-1.4154,-1.4115,-1.3852,-1.3305,-1.2612,-1.2189,-1.2153,-1.2674,-1.2777,-1.2472,-1.2556,-1.2439,-1.2161,0.0,0.0,-1.0714,-1.0153,-0.982,-0.9561,-0.8466,-0.7974,-0.7783,-0.678,-0.6083,-0.5535,0.0,0.0,0.0,0.0,0.0,0.0,0.0,0.0,0.0,0.0,-0.6824,-0.6464,0.0,0.0,0.0,0.0,0.0,0.0,0.0,0.0,0.0,-0.7056,-0.6997,-0.736,-0.8209,-0.8259,-0.8627,0.0,0.0,-0.9153,-0.8871,-0.8917,-0.8811,-0.8594,-0.8648,-0.8616,-0.8571,-0.9059,-0.9217,-0.9153,-0.9606,-0.9899,-1.0083,0.0,0.0,0.0,0.0,0.0,0.0,0.0,-1.365,-1.4535,-1.4703,-1.5281,-1.5913,-1.5944,-1.6027,-1.6166,-1.6445,-1.6573,-1.668,-1.6968,-1.7073,-1.6972,-1.6426,-1.5579,0.0,0.0,-1.2953,-1.2008,-1.1267,-1.2203,-1.3099,-1.3081,0.0,0.0,0.0,0.0,-1.7811,0.0,0.0,0.0,0.0,0.0,0.0,0.0,0.0,-1.6652,-1.6163,-1.6048,-1.5681,-1.5021,-1.4825,-1.4469,-1.3861,-1.3607,-1.363,-1.3859,-1.3122,-1.3119,-1.3757,-1.2974,-1.282,-1.3229,-1.3119,0.0,-1.2181,-1.1755,-1.1019,-1.0024,-0.9485,-0.8998,-0.847,-0.7783,-0.7472,-0.7276,0.0,0.0,0.0,0.0,0.0,0.0,0.0,-0.7188,-0.7471,-0.801,-0.7794,-0.7446,-0.7062,-0.6703,-0.6547,0.0,0.0,0.0,0.0,0.0,0.0,0.0,-0.7112,-0.7335,-0.772,0.0,0.0,0.0,0.0,0.0,0.0,0.0,0.0,0.0,0.0,0.0,0.0,0.0,0.0,0.0,0.0,0.0,0.0,0.0,0.0,0.0,0.0,0.0,0.0,0.0,-1.3285,-1.452,-1.5319,-1.5871,-1.62,-1.62,-1.6318,-1.6522,-1.6774,-1.6913,-1.7018,-1.7289,-1.7282,-1.6898,-1.5722,0.0,0.0,0.0,-1.1955,-1.1367,-1.0795,-1.169,0.0,0.0,0.0,0.0,0.0,0.0,0.0,0.0,0.0,0.0,0.0,0.0,0.0,0.0,0.0,-1.7379,-1.6459,-1.6413,-1.623,-1.5836,-1.5313,-1.4968,-1.4814,-1.4351,-1.4166,-1.423,-1.3944,-1.3894,-1.4081,-1.3613,-1.355,-1.3811,-1.3601,0.0,-1.3046,-1.2512,-1.1959,-1.1409,-1.0875,-1.0314,-0.9717,-0.9226,-0.8656,-0.8042,0.0,0.0,0.0,0.0,0.0,0.0,0.0,-0.7578,-0.7914,-0.8516,-0.8605,-0.8371,-0.7797,-0.7146,-0.675,0.0,0.0,0.0,0.0,0.0,0.0,0.0,0.0,0.0,0.0,0.0,0.0,0.0,0.0,0.0,0.0,0.0,0.0,0.0,0.0,0.0,0.0,0.0,0.0,0.0,0.0,0.0,0.0,0.0,0.0,0.0,0.0,0.0,0.0,0.0,-1.2548,-1.3775,-1.5302,-1.5986,-1.6264,-1.6337,-1.6591,-1.6934,-1.7131,-1.7269,-1.7385,-1.755,-1.7468,-1.6883,-1.5081,-1.4594,0.0,0.0,-1.1096,-1.086,-1.0391,0.0,-1.2061,0.0,-1.387,0.0,0.0,0.0,0.0,0.0,0.0,0.0,0.0,0.0,0.0,0.0,0.0,0.0,-1.6637,-1.6459,-1.6413,-1.6413,-1.5778,-1.5566,-1.5778,-1.5124,-1.4733,-1.4634,-1.4958,-1.4848,-1.4366,-1.4395,-1.4346,-1.4201,-1.3811,0.0,0.0,-1.301,-1.2709,-1.2562,-1.2077,-1.1521,-1.0919,-1.0456,-0.9681,-0.8764,0.0,0.0,0.0,0.0,0.0,0.0,0.0,-0.7307,-0.7917,-0.8526,-0.8605,-0.8568,-0.8506,-0.7963,-0.74,0.0,0.0,0.0,0.0,0.0,0.0,0.0,0.0,0.0,0.0,0.0,0.0,0.0,0.0,0.0,0.0,0.0,0.0,0.0,0.0,0.0,0.0,0.0,0.0,0.0,0.0,0.0,0.0,0.0,0.0,0.0,0.0,0.0,0.0,0.0,0.0,-1.2744,-1.3995,-1.5314,-1.6434,-1.675,0.0,0.0,-1.7747,-1.7842,-1.7842,-1.7862,-1.7862,-1.7328,-1.5394,0.0,0.0,-1.1609,-1.0769,-1.0378,-1.0312,-1.0834,-1.1632,0.0,0.0,-1.5029,0.0,0.0,0.0,0.0,0.0,0.0,0.0,0.0,0.0,0.0,0.0,0.0,-1.7174,-1.6666,-1.6413,-1.6413,-1.6316,-1.6308,-1.6321,-1.6128,-1.6024,-1.6012,-1.6053,-1.5797,-1.5291,-1.5338,-1.5081,-1.4533,-1.4201,0.0,0.0,-1.3593,-1.3083,-1.2599,-1.2526,-1.215,-1.1527,-1.0742,-1.0399,-1.0184,0.0,0.0,0.0,0.0,0.0,0.0,-0.7143,-0.7501,-0.7911,-0.8516,-0.8915,-0.9004,-0.8644,-0.8396,-0.7884,-0.6978,0.0,0.0,0.0,0.0,0.0,0.0,0.0,0.0,0.0,0.0,0.0,0.0,0.0,0.0,0.0,0.0,0.0,0.0,0.0,0.0,0.0,0.0,0.0,0.0,0.0,0.0,0.0,0.0,0.0,0.0,0.0,0.0,0.0,0.0,0.0,0.0,-1.2678,-1.3632,0.0,0.0,-1.6723,-1.7295,-1.7913,-1.7983,-1.7922,-1.8043,-1.7676,-1.6813,-1.4992,0.0,-1.315,-1.1281,-1.0645,-1.0424,-1.0424,-1.0546,-1.103,-1.2179,-1.274,-1.3562,-1.5095,0.0,0.0,0.0,0.0,0.0,0.0,0.0,0.0,0.0,0.0,0.0,-1.8555,-1.7545,-1.6955,-1.687,-1.6563,-1.6413,-1.6413,-1.6347,-1.6185,-1.5891,-1.6116,-1.5955,-1.5433,-1.5206,-1.507,-1.5048,-1.4393,0.0,0.0,-1.392,-1.3593,-1.3119,-1.3119,-1.2783,-1.2154,-1.1329,-1.0803,-1.0365,0.0,0.0,0.0,0.0,0.0,-0.6421,-0.7146,-0.7505,-0.7852,-0.8284,-0.8863,-0.907,-0.8644,-0.8448,-0.8015,-0.7197,-0.7033,0.0,0.0,0.0,0.0,0.0,0.0,0.0,0.0,0.0,0.0,0.0,0.0,0.0,0.0,0.0,0.0,0.0,0.0,0.0,0.0,0.0,0.0,0.0,0.0,0.0,0.0,0.0,0.0,0.0,0.0,0.0,0.0,0.0,0.0,0.0,0.0,0.0,0.0,0.0,-1.6164,-1.6918,-1.778,-1.8045,-1.8103,-1.8262,-1.768,-1.6628,0.0,-1.3932,-1.2961,-1.1097,-1.0621,-1.056,-1.0511,-1.0424,-1.0677,-1.1604,-1.2048,-1.2805,-1.4376,-1.5774,0.0,0.0,0.0,0.0,0.0,0.0,0.0,0.0,0.0,0.0,0.0,-1.8673,-1.7809,-1.7285,-1.6779,-1.6488,-1.6413,-1.6488,-1.6316,-1.5914,-1.6366,-1.6287,-1.5689,-1.551,-1.5403,-1.5354,0.0,0.0,0.0,-1.3979,-1.3767,-1.3491,-1.3384,-1.3092,-1.2621,-1.1688,-1.0981,-1.0377,0.0,0.0,0.0,0.0,0.0,0.0,-0.6409,-0.7148,-0.77,-0.77,-0.8245,-0.8605,-0.8605,-0.807,-0.7696,-0.7683,-0.721,0.0,0.0,0.0,0.0,0.0,0.0,0.0,0.0,0.0,-0.7596,-0.819,-0.8259,0.0,0.0,0.0,0.0,0.0,0.0,0.0,0.0,0.0,0.0,0.0,0.0,0.0,0.0,0.0,0.0,0.0,0.0,0.0,0.0,0.0,0.0,0.0,0.0,0.0,0.0,0.0,-1.5527,-1.6504,-1.738,-1.8035,-1.8498,-1.8498,-1.8035,-1.7076,-1.5052,-1.4133,-1.3134,-1.111,-1.0693,-1.0656,-1.0523,-1.0498,-1.0647,-1.1136,-1.2156,-1.3294,-1.4428,-1.6101,0.0,0.0,0.0,0.0,0.0,0.0,0.0,0.0,0.0,0.0,0.0,-1.9901,-1.8927,-1.7435,-1.6994,-1.6676,-1.6413,-1.6648,-1.6648,-1.6413,-1.7132,-1.7026,-1.6216,-1.6681,-1.6329,0.0,0.0,0.0,0.0,-1.3675,-1.3516,-1.3483,-1.314,-1.3005,-1.2859,-1.1706,-1.0956,-1.0376,0.0,0.0,0.0,0.0,0.0,0.0,0.0,-0.6586,-0.688,-0.6873,-0.7524,-0.7992,-0.7992,-0.7813,-0.7696,-0.7696,-0.721,0.0,0.0,0.0,0.0,0.0,0.0,0.0,0.0,0.0,-0.7922,-0.8204,-0.8632,-0.8956,0.0,0.0,0.0,0.0,0.0,0.0,0.0,0.0,0.0,0.0,0.0,0.0,0.0,0.0,0.0,0.0,0.0,0.0,0.0,0.0,0.0,0.0,0.0,0.0,0.0,-1.2602,-1.4018,0.0,-1.5621,-1.6126,-1.6491,-1.607,-1.5834,-1.5298,-1.3837,-1.3361,-1.2787,-1.1286,-1.0897,-1.0813,-1.0777,-1.0693,-1.1053,-1.2301,-1.2801,0.0,0.0,0.0,0.0,0.0,0.0,0.0,0.0,0.0,0.0,0.0,0.0,0.0,0.0,-2.0156,-1.9541,-1.878,-1.7968,-1.7401,-1.7095,-1.7078,-1.6948,-1.6687,-1.7109,-1.7049,-1.6589,-1.6442,0.0,0.0,0.0,0.0,0.0,-1.4436,-1.4049,-1.35,-1.3367,-1.3199,-1.2885,-1.1996,-1.1383,-1.0975,0.0,0.0,0.0,0.0,0.0,0.0,0.0,-0.6224,-0.6404,-0.6557,-0.6973,-0.7366,-0.766,-0.7519,-0.7479,-0.7692,-0.721,0.0,0.0,0.0,0.0,0.0,0.0,0.0,0.0,-0.7409,-0.7892,-0.8423,-0.9052,-0.9484,-0.9703,-0.981,-0.9387,0.0,0.0,0.0,0.0,0.0,0.0,0.0,0.0,0.0,0.0,0.0,0.0,0.0,0.0,0.0,0.0,0.0,0.0,0.0,0.0,0.0,0.0,0.0,-1.2659,-1.3853,0.0,-1.4907,-1.527,-1.4893,-1.4626,-1.419,-1.322,-1.2812,-1.2334,-1.1308,-1.1027,-1.0956,-1.0908,-1.0825,-1.1097,-1.2044,-1.258,0.0,0.0,0.0,0.0,0.0,0.0,0.0,0.0,0.0,0.0,0.0,0.0,0.0,0.0,-2.0435,-2.0144,-1.9901,-1.8697,-1.7897,-1.7584,-1.7468,-1.7228,-1.6948,-1.7256,-1.7256,-1.6959,-1.6552,0.0,0.0,0.0,0.0,0.0,-1.4561,-1.4149,-1.3485,-1.3365,-1.3171,-1.2913,-1.2287,-1.1725,-1.1254,0.0,0.0,0.0,0.0,0.0,0.0,0.0,-0.6034,-0.6213,-0.6586,-0.6557,-0.6788,-0.7541,-0.7188,-0.7101,-0.7601,0.0,0.0,0.0,0.0,0.0,0.0,0.0,0.0,-0.6908,-0.7045,-0.7672,-0.8799,-0.9543,-1.022,-1.076,-1.0862,-1.0279,-0.9133,-0.8567,0.0,0.0,0.0,0.0,0.0,0.0,0.0,0.0,0.0,0.0,0.0,0.0,0.0,0.0,0.0,0.0,0.0,0.0,0.0,0.0,0.0,0.0,0.0,0.0,-1.4106,-1.4598,-1.4555,-1.4148,-1.3614,-1.3009,-1.2419,0.0,-1.1223,-1.1097,-1.1076,-1.0988,-1.0978,-1.0983,-1.0974,0.0,0.0,0.0,0.0,0.0,0.0,0.0,0.0,0.0,0.0,0.0,0.0,0.0,0.0,0.0,-2.0724,-2.0724,-2.0724,-1.9226,-1.8306,-1.8034,-1.7865,-1.7617,-1.7273,-1.759,-1.7601,-1.7334,-1.7015,0.0,0.0,0.0,0.0,0.0,-1.4279,-1.3971,-1.3511,-1.3164,-1.3019,-1.2958,-1.2644,-1.205,-1.1397,0.0,0.0,0.0,0.0,0.0,0.0,0.0,0.0,0.0,0.0,-0.6304,-0.6577,-0.6754,-0.6855,-0.6952,0.0,0.0,0.0,0.0,0.0,0.0,0.0,0.0,0.0,-0.6908,-0.7769,-0.8408,-0.8799,-1.0293,-1.1146,-1.1399,-1.1818,-1.1181,-0.9627,-0.9481,-0.859,0.0,0.0,0.0,0.0,0.0,0.0,0.0,0.0,0.0,0.0,0.0,0.0,0.0,0.0,0.0,0.0,0.0,0.0,0.0,0.0,-1.0577,-1.0813,-1.1016,0.0,-1.2546,-1.2083,-1.2209,-1.2279,0.0,-1.1774,-1.183,-1.1223,-1.1097,-1.1226,-1.1666,-1.1738,-1.2161,0.0,0.0,0.0,0.0,0.0,0.0,0.0,0.0,0.0,0.0,0.0,0.0,0.0,0.0,0.0,0.0,-2.0923,-2.0923,-2.0923,-2.008,-1.9475,-1.9202,-1.8774,-1.8383,-1.8034,-1.803,-1.7877,-1.7601,-1.7518,0.0,0.0,0.0,0.0,-1.5323,-1.4893,-1.4449,-1.4001,-1.3541,-1.3216,-1.2981,-1.2928,-1.2613,-1.2236,0.0,0.0,0.0,0.0,0.0,0.0,0.0,0.0,0.0,0.0,0.0,-0.6257,-0.6475,-0.663,0.0,0.0,0.0,0.0,0.0,0.0,0.0,0.0,0.0,-0.6908,-0.6908,-0.774,-0.8361,-0.8719,-1.0186,-1.111,-1.1509,-1.1817,-1.132,-1.0178,-0.9372,-0.8299,0.0,0.0,0.0,0.0,0.0,0.0,0.0,0.0,0.0,0.0,-0.7723,-0.8293,0.0,-0.9199,-0.9922,-1.063,0.0,0.0,0.0,0.0,-0.9828,-0.9936,-1.0141,-1.1152,-1.2041,-1.1615,-1.1759,-1.1914,-1.1591,-1.1549,-1.1493,-1.1167,0.0,0.0,-1.19,0.0,0.0,0.0,0.0,0.0,0.0,0.0,0.0,0.0,0.0,0.0,0.0,0.0,0.0,0.0,0.0,0.0,0.0,-2.0997,-2.0997,-2.0997,-2.0472,-2.0042,-1.9773,-1.9119,-1.8706,-1.8545,-1.8247,-1.803,-1.7877,-1.7767,-1.7518,0.0,0.0,0.0,-1.5865,-1.5565,-1.4951,-1.416,-1.3911,-1.358,-1.3216,-1.3216,-1.3011,-1.2767,0.0,0.0,0.0,0.0,0.0,0.0,0.0,0.0,0.0,0.0,0.0,0.0,0.0,0.0,0.0,0.0,0.0,0.0,0.0,0.0,0.0,0.0,0.0,-0.6939,-0.7017,-0.7466,-0.8044,-0.8735,-0.9869,-1.0808,-1.1535,-1.1722,-1.1388,-1.0625,-0.8878,-0.7722,0.0,0.0,0.0,0.0,0.0,0.0,0.0,0.0,0.0,0.0,0.0,0.0,0.0,-0.8851,-0.9562,-1.0183,-0.9978,0.0,0.0,0.0,0.0,0.0,-1.0021,-1.1256,-1.2271,-1.1936,-1.1928,-1.2012,-1.2012,-1.1605,0.0,0.0,0.0,0.0,0.0,-1.2559,0.0,0.0,0.0,0.0,0.0,0.0,0.0,0.0,0.0,0.0,0.0,0.0,0.0,0.0,0.0,0.0,0.0,-2.0973,-2.1013,-2.1131,-2.0698,-2.0334,-2.0067,-1.9277,-1.8905,-1.8878,-1.8437,-1.8166,-1.8084,-1.7877,-1.7739,0.0,0.0,0.0,-1.62,-1.6142,-1.5449,-1.4398,-1.4249,-1.3971,-1.3601,-1.3541,-1.3307,-1.3072,0.0,0.0,0.0,0.0,0.0,0.0,0.0,0.0,0.0,0.0,0.0,0.0,0.0,0.0,0.0,0.0,0.0,0.0,0.0,0.0,0.0,-0.6908,-0.6908,-0.7114,-0.7562,-0.7666,-0.825,-0.9367,-1.0507,-1.144,-1.2191,-1.3149,-1.2567,-1.0625,-0.8876,-0.7698,-0.7009,0.0,0.0,0.0,0.0,0.0,0.0,0.0,0.0,0.0,0.0,0.0,0.0,-0.7836,-0.8886,-1.0169,-0.8964,0.0,0.0,0.0,0.0,0.0,-0.9935,-1.1344,-1.2334,-1.1459,-1.1619,-1.2012,-1.2012,-1.1928,-1.2026,0.0,0.0,0.0,0.0,-1.4051,0.0,0.0,0.0,0.0,0.0,0.0,0.0,0.0,0.0,0.0,0.0,0.0,0.0,0.0,0.0,0.0,0.0,0.0,-2.1166,-2.166,-2.118,-2.0736,-2.0334,-1.9642,-1.9316,-1.9289,-1.8905,-1.8476,-1.8084,-1.8057,-1.7893,0.0,0.0,-1.7256,-1.6666,-1.6257,-1.5865,-1.5381,-1.4517,-1.416,-1.404,-1.3662,-1.348,-1.342,0.0,0.0,0.0,0.0,0.0,0.0,0.0,0.0,0.0,0.0,0.0,0.0,0.0,0.0,0.0,0.0,0.0,0.0,0.0,0.0,0.0,-0.7319,-0.7332,-0.744,-0.7705,-0.8341,-0.9138,-1.0088,-1.1229,-1.2162,-1.2912,-1.3023,-1.1884,-0.9687,-0.8813,-0.796,-0.7158,-0.7088,0.0,0.0,0.0,0.0,0.0,0.0,0.0,0.0,0.0,0.0,0.0,0.0,-0.8795,-0.9693,-0.909,0.0,0.0,0.0,0.0,0.0,-0.9038,-1.0269,-1.1323,-1.14,-1.2476,-1.3619,-1.4024,-1.3882,-1.3808,0.0,0.0,0.0,0.0,0.0,0.0,0.0,0.0,0.0,0.0,0.0,0.0,0.0,0.0,0.0,0.0,0.0,0.0,0.0,0.0,0.0,0.0,0.0,-2.0688,-2.1296,-2.085,-2.0711,-2.0945,-2.0271,-1.9746,-1.9394,-1.921,-1.8905,-1.8476,-1.8476,-1.8275,-1.7931,0.0,-1.7673,-1.7267,-1.706,-1.6542,-1.5865,-1.542,-1.4854,-1.4359,-1.4273,-1.4154,-1.4043,0.0,0.0,0.0,0.0,0.0,0.0,0.0,0.0,0.0,0.0,0.0,0.0,0.0,0.0,0.0,0.0,0.0,0.0,0.0,0.0,-0.7087,-0.7492,-0.764,-0.7835,-0.8119,-0.9061,-0.9945,-1.0798,-1.1858,-1.2722,-1.3367,-1.244,-1.0978,-0.9145,-0.8739,-0.809,-0.7284,-0.7153,-0.7161,0.0,0.0,0.0,0.0,0.0,0.0,0.0,0.0,0.0,0.0,0.0,0.0,0.0,0.0,0.0,0.0,-0.887,-0.8255,-0.7909,-0.8767,-0.9686,-1.0634,-1.166,-1.3069,-1.453,-1.5669,-1.5474,-1.5232,0.0,0.0,0.0,0.0,0.0,0.0,0.0,0.0,0.0,0.0,0.0,0.0,0.0,0.0,0.0,0.0,0.0,0.0,0.0,0.0,0.0,0.0,0.0,-2.0132,-2.0765,-2.0411,-2.0444,-2.0904,-2.0461,-2.0014,-1.9617,-1.9565,-1.933,-1.8931,-1.8851,-1.8664,-1.8383,-1.8193,-1.8002,-1.7838,-1.7739,-1.7172,-1.6343,-1.6171,-1.5439,-1.4529,-1.4894,-1.4835,-1.4608,0.0,0.0,0.0,0.0,0.0,0.0,0.0,0.0,0.0,0.0,0.0,0.0,0.0,0.0,0.0,0.0,0.0,0.0,0.0,0.0,-0.6921,-0.6952,-0.7427,-0.8223,-0.9354,-0.957,-1.0239,-1.1335,-1.217,-1.2851,-1.3368,-1.181,-1.0669,-0.9878,-0.867,-0.7822,-0.7284,-0.7153,-0.7107,-0.7115,0.0,0.0,0.0,0.0,0.0,0.0,0.0,0.0,0.0,0.0,0.0,0.0,0.0,0.0,-0.989,-0.9534,-0.9084,-0.8952,-1.0132,-1.0683,-1.1207,-1.2269,-1.2514,-1.3121,-1.5525,-1.5433,0.0,-1.7486,0.0,0.0,0.0,0.0,0.0,0.0,0.0,0.0,0.0,0.0,0.0,0.0,0.0,0.0,0.0,0.0,0.0,0.0,0.0,0.0,0.0,0.0,0.0,-2.0421,-2.0168,-1.9833,-1.944,-1.9584,-1.9884,-2.0321,-2.008,-1.9759,-1.9342,-1.8984,-1.8984,-1.9263,-1.8464,-1.8166,-1.8224,-1.7838,-1.7479,-1.705,-1.6371,-1.5439,-1.4558,-1.5147,-1.5157,-1.4914,0.0,0.0,0.0,0.0,0.0,0.0,0.0,0.0,0.0,0.0,0.0,0.0,0.0,0.0,0.0,0.0,0.0,0.0,0.0,-0.6908,-0.7048,-0.7384,-0.7588,-0.8113,-0.8986,-1.0151,-1.1239,-1.2266,-1.291,-1.2938,-1.2375,-1.1321,-1.032,-0.9405,-0.8463,-0.7973,-0.7831,-0.7403,-0.7461,-0.7818,-0.7497,0.0,0.0,0.0,0.0,0.0,0.0,0.0,0.0,0.0,-0.852,-0.9198,-0.899,-0.9613,-1.034,-0.9876,-0.9297,-0.8913,-0.9415,-1.0382,-1.1427,-1.218,-1.3381,0.0,0.0,-1.7199,-1.7808,-1.9244,-1.9421,0.0,0.0,0.0,0.0,0.0,0.0,0.0,0.0,0.0,0.0,0.0,0.0,0.0,0.0,0.0,0.0,0.0,0.0,0.0,0.0,0.0,0.0,-1.9761,-1.9677,-1.9739,-1.9984,-1.9888,-1.9952,-2.0149,-1.9753,-1.9458,-1.9271,-1.912,-1.9049,-1.9011,-1.8691,-1.841,-1.8154,-1.8002,-1.7783,-1.7451,-1.6786,-1.6293,-1.5997,-1.6358,-1.633,-1.6073,0.0,0.0,0.0,0.0,0.0,0.0,0.0,0.0,0.0,0.0,0.0,0.0,0.0,0.0,0.0,0.0,0.0,0.0,-0.6908,-0.6908,-0.7061,-0.7427,-0.7651,-0.7996,-0.8501,-1.0263,-1.1493,-1.2141,-1.2747,-1.2623,-1.178,-1.0886,-1.0094,-0.9364,-0.866,-0.8415,-0.8502,-0.7882,-0.7874,-0.8242,-0.7645,-0.7399,0.0,0.0,0.0,0.0,0.0,0.0,0.0,0.0,-0.8424,-0.8999,-0.8978,-0.9547,-1.0163,-0.9965,-0.9777,-0.96,-0.955,-1.0627,-1.1884,-1.2437,0.0,0.0,-1.7253,-1.8184,-1.9057,-2.0115,-2.0222,0.0,0.0,0.0,0.0,0.0,0.0,0.0,0.0,0.0,0.0,0.0,0.0,0.0,0.0,0.0,0.0,0.0,0.0,0.0,0.0,0.0,0.0,0.0,-1.9129,-1.934,-1.981,-1.9614,-1.9495,-1.9432,-1.9111,-1.9051,-1.9227,-1.901,-1.8895,-1.8828,-1.8454,-1.8263,-1.8207,-1.81,-1.7989,-1.7838,-1.729,-1.6972,-1.6849,-1.7224,-1.7157,-1.6933,0.0,0.0,0.0,0.0,0.0,0.0,0.0,0.0,0.0,0.0,0.0,0.0,0.0,0.0,0.0,0.0,0.0,0.0,-0.6908,-0.6908,-0.6908,-0.6908,-0.7535,-0.7945,-0.8082,-0.9793,-1.0679,-1.0693,-1.1428,-1.1794,-1.1767,-1.0551,-0.9999,-0.9971,-0.9364,-0.918,-0.9255,-0.8588,-0.8298,-0.8242,-0.7645,-0.7399,0.0,0.0,0.0,0.0,0.0,0.0,0.0,0.0,-0.834,-0.8109,-0.9239,-0.9375,-0.9226,-0.9747,-1.0604,-1.1337,-1.0984,-1.1679,-1.2655,-1.3249,0.0,0.0,-1.7312,-1.7971,-1.8577,-1.9931,-2.0137,-1.9977,-1.9584,0.0,0.0,0.0,0.0,0.0,0.0,0.0,0.0,0.0,0.0,0.0,0.0,0.0,0.0,0.0,0.0,0.0,0.0,0.0,0.0,0.0,-1.8498,-1.8498,-1.8498,-1.8498,-1.84,-1.8202,-1.8202,-1.8576,-1.9265,-1.8598,-1.8528,-1.8829,-1.7702,-1.7712,-1.8472,-1.8144,-1.8118,-1.824,-1.7854,-1.7318,-1.6877,-1.7479,-1.7484,-1.7268,0.0,0.0,0.0,0.0,0.0,0.0,0.0,0.0,0.0,0.0,0.0,0.0,0.0,0.0,0.0,0.0,0.0,0.0,-0.6908,-0.6936,-0.6944,-0.6908,-0.7133,-0.7315,-0.7386,-0.8368,-0.9472,-1.0693,-1.11,-1.1047,-1.051,-0.9832,-0.9734,-1.0112,-0.952,-0.9259,-0.9255,-0.8588,-0.8298,-0.8242,-0.7645,-0.7399,0.0,0.0,0.0,0.0,0.0,0.0,0.0,0.0,0.0,0.0,-0.8453,-0.9437,-1.0485,-0.9651,-1.0397,-1.1343,-1.0716,-1.2126,0.0,-1.4159,0.0,0.0,0.0,-1.9043,0.0,0.0,-1.9874,-1.9578,0.0,0.0,0.0,0.0,0.0,0.0,0.0,0.0,0.0,0.0,0.0,0.0,0.0,0.0,0.0,0.0,0.0,0.0,0.0,0.0,0.0,0.0,-1.8498,-1.8498,-1.8498,-1.8498,-1.8478,-1.842,-1.8282,-1.844,-1.8865,-1.8544,-1.8487,-1.8655,-1.8177,-1.7968,-1.791,-1.7578,-1.7312,-1.7131,-1.7383,-1.7387,-1.7276,-1.7784,-1.7909,-1.7826,0.0,0.0,0.0,0.0,0.0,0.0,0.0,0.0,0.0,0.0,0.0,0.0,0.0,0.0,0.0,0.0,0.0,0.0,0.0,-0.696,-0.6969,-0.6908,-0.6985,-0.7182,-0.7501,-0.7951,-0.8672,-0.9666,-1.0101,-1.0266,-1.0144,-0.9813,-1.002,-1.0655,-1.0211,-0.988,-0.9612,-0.8978,-0.8701,-0.8645,-0.8011,-0.7758,-0.7758,0.0,0.0,0.0,0.0,0.0,0.0,0.0,0.0,0.0,-0.8011,-0.8835,-0.9819,-0.9218,-1.0132,-1.1321,-1.1239,-1.3016,0.0,-1.5494,-1.727,-1.901,-1.9482,0.0,0.0,0.0,0.0,0.0,0.0,0.0,0.0,0.0,0.0,0.0,0.0,0.0,0.0,0.0,0.0,0.0,0.0,0.0,0.0,0.0,0.0,0.0,0.0,0.0,0.0,0.0,-1.8498,-1.8498,-1.8498,-1.8498,-1.8498,-1.8498,-1.838,-1.8422,-1.8611,-1.8328,-1.8198,-1.8139,-1.8002,-1.7745,-1.7419,-1.7255,-1.7056,-1.6882,-1.7032,-1.7071,-1.7117,-1.7401,-1.7489,-1.7489,0.0,0.0,0.0,0.0,0.0,0.0,0.0,0.0,0.0,0.0,0.0,0.0,0.0,0.0,0.0,0.0,0.0,0.0,0.0,0.0,-0.6977,-0.6916,-0.7042,-0.7406,-0.8021,-0.8144,-0.8153,-0.803,-0.8701,-0.9459,-1.03,-1.0183,-1.0573,-1.1365,-1.1121,-1.0675,-1.0077,-0.9457,-0.9185,-0.9086,-0.8476,-0.8222,-0.8222,-0.8222,0.0,0.0,0.0,0.0,0.0,0.0,0.0,0.0,-0.7885,-0.7951,-0.8101,-0.861,-0.9879,-1.1312,-1.2162,-1.4004,0.0,-1.694,-1.7776,0.0,-1.9529,0.0,0.0,0.0,0.0,0.0,0.0,0.0,0.0,0.0,0.0,0.0,0.0,0.0,0.0,0.0,0.0,0.0,0.0,0.0,0.0,0.0,0.0,0.0,0.0,0.0,0.0,0.0,-1.8517,-1.8498,-1.8498,-1.8498,-1.8498,0.0,-1.8498,-1.8498,-1.8498,-1.8103,-1.7767,-1.7502,-1.7432,-1.725,-1.6994,-1.7087,-1.7158,-1.711,-1.6754,-1.6579,-1.6541,-1.6637,-1.6623,-1.6598,0.0,0.0,0.0,0.0,0.0,0.0,0.0,0.0,0.0,0.0,0.0,0.0,0.0,0.0,0.0,0.0,0.0,0.0,0.0,0.0,-0.705,-0.6977,-0.7158,-0.7323,-0.7477,-0.7555,-0.7581,-0.7549,-0.8165,-0.8832,-0.953,-0.9505,-1.0098,-1.1141,-1.0627,-1.0063,-0.9453,-0.8785,-0.8268,-0.7877,-0.7727,-0.7673,-0.7668,-0.7668,-0.7582,0.0,0.0,0.0,0.0,0.0,0.0,0.0,-0.7892,-0.8296,-0.8713,-0.8412,-0.9788,-1.1448,-1.1536,-1.3475,0.0,0.0,-1.8686,-2.0203,-2.0112,-2.0087,0.0,0.0,0.0,0.0,0.0,0.0,0.0,0.0,0.0,0.0,0.0,0.0,0.0,0.0,0.0,0.0,0.0,0.0,0.0,0.0,0.0,0.0,0.0,0.0,0.0,-1.8653,-1.8556,-1.8498,-1.8498,-1.8498,-1.8498,0.0,-1.8498,-1.8498,-1.8498,-1.8262,-1.7909,-1.7496,-1.7483,-1.7221,-1.6771,-1.6789,-1.6463,-1.6016,-1.6606,-1.6504,-1.6131,-1.6817,-1.6884,-1.6598,0.0,0.0,0.0,0.0,0.0,0.0,0.0,0.0,0.0,0.0,0.0,0.0,0.0,0.0,0.0,0.0,0.0,0.0,0.0,-0.7104,-0.7182,-0.715,-0.7244,-0.7316,-0.7349,-0.739,-0.7399,-0.7399,-0.7715,-0.8393,-0.9413,-0.9911,-1.0703,-1.1639,-1.0946,-1.0292,-0.9668,-0.8738,-0.8192,-0.7934,-0.7936,-0.7938,-0.7926,-0.7926,-0.7763,-0.7507,-0.7575,0.0,0.0,0.0,0.0,0.0,0.0,0.0,-0.8574,-0.8573,-0.9655,-1.1024,-1.1926,0.0,0.0,-1.839,0.0,-2.0412,-2.005,-1.9962,0.0,0.0,0.0,0.0,0.0,0.0,0.0,0.0,0.0,0.0,0.0,0.0,0.0,0.0,0.0,0.0,0.0,0.0,0.0,0.0,0.0,0.0,0.0,-1.8774,-1.8755,-1.8755,-1.8653,-1.86,-1.8625,-1.8556,-1.8537,-1.8595,-1.8537,-1.8498,-1.8498,-1.8301,-1.8069,-1.7835,-1.7733,-1.7269,-1.6616,-1.6774,-1.6432,-1.5814,-1.6158,-1.6142,-1.5961,-1.6115,-1.6067,-1.5876,0.0,0.0,0.0,0.0,0.0,0.0,0.0,0.0,0.0,0.0,0.0,0.0,0.0,0.0,0.0,0.0,0.0,0.0,0.0,-0.719,-0.73,-0.7316,-0.7316,-0.7341,-0.7399,-0.7399,-0.7399,-0.7399,-0.7512,-0.828,-0.9634,-1.0427,-1.1261,-1.2076,-1.1317,-1.0616,-0.9978,-0.8879,-0.8345,-0.8245,-0.8251,-0.8268,-0.8268,-0.8254,-0.7956,-0.7514,-0.7514,-0.7537,-0.7597,-0.7761,0.0,0.0,0.0,0.0,-0.8195,-0.872,-0.9396,-1.0362,-1.2128,0.0,-1.7225,-1.9862,-2.0368,0.0,-1.9854,0.0,0.0,0.0,0.0,0.0,0.0,0.0,0.0,0.0,0.0,0.0,0.0,0.0,0.0,0.0,0.0,0.0,0.0,0.0,0.0,0.0,0.0,0.0,-1.8993,-1.8889,-1.8822,-1.8822,-1.8755,-1.8736,-1.8803,-1.8625,-1.8615,-1.8711,-1.8595,-1.8517,-1.8498,-1.8341,-1.8242,-1.8183,-1.8023,-1.7502,-1.6765,-1.6985,-1.6731,-1.6163,-1.5944,-1.5901,-1.5879,-1.5446,-1.5221,-1.5108,0.0,0.0,0.0,0.0,0.0,0.0,0.0,0.0,0.0,0.0,0.0,-0.6936,-0.6908,-0.7001,0.0,0.0,0.0,0.0,-0.7083,0.0,0.0,-0.739,-0.739,-0.7384,-0.7399,-0.7399,-0.7399,-0.7399,-0.798,-0.8893,-1.0109,-0.9721,-1.019,-1.1312,-1.069,-1.0045,-0.9382,-0.8749,-0.8148,-0.7634,-0.768,-0.7702,-0.771,-0.7704,-0.7662,-0.7597,-0.7597,-0.7702,-0.7856,-0.7878,-0.7963,0.0,0.0,0.0,0.0,-0.8346,-0.8915,-0.9648,0.0,0.0,-1.67,0.0,-1.9809,-2.0191,0.0,0.0,0.0,0.0,0.0,0.0,0.0,0.0,0.0,0.0,0.0,0.0,0.0,0.0,0.0,0.0,0.0,0.0,0.0,0.0,0.0,0.0,0.0,0.0,-1.9012,-1.8993,-1.896,-1.896,-1.8851,-1.8784,-1.8803,-1.8765,-1.8765,-1.8798,-1.8697,-1.8615,-1.8498,-1.8478,-1.8361,-1.8202,-1.8163,-1.8003,-1.7706,-1.7496,-1.7214,-1.6866,-1.6955,-1.6445,-1.568,-1.5947,-1.5647,-1.5108,0.0,0.0,0.0,0.0,0.0,0.0,0.0,0.0,0.0,0.0,0.0,-0.7001,-0.7009,-0.7026,0.0,0.0,0.0,0.0,-0.7266,-0.7328,0.0,-0.7399,-0.7399,-0.7399,-0.7399,-0.7429,-0.7451,-0.7451,-0.7824,-0.8777,-1.0257,-1.0107,-1.1004,-1.2722,-1.1757,-1.0974,-1.0339,-0.9046,-0.8132,-0.7551,-0.7589,-0.8141,-0.8846,-0.7935,-0.8164,-0.8833,-0.7928,-0.7657,-0.7746,-0.7863,-0.7984,0.0,0.0,0.0,0.0,0.0,-0.8934,-1.0015,-1.2274,-1.4359,-1.6481,0.0,-1.97,-1.9795,-1.9926,0.0,0.0,0.0,0.0,0.0,0.0,0.0,0.0,0.0,0.0,0.0,0.0,0.0,0.0,0.0,0.0,0.0,0.0,0.0,0.0,0.0,0.0,-1.9097,-1.9059,-1.9074,-1.9074,-1.9074,-1.8965,-1.8927,-1.8969,-1.886,-1.8803,-1.8803,-1.8716,-1.8673,-1.8615,-1.8537,-1.8459,-1.838,-1.838,-1.8149,-1.7774,-1.7733,-1.738,-1.6896,-1.69,-1.6595,-1.6076,-1.5935,-1.5669,-1.5345,0.0,0.0,0.0,0.0,0.0,0.0,0.0,0.0,0.0,0.0,0.0,0.0,-0.7099,0.0,0.0,0.0,0.0,0.0,-0.7392,0.0,0.0,0.0,0.0,-0.7429,-0.7429,-0.7474,-0.7511,-0.7527,-0.762,-0.8677,-1.0585,-1.08,-1.2117,-1.4254,-1.296,-1.1939,-1.103,-0.9614,-0.8654,-0.8093,-0.8169,-0.8916,-0.989,-0.9113,-0.9565,-1.0399,-0.8827,-0.8279,0.0,0.0,0.0,0.0,0.0,0.0,0.0,0.0,0.0,0.0,0.0,0.0,-1.5619,-1.8317,-1.8961,-1.9091,0.0,0.0,0.0,0.0,0.0,0.0,0.0,0.0,0.0,0.0,0.0,0.0,0.0,0.0,0.0,0.0,0.0,0.0,0.0,0.0,0.0,0.0,0.0,-1.9101,-1.9101,-1.9101,-1.9101,-1.9101,-1.9055,-1.9055,-1.9101,-1.8936,-1.8874,-1.8855,-1.8807,-1.875,-1.8692,-1.8595,-1.8537,-1.8498,-1.8498,-1.8268,-1.7902,-1.7949,-1.7618,-1.7063,-1.6858,-1.6637,-1.6371,-1.5935,-1.5635,-1.5457,0.0,0.0,0.0,0.0,0.0,0.0,0.0,0.0,0.0,0.0,0.0,0.0,-0.7107,-0.7206,-0.7284,-0.7284,0.0,0.0,0.0,0.0,0.0,0.0,0.0,0.0,-0.7502,-0.7505,-0.7536,-0.7597,-0.7603,-0.8885,-1.1355,-1.1604,-1.2947,-1.5077,-1.3808,-1.2279,-1.0626,-1.0461,-1.0019,-0.9426,-0.9752,-0.9881,-1.007,-1.1588,-1.2191,-1.2081,-1.061,0.0,0.0,0.0,0.0,0.0,0.0,0.0,0.0,0.0,0.0,0.0,0.0,-1.1961,0.0,-1.5674,-1.6952,0.0,0.0,0.0,0.0,0.0,0.0,0.0,0.0,0.0,0.0,0.0,0.0,0.0,0.0,0.0,0.0,0.0,0.0,0.0,0.0,0.0,0.0,0.0,0.0,-1.9101,-1.9101,-1.9101,-1.9101,-1.9101,-1.9101,-1.9101,-1.9101,-1.9082,-1.9059,-1.8993,-1.8993,-1.8879,-1.8692,-1.8692,-1.8615,-1.8498,-1.8498,-1.8478,-1.8439,-1.8262,-1.8063,-1.7788,-1.7214,-1.668,-1.6222,-1.6178,-1.5714,-1.5176,0.0,0.0,0.0,0.0,0.0,0.0,0.0,0.0,0.0,0.0,0.0,0.0,0.0,-0.7324,-0.7338,-0.7424,-0.7432,0.0,0.0,0.0,0.0,0.0,0.0,0.0,0.0,-0.7542,-0.7589,-0.7672,-0.7833,-0.8789,-1.0456,-1.1161,-1.1808,-1.2411,-1.3193,-1.2893,-1.1715,-1.0996,-1.0259,0.0,-1.0489,-1.1339,-1.2107,-1.2327,-1.3005,-1.3679,0.0,0.0,0.0,0.0,0.0,0.0,-0.9077,-0.8813,-0.8502,-0.8502,-0.8831,0.0,0.0,0.0,0.0,-1.458,-1.5549,0.0,0.0,0.0,0.0,0.0,0.0,0.0,0.0,0.0,0.0,0.0,0.0,0.0,0.0,0.0,0.0,0.0,0.0,0.0,0.0,0.0,0.0,0.0,0.0,0.0,-1.9101,-1.9101,-1.9101,-1.9101,-1.9101,-1.9101,-1.9101,-1.9101,-1.9082,-1.9059,-1.9017,-1.8955,-1.8898,-1.875,-1.8673,-1.8615,-1.8537,-1.8498,-1.8478,-1.8282,-1.8029,-1.7754,-1.7632,-1.7081,-1.6414,-1.6637,-1.6173,-1.5434,0.0,0.0,0.0,0.0,0.0,0.0,0.0,0.0,0.0,-0.7373,0.0,0.0,0.0,0.0,-0.7396,-0.7496,-0.7504,-0.7497,-0.7492,-0.7499,0.0,0.0,0.0,0.0,0.0,-0.7716,-0.7797,-0.7876,-0.8025,-0.8743,-0.9979,-1.0634,-1.0992,-1.1151,-1.2336,-1.2631,-1.222,0.0,0.0,-1.0524,0.0,0.0,-1.3466,-1.4076,-1.4813,0.0,0.0,0.0,0.0,0.0,0.0,0.0,0.0,-0.9241,-0.8502,-0.8502,-0.9031,0.0,-0.9951,0.0,0.0,0.0,0.0,0.0,0.0,0.0,0.0,0.0,0.0,0.0,0.0,0.0,0.0,0.0,0.0,0.0,0.0,0.0,0.0,0.0,0.0,0.0,0.0,0.0,0.0,0.0,0.0,0.0,-1.9101,-1.9101,-1.9101,-1.9101,-1.9101,-1.9101,-1.9101,-1.9101,-1.9101,-1.9101,-1.904,-1.9017,-1.8993,-1.886,-1.875,-1.8692,-1.8615,-1.8537,-1.8498,-1.8361,-1.8129,-1.7841,-1.7672,-1.7227,-1.6659,-1.6603,-1.6173,-1.5591,0.0,0.0,0.0,0.0,0.0,0.0,0.0,0.0,-0.7499,-0.7499,0.0,0.0,0.0,0.0,0.0,-0.7528,-0.7528,-0.7528,-0.7499,-0.7499,0.0,0.0,0.0,0.0,-0.7798,-0.7991,-0.8123,-0.8184,-0.813,-0.8765,-1.0059,-1.0141,-1.0706,-1.1621,-1.1321,-1.1476,-1.1972,0.0,-1.2256,-1.2184,0.0,-1.3445,-1.401,0.0,0.0,0.0,-1.716,-1.6224,0.0,-1.4316,0.0,0.0,0.0,-0.9756,-0.8534,-0.8502,-0.9031,0.0,0.0,0.0,0.0,0.0,0.0,0.0,0.0,0.0,0.0,0.0,0.0,0.0,0.0,0.0,0.0,0.0,0.0,0.0,0.0,0.0,0.0,0.0,0.0,0.0,0.0,0.0,0.0,0.0,0.0,-1.9101,-1.9101,-1.9101,-1.9101,-1.9101,-1.9101,-1.9101,-1.9101,-1.9101,-1.9101,-1.9101,-1.9101,-1.9059,-1.9012,-1.8993,-1.8898,-1.8692,-1.8692,-1.8615,-1.8498,-1.8498,-1.838,-1.8129,-1.7359,-1.7034,-1.6909,-1.6132,-1.5736,-1.5591,0.0,0.0,0.0,0.0,0.0,-0.7499,-0.7499,-0.7499,-0.7499,0.0,0.0,0.0,-0.7616,-0.7968,-0.8226,-0.8226,-0.8226,-0.8033,-0.7611,-0.7568,-0.7568,-0.7568,-0.7635,-0.7664,-0.7649,-0.7709,-0.7805,-0.7906,-0.7934,-0.8245,-0.8816,-0.9372,-0.9741,-1.0006,-1.0889,-1.1088,-1.0783,-1.0851,0.0,-1.2681,-1.2878,-1.4106,0.0,0.0,0.0,0.0,0.0,-1.8019,-1.718,0.0,-1.5665,-1.366,0.0,0.0,-0.9193,-0.8653,-0.9394,0.0,-0.8847,0.0,0.0,0.0,0.0,0.0,0.0,0.0,0.0,0.0,0.0,0.0,0.0,0.0,0.0,0.0,0.0,0.0,0.0,0.0,0.0,0.0,0.0,0.0,0.0,0.0,0.0,0.0,-1.9139,-1.9101,-1.9101,-1.9101,-1.9101,-1.9101,-1.9101,-1.9101,-1.9101,-1.9101,-1.9101,-1.9101,-1.9101,-1.9082,-1.9078,-1.9017,-1.8922,-1.8779,-1.8731,-1.8615,-1.8498,-1.8498,-1.8478,-1.84,-1.8155,-1.7646,-1.6993,-1.6909,-1.6247,-1.539,0.0,0.0,0.0,-0.7959,-0.8009,-0.8096,-0.8367,-0.8394,-0.8377,0.0,0.0,0.0,-0.8474,-0.8999,-0.9269,-0.9025,-0.8715,-0.8402,-0.8087,-0.7772,-0.7605,-0.7605,-0.7679,-0.7731,-0.7724,-0.7775,-0.7876,-0.8004,-0.7991,-0.8087,-0.8309,-0.8674,-0.8835,-0.8837,-0.9679,-0.9937,-0.9748,-0.9608,0.0,0.0,-1.3579,0.0,0.0,-1.7917,-1.8748,0.0,0.0,0.0,-1.8616,-1.902,-1.7501,0.0,0.0,0.0,0.0,0.0,-1.0444,0.0,0.0,0.0,0.0,0.0,0.0,0.0,0.0,0.0,0.0,0.0,0.0,0.0,0.0,0.0,0.0,0.0,0.0,0.0,0.0,0.0,0.0,0.0,0.0,0.0,0.0,0.0,0.0,-1.9195,-1.9139,-1.9101,-1.9101,-1.9101,-1.9101,-1.9101,-1.9101,-1.9101,-1.9101,-1.9101,-1.9101,-1.9101,-1.9101,-1.9101,-1.9101,-1.9059,-1.8984,-1.8889,-1.8793,-1.8678,-1.8576,-1.8517,-1.8498,-1.8478,-1.8274,-1.7922,-1.7441,-1.698,-1.645,-1.5944,0.0,0.0,-0.8002,-0.8599,-0.8758,-0.9037,-0.9708,-0.9701,-0.9664,0.0,-0.9825,-0.9902,-1.0063,-1.0465,-1.0505,-0.9969,-0.9207,-0.8735,-0.8726,-0.8053,-0.765,-0.765,-0.7805,-0.7906,-0.7921,-0.8026,-0.8142,-0.8273,-0.8155,-0.8169,-0.8293,-0.8182,-0.8128,-0.8142,-0.8269,-0.8552,-0.8934,-0.88,0.0,-1.2047,-1.442,-1.5715,0.0,0.0,-1.9866,0.0,-2.0916,-2.0543,-1.9552,-2.0324,-1.8772,0.0,0.0,0.0,0.0,0.0,-1.1886,0.0,-1.1294,-1.144,0.0,0.0,0.0,0.0,-1.3547,-1.2577,0.0,0.0,0.0,0.0,0.0,0.0,0.0,0.0,0.0,0.0,0.0,0.0,0.0,0.0,0.0,0.0,0.0,-1.9228,-1.912,-1.912,-1.9101,-1.9101,-1.9101,-1.9101,-1.9101,-1.9101,-1.9101,-1.9101,-1.9101,-1.9101,-1.9101,-1.9101,-1.9101,-1.9101,-1.9101,-1.9101,-1.9059,-1.8993,-1.8874,-1.8793,-1.8692,-1.8576,-1.8517,-1.8459,-1.8042,-1.7996,-1.7996,-1.6735,-1.6544,-1.674,0.0,-0.8165,-0.854,-0.868,-0.9145,-0.9738,-1.0402,-1.0042,-1.0068,-1.1154,-1.1287,-1.177,-1.3019,-1.2157,-1.1431,-1.1323,-1.0295,-0.9422,-0.8902,-0.8326,-0.7994,-0.8004,-0.7934,-0.7957,-0.8061,-0.7977,-0.8005,-0.8135,-0.8108,-0.8169,-0.8293,-0.8267,-0.8315,-0.8415,-0.8441,-0.8508,-0.8668,0.0,0.0,-1.2715,-1.318,0.0,-1.7811,-1.8975,-2.0028,-2.0936,-2.1212,-2.1131,-2.0855,0.0,-1.964,-1.8267,0.0,0.0,0.0,0.0,0.0,-1.3501,-1.2632,0.0,0.0,0.0,0.0,0.0,0.0,-1.1601,0.0,0.0,0.0,0.0,0.0,0.0,0.0,0.0,0.0,0.0,0.0,0.0,0.0,0.0,0.0,0.0,0.0,-1.9321,-1.9284,-1.9339,-1.9176,-1.9101,-1.9101,-1.9101,-1.9101,-1.9101,-1.9101,-1.9101,-1.9101,-1.9101,-1.9101,-1.9101,-1.9101,-1.9101,-1.9101,-1.9101,-1.9059,-1.8993,-1.896,-1.8846,-1.8692,-1.8673,-1.8595,-1.8498,-1.84,-1.8155,-1.7841,-1.7523,-1.6917,-1.6222,-0.8255,-0.8789,-0.936,-0.9691,-1.0002,-1.0555,-1.1587,-1.1432,-1.1681,-1.3028,-1.3595,-1.3986,-1.4221,-1.3451,-1.283,-1.2623,-1.1276,-1.0214,-0.9626,-0.9033,-0.8532,-0.8173,-0.8082,-0.8075,-0.815,-0.8082,-0.8125,-0.8254,-0.8155,-0.8167,-0.8293,-0.8293,-0.8727,-0.9474,-0.8828,-0.9146,-1.0142,0.0,-1.0986,-1.2459,-1.4273,0.0,-1.8822,-1.9951,-2.0799,-2.1371,-2.1464,-2.1495,-2.1397,-2.065,-1.9999,0.0,0.0,-1.6933,-1.6428,0.0,-1.4792,-1.5012,0.0,0.0,0.0,-1.3744,0.0,0.0,0.0,0.0,0.0,0.0,0.0,0.0,0.0,0.0,0.0,0.0,0.0,0.0,0.0,0.0,0.0,0.0,0.0,0.0,0.0,-1.8388,-1.8332,-1.835,-1.8285,-1.8396,-1.8681,-1.871,-1.8822,-1.9087,-1.9101,-1.9101,-1.9101,-1.9101,-1.9101,-1.9101,-1.9101,-1.9101,-1.9101,-1.9101,-1.9078,-1.9055,-1.8998,-1.8903,-1.8755,-1.8711,-1.8615,-1.8498,-1.8498,-1.8366,-1.8115,-1.7821,-1.7325,-1.6727,-0.8588,-0.9238,-0.9988,-1.0529,-1.0896,-1.1553,-1.2874,-1.3016,-1.3509,-1.4968,-1.5836,-1.6084,-1.5463,-1.5051,-1.4682,-1.4356,-1.2765,-1.1549,-1.1013,-1.0073,-0.929,-0.8724,-0.8345,-0.826,-0.849,-0.8276,-0.8254,-0.8441,-0.824,-0.8218,-0.8351,-0.8351,-0.9071,-1.0309,-0.9419,-1.0063,0.0,0.0,0.0,-1.3053,0.0,-1.7807,-1.8863,-2.0677,-2.1299,-2.1238,-2.1584,-2.1679,-2.1565,-2.0873,0.0,-1.992,-1.8871,-1.873,0.0,0.0,0.0,0.0,0.0,0.0,0.0,0.0,0.0,-1.379,0.0,0.0,0.0,-1.2531,0.0,0.0,0.0,0.0,0.0,0.0,0.0,0.0,0.0,0.0,0.0,0.0,0.0,0.0,0.0,-1.719,-1.7104,-1.7334,-1.7166,-1.7359,-1.808,-1.8224,-1.8477,-1.8912,-1.9043,-1.9101,-1.9101,-1.9101,-1.9101,-1.9101,-1.9101,-1.9101,-1.9101,-1.9101,-1.9101,-1.9101,-1.9055,-1.896,-1.8836,-1.8755,-1.8653,-1.8537,-1.8517,-1.8498,-1.8459,-1.8016,-1.7659,-1.7289,-0.8109,-0.9022,-0.992,-0.9994,-1.1416,-1.2901,-1.3893,-1.4036,-1.4697,-1.6579,-1.7027,-1.7556,-1.8561,-1.7898,-1.7364,-1.7324,0.0,0.0,-1.345,0.0,-1.0469,-1.0504,-0.8903,-0.8494,-0.9511,-0.8546,-0.8198,-0.8579,-0.8431,-0.8431,-0.8563,-0.8563,-0.901,-0.9824,-1.0329,0.0,0.0,0.0,-1.4219,0.0,-1.7209,-1.697,0.0,-1.9465,-2.0536,-2.0618,-2.136,-2.162,-2.1603,0.0,-2.135,-2.1095,0.0,-2.0124,-1.9953,0.0,0.0,0.0,0.0,0.0,0.0,0.0,-1.647,0.0,0.0,0.0,-1.2783,-1.1068,0.0,0.0,0.0,0.0,0.0,0.0,0.0,0.0,0.0,0.0,0.0,0.0,0.0,0.0,0.0,0.0,-1.6398,-1.7408,-1.6437,-1.6288,-1.7359,-1.7917,-1.823,-1.8303,-1.8825,-1.9101,-1.9101,-1.9101,-1.9101,-1.9101,-1.9101,-1.9101,-1.9101,-1.9101,-1.9101,-1.9101,-1.9082,-1.904,-1.8974,-1.8836,-1.8741,-1.8673,-1.8556,-1.8498,-1.8498,-1.8439,-1.7841,-1.7034,-0.8568,-0.9524,-1.0466,-1.0638,-1.1627,-1.2835,-1.4167,-1.5759,-1.7015,-1.7601,-1.8441,-1.901,0.0,0.0,0.0,0.0,0.0,-1.5772,0.0,0.0,-1.2971,-1.2174,-1.0978,-1.0337,-1.0409,-0.9503,-0.8915,-0.8652,-0.8598,-0.8585,-0.8594,-0.8594,-0.9442,-1.0973,-1.089,0.0,-1.4417,0.0,-1.4581,0.0,0.0,0.0,0.0,-1.9909,-2.1218,-2.1268,-2.1594,-2.1694,-2.1583,0.0,-2.106,0.0,0.0,0.0,0.0,0.0,0.0,0.0,0.0,0.0,0.0,0.0,0.0,0.0,0.0,0.0,-1.2557,0.0,0.0,0.0,0.0,0.0,0.0,0.0,0.0,0.0,0.0,0.0,0.0,0.0,0.0,0.0,0.0,0.0,0.0,0.0,0.0,-1.5088,-1.6135,-1.6819,-1.7483,-1.8187,-1.8448,-1.8753,-1.9101,-1.9101,-1.9101,-1.9101,-1.9101,-1.9101,-1.9101,-1.9101,-1.9101,-1.9101,-1.9101,-1.9059,-1.8993,-1.8941,-1.8851,-1.8755,-1.8653,-1.8576,-1.8498,-1.8498,-1.7915,-1.7089,-0.9389,-1.0259,-1.1065,-1.1247,-1.1956,-1.3087,-1.4806,-1.704,-1.8578,-1.8674,0.0,0.0,-2.0148,-1.9582,0.0,0.0,-1.8571,-1.7638,0.0,0.0,-1.5168,-1.4344,-1.2947,0.0,0.0,-1.0601,-0.9666,-0.9009,-0.8757,-0.8739,-0.892,-0.8716,-0.9698,-1.1621,-1.1538,-1.319,-1.5984,0.0,0.0,-1.6713,-1.7572,-1.7864,-1.8008,-2.053,-2.16,-2.1812,-2.1812,-2.1768,-2.164,-2.1083,-2.1009,0.0,-2.0876,0.0,0.0,0.0,0.0,0.0,-1.9617,0.0,0.0,0.0,0.0,0.0,0.0,0.0,0.0,0.0,0.0,0.0,0.0,0.0,0.0,0.0,0.0,0.0,0.0,0.0,0.0,0.0,0.0,0.0,0.0,0.0,0.0,0.0,0.0,0.0,-1.5081,-1.5815,-1.6752,-1.7896,-1.8171,-1.8549,-1.9087,-1.9101,-1.9101,-1.9101,-1.9101,-1.9101,-1.9101,-1.9101,-1.9101,-1.9101,-1.9101,-1.9078,-1.9031,-1.9012,-1.8908,-1.8784,-1.8731,-1.8615,-1.8498,-1.8498,-1.8016,-1.7352,-1.0511,-1.1098,0.0,-1.1493,-1.2623,-1.4231,-1.6228,-1.745,-1.8607,0.0,0.0,0.0,0.0,0.0,0.0,0.0,0.0,-2.0274,-1.9502,0.0,-1.6471,-1.7321,-1.4349,-1.3112,0.0,0.0,-1.0234,-0.9762,-0.8915,-0.8931,-0.9746,-0.9025,-0.9488,-1.0982,-1.2398,-1.389,-1.5425,-1.6807,-1.8597,-2.0456,-1.9796,-2.0376,-2.1549,0.0,-2.111,-2.1812,-2.1812,0.0,0.0,-2.1691,-2.1661,0.0,0.0,0.0,0.0,0.0,0.0,0.0,0.0,0.0,0.0,-1.7411,0.0,0.0,0.0,0.0,-1.3775,0.0,0.0,0.0,0.0,0.0,0.0,-1.1484,0.0,0.0,0.0,0.0,0.0,0.0,0.0,0.0,0.0,0.0,0.0,0.0,0.0,0.0,-1.4407,-1.5298,-1.6187,-1.72,-1.8118,-1.8753,-1.9101,-1.9101,-1.9101,-1.9101,-1.9101,-1.9101,-1.9101,-1.9101,-1.9101,-1.9101,-1.9101,-1.9101,-1.9082,-1.9031,-1.8908,-1.8784,-1.8731,-1.8615,-1.8498,-1.8498,-1.8195,-1.7767,0.0,0.0,0.0,0.0,0.0,-1.462,-1.6852,-1.8792,0.0,0.0,0.0,0.0,0.0,0.0,-2.3449,0.0,0.0,-2.2542,-2.1268,-2.0445,0.0,0.0,0.0,-1.6258,0.0,0.0,-1.2394,-1.1271,-1.0465,-1.0234,-1.0508,-0.9772,-1.022,-1.1677,0.0,-1.446,0.0,0.0,0.0,0.0,0.0,-2.0475,-2.1764,0.0,0.0,-2.1812,-2.1812,-2.1812,0.0,-2.1783,-2.1738,-2.1693,-2.1739,-2.1664,-2.162,-2.1649,-2.1526,0.0,0.0,0.0,-2.0885,-1.866,0.0,0.0,0.0,0.0,0.0,0.0,0.0,0.0,0.0,0.0,-1.289,-1.1918,-1.1727,0.0,0.0,0.0,0.0,0.0,0.0,0.0,0.0,0.0,0.0,0.0,0.0,0.0,0.0,-1.4409,-1.533,-1.6503,-1.7286,-1.7943,-1.8506,-1.8898,-1.9101,-1.9101,-1.9101,-1.9101,-1.9101,-1.9101,-1.9101,-1.9101,-1.9101,-1.9101,-1.9101,-1.9078,-1.9026,-1.8988,-1.8836,-1.8741,-1.8683,-1.8542,-1.8195,-1.776,-1.4443,0.0,0.0,0.0,0.0,0.0,0.0,0.0,0.0,0.0,-2.3011,0.0,-2.4249,0.0,-2.4294,0.0,-2.4312,-2.3739,-2.2445,-2.2408,0.0,-2.0467,-1.9761,0.0,0.0,-1.616,-1.4556,-1.2778,0.0,-1.1545,-1.1287,-1.0541,-1.084,-1.2042,0.0,-1.4841,-1.72,0.0,-1.9465,0.0,0.0,-2.0953,0.0,0.0,-2.1812,-2.1812,0.0,-2.1812,-2.1812,-2.1812,-2.1768,-2.1738,-2.1797,-2.1738,-2.1679,-2.1723,-2.1693,-2.1664,-2.1634,-2.1664,0.0,-1.9456,-1.8294,0.0,-1.5068,0.0,0.0,0.0,0.0,0.0,0.0,0.0,0.0,-1.3031,-1.2404,0.0,0.0,0.0,0.0,0.0,0.0,0.0,0.0,0.0,-1.1187,-1.1136,0.0,0.0,0.0,0.0,-1.4658,-1.585,-1.6712,-1.7491,-1.8201,-1.8673,-1.898,-1.9101,-1.9101,-1.9101,-1.9101,-1.9101,-1.9101,-1.9101,-1.9101,-1.9101,-1.9101,-1.9101,-1.9097,-1.9059,-1.8912,-1.8831,-1.8741,-1.8576,-1.8307,-1.7962,0.0,0.0,0.0,0.0,-1.5694,0.0,0.0,0.0,-2.2243,0.0,-2.3665,-2.4642,-2.538,-2.4843,-2.4692,-2.5397,-2.4826,0.0,-2.318,-2.324,0.0,0.0,-2.1429,-2.0709,-1.9834,-1.8393,0.0,0.0,0.0,0.0,-1.2091,-1.1313,-1.1346,-1.2124,-1.3556,0.0,-1.6591,-1.8704,-2.0442,-2.1812,-2.1812,-2.1812,-2.1812,-2.1812,-2.1812,-2.1812,-2.1812,-2.1812,-2.1812,-2.1812,-2.1812,-2.1812,-2.1812,-2.1812,-2.1812,-2.1812,-2.1812,-2.1797,-2.1708,-2.1693,-2.1348,-1.9867,0.0,0.0,0.0,0.0,-1.7196,0.0,0.0,0.0,0.0,0.0,0.0,-1.4655,-1.3384,-1.1812,0.0,0.0,0.0,0.0,0.0,0.0,0.0,0.0,-1.0263,-1.1691,-1.0707,0.0,0.0,0.0,-1.4201,-1.5226,-1.6443,-1.7405,-1.8143,-1.8443,-1.8768,-1.9101,-1.9101,-1.9101,-1.9101,-1.9101,-1.9101,-1.9101,-1.9101,-1.9101,-1.9101,-1.9101,-1.9059,-1.9012,-1.8993,-1.8879,-1.8673,-1.8556,-1.8498,-1.838,-1.6105,-1.6707,-1.7343,0.0,-1.7592,-1.8108,0.0,0.0,0.0,0.0,-2.4705,-2.556,-2.6286,-2.6202,-2.6168,-2.6354,-2.6185,0.0,0.0,0.0,0.0,-2.3722,-2.3001,-2.2264,-2.1513,-1.9482,0.0,-1.672,0.0,0.0,-1.3606,-1.2323,-1.2108,0.0,0.0,0.0,-1.7321,-1.8919,-2.0442,-2.1812,-2.1812,-2.1812,0.0,0.0,-2.1812,-2.1812,-2.1812,-2.1812,-2.1812,-2.1812,-2.1812,-2.1812,-2.1812,-2.1812,-2.1812,-2.1812,-2.1812,-2.1797,-2.1783,-2.1783,-2.1609,-2.0836,-1.9946,-1.9051,0.0,0.0,0.0,0.0,0.0,0.0,0.0,0.0,0.0,0.0,-1.2894,0.0,0.0,0.0,0.0,0.0,0.0,0.0,0.0,0.0,-1.0647,-1.0501,0.0,0.0,0.0,0.0,0.0,-1.4515,-1.6025,-1.7005,-1.7461,-1.8224,-1.8768,-1.9101,-1.9101,-1.9101,-1.9101,-1.9101,-1.9101,-1.9101,-1.9101,-1.9101,-1.9101,-1.9101,-1.9082,-1.9078,-1.9017,-1.8879,-1.8673,-1.8556,-1.8498,-1.8478,-1.7349,0.0,0.0,-1.9836,0.0,0.0,-2.143,0.0,0.0,-2.4294,-2.512,0.0,-2.6167,-2.6505,-2.6691,-2.6691,-2.6691,0.0,-2.5545,0.0,0.0,-2.4308,-2.4222,-2.3669,-2.2521,-2.1242,0.0,-1.7995,0.0,0.0,-1.4169,-1.301,-1.2695,0.0,0.0,-1.5729,0.0,-1.9694,-2.1036,-2.1812,-2.1812,0.0,0.0,-2.1812,-2.1812,-2.1812,-2.1812,-2.1812,-2.1812,-2.1812,-2.1812,-2.1812,-2.1812,-2.1812,-2.1812,-2.1812,-2.1812,-2.1812,-2.1812,-2.1812,-2.1706,-2.1276,-2.0646,-1.9923,-1.9168,-1.918,-1.9294,0.0,0.0,0.0,0.0,0.0,0.0,0.0,0.0,0.0,0.0,0.0,0.0,0.0,0.0,0.0,0.0,0.0,0.0,0.0,0.0,0.0,0.0,0.0,0.0,-1.3889,-1.5605,-1.6742,-1.72,-1.8007,-1.8646,-1.9101,-1.9101,-1.9101,-1.9101,-1.9101,-1.9101,-1.9101,-1.9101,-1.9101,-1.9101,-1.9101,-1.9101,-1.9082,-1.9031,-1.8936,-1.8822,-1.8653,-1.8556,-1.8478,0.0,0.0,0.0,0.0,0.0,0.0,0.0,-2.3359,0.0,-2.4846,0.0,-2.6048,-2.6048,-2.6623,-2.6996,-2.6996,0.0,-2.6539,-2.5848,-2.637,-2.605,-2.4593,-2.516,-2.4825,-2.3345,-2.3045,0.0,0.0,0.0,-1.6326,-1.4334,-1.349,0.0,0.0,0.0,0.0,0.0,-2.0553,-2.1713,0.0,-2.1812,-2.1812,-2.1812,-2.1812,-2.1812,-2.1812,-2.1812,-2.1812,-2.1812,-2.1812,-2.1812,-2.1812,-2.1812,-2.1812,-2.1812,-2.1812,-2.1812,-2.1812,-2.1812,-2.1812,-2.1738,-2.1433,-2.1372,-2.1021,-1.9684,-1.9671,-1.9893,-1.9846,-1.9525,-1.9698,0.0,0.0,0.0,0.0,0.0,0.0,0.0,0.0,0.0,0.0,0.0,0.0,0.0,0.0,0.0,0.0,0.0,0.0,0.0,0.0,0.0,-1.3445,-1.5219,0.0,-1.732,0.0,-1.8525,-1.9176,-1.912,-1.9101,-1.9101,-1.9101,-1.9101,-1.9101,-1.9101,-1.9101,-1.9101,-1.9101,-1.9101,-1.9082,-1.9031,-1.8993,-1.8955,-1.8769,-1.8615,-1.8439,0.0,0.0,0.0,0.0,0.0,-2.4474,-2.4949,-2.5642,-2.6387,-2.7131,-2.7909,-2.84,-2.84,-2.8519,-2.8604,-2.8604,-2.7994,0.0,0.0,0.0,0.0,-2.6269,-2.583,-2.5426,-2.5076,-2.3217,-2.1654,0.0,-1.7842,-1.6088,-1.5077,-1.3731,-1.3093,0.0,0.0,0.0,-1.9316,-2.0423,0.0,-2.1812,-2.1812,-2.1812,-2.1812,-2.1812,-2.1812,-2.1812,-2.1812,-2.1812,-2.1812,-2.1812,-2.1812,-2.1812,-2.1812,-2.1812,-2.1812,-2.1812,-2.1812,-2.1812,-2.1812,-2.1812,-2.1797,-2.1738,-2.1706,-2.1568,-2.1037,-2.0974,-2.0926,-2.0653,-2.0542,-2.04,-2.0114,0.0,0.0,0.0,0.0,0.0,0.0,0.0,0.0,0.0,0.0,0.0,0.0,0.0,0.0,0.0,0.0,0.0,0.0,0.0,0.0,0.0,0.0,0.0,0.0,0.0,-1.8623,-1.9599,-1.9269,-1.9101,-1.9101,-1.9101,-1.9101,-1.9101,-1.9101,-1.9101,-1.9101,-1.9101,-1.9101,-1.9082,-1.9031,-1.8927,-1.8817,-1.8731,-1.8615,-1.8498,0.0,0.0,0.0,0.0,0.0,0.0,0.0,-2.8298,0.0,-2.7908,-2.8128,-2.8383,-2.8383,-2.8738,-2.8993,-2.8993,-2.8654,-2.8416,-2.8416,-2.7706,-2.7266,-2.7214,-2.6506,0.0,-2.5363,-2.3924,-2.2575,-2.1311,-1.8813,-1.7002,-1.584,-1.436,-1.3672,-1.3771,0.0,-1.7942,0.0,0.0,0.0,-2.2343,-2.1947,-2.2029,-2.2327,-2.1961,-2.1812,-2.1812,-2.1812,-2.1812,-2.1812,-2.1812,-2.1812,-2.1812,-2.1812,-2.1812,-2.1812,-2.1812,-2.1812,-2.1812,-2.1812,-2.1812,-2.1768,-2.1587,-2.1541,-2.1449,-2.1119,-2.1039,-2.099,-2.0827,-2.0794,-2.0491,-1.951,-1.8625,0.0,0.0,0.0,0.0,0.0,0.0,0.0,0.0,0.0,0.0,0.0,0.0,0.0,0.0,0.0,0.0,0.0,0.0,0.0,0.0,0.0,0.0,0.0,0.0,0.0,-1.9398,-1.9195,-1.9101,-1.9101,-1.9101,-1.9101,-1.9101,-1.9101,-1.9101,-1.9101,-1.9101,-1.9101,-1.9101,-1.9059,-1.9021,-1.8936,-1.8798,-1.8716,-1.8625,0.0,-2.4064,0.0,0.0,-2.6857,0.0,-2.8855,-3.0262,-3.0565,-2.8753,-2.8517,-2.8517,-2.8517,-2.9093,-2.9467,-2.9467,-2.9331,-2.923,-2.923,-2.8501,-2.8026,-2.7971,-2.7246,-2.6504,-2.5748,-2.4912,-2.3677,0.0,-2.0117,-1.8302,-1.6603,-1.5271,0.0,0.0,0.0,0.0,0.0,0.0,-2.2326,-2.3073,-2.2493,-2.2609,-2.3073,-2.2477,-2.2261,-2.2261,-2.2261,-2.2261,-2.2243,-2.2094,-2.1928,-2.1812,-2.1812,-2.1812,-2.1812,-2.1812,-2.1812,-2.1812,-2.1812,-2.1753,-2.1663,-2.1449,-2.134,-2.1214,-2.0876,-2.0794,-2.0761,-2.0611,-2.0613,-2.031,-1.9163,-1.8981,0.0,0.0,0.0,0.0,0.0,0.0,0.0,0.0,0.0,0.0,0.0,0.0,0.0,0.0,0.0,0.0,-0.9812,-1.0959,0.0,0.0,0.0,-1.5804,-1.7573,0.0,-1.834,0.0,-1.9139,-1.9101,-1.9101,-1.9101,-1.9101,-1.9101,-1.9101,-1.9101,-1.9101,-1.9101,-1.9101,-1.9101,-1.9101,-1.9082,-1.9059,-1.8874,-1.8784,-1.876,0.0,0.0,0.0,0.0,0.0,0.0,0.0,-3.0262,-3.1123,-3.0903,-3.0869,-3.0869,-3.0869,-3.0954,-3.0987,-3.0987,-3.0378,-3.0006,-3.0006,-2.9296,-2.8891,-2.8873,-2.8111,-2.7619,-2.7464,-2.6084,-2.4558,0.0,0.0,-1.9551,-1.7382,-1.6558,0.0,0.0,0.0,0.0,0.0,-2.1776,-2.2609,-2.3884,-2.3818,-2.3835,-2.3884,-2.3818,-2.3785,-2.3785,-2.3785,-2.3785,-2.3686,-2.3023,-2.2344,-2.1812,-2.1812,-2.1812,-2.1812,-2.1812,-2.1812,-2.1812,-2.1812,-2.1587,-2.1418,-2.1693,-2.1526,-2.1214,-2.0876,-2.0794,-2.0596,-1.9942,-2.0032,-1.9941,-1.8914,-1.9639,-1.9906,0.0,0.0,0.0,0.0,0.0,0.0,0.0,0.0,0.0,0.0,0.0,0.0,0.0,0.0,0.0,0.0,-1.0167,-1.118,-1.3197,0.0,-1.5891,-1.7587,-1.8196,0.0,-1.9654,-1.9269,-1.9101,-1.9101,-1.9101,-1.9101,-1.9101,-1.9101,-1.9101,-1.9101,-1.9101,-1.9101,-1.9101,-1.9101,-1.9059,-1.8979,-1.8855,-1.876,-1.8692,0.0,0.0,0.0,0.0,0.0,0.0,0.0,-3.1481,-3.1701,-3.1258,-3.119,-3.119,-3.119,-3.119,-3.119,-3.119,-3.092,-3.0768,-3.0768,-3.0074,-2.9651,-2.9651,-2.8924,-2.8262,-2.7718,-2.6742,-2.5646,0.0,0.0,0.0,0.0,0.0,0.0,0.0,0.0,-2.1216,-2.2522,-2.2939,-2.3719,-2.463,-2.4183,-2.4265,-2.4613,-2.4166,-2.4,-2.4,-2.4,-2.4,-2.3951,-2.3653,-2.3073,-2.2377,-2.1945,-2.1812,-2.1812,-2.1812,-2.1812,-2.1812,-2.1812,-2.1708,-2.1587,-2.1526,-2.1402,-2.1214,-2.0876,-2.0613,-2.0361,-2.0067,-2.0067,-1.9939,-1.9242,-1.9343,-1.9394,0.0,0.0,0.0,0.0,0.0,0.0,0.0,0.0,0.0,0.0,0.0,0.0,0.0,0.0,0.0,0.0,-0.9813,0.0,-1.2723,0.0,-1.5449,-1.7218,-1.7978,-1.869,-1.9343,-1.9176,-1.9101,-1.9101,-1.9101,-1.9101,-1.9101,-1.9101,-1.9101,-1.9101,-1.9101,-1.9101,-1.9101,-1.9101,-1.9082,-1.904,-1.8946,-1.8851,-1.8755,-3.0266,0.0,-2.9924,0.0,-3.1518,-3.1267,-3.2033,-3.2143,-3.1976,-3.1437,-3.1387,-3.1323,-3.1221,-3.119,-3.119,-3.119,-3.119,-3.119,-3.119,-3.0717,-3.0429,-3.0429,-2.9572,0.0,-2.8211,-2.7528,-2.6636,-2.5546,-2.3834,0.0,0.0,0.0,0.0,0.0,-2.1653,-2.2794,-2.3634,-2.4116,-2.4762,-2.5374,-2.4862,-2.4961,-2.5375,-2.4862,-2.4646,-2.4646,-2.4646,-2.4646,-2.4613,-2.4398,-2.3984,-2.3421,-2.2675,-2.2294,-2.2112,-2.2112,-2.1978,-2.1812,-2.1812,-2.1738,-2.1602,-2.1356,-2.123,-2.1055,-2.0696,-2.0412,-2.0156,-2.005,-1.9995,-1.9854,-1.9468,-1.9283,-1.9148,-1.902,0.0,0.0,0.0,0.0,0.0,0.0,0.0,-1.3067,0.0,0.0,0.0,0.0,0.0,0.0,0.0,0.0,0.0,0.0,0.0,0.0,0.0,-1.802,-1.868,-1.9101,-1.9101,-1.9101,-1.9101,-1.9101,-1.9101,-1.9101,-1.9101,-1.9101,-1.9101,-1.9101,-1.9101,-1.9101,-1.9101,-1.9101,-1.9082,-1.8984,-1.8889,-1.8784,-2.9879,-3.0101,-3.045,-3.1604,-3.1804,-3.1804,-3.1804,-3.1804,-3.1804,-3.1804,-3.1804,-3.1622,-3.1243,-3.119,-3.119,-3.119,-3.119,-3.119,-3.119,-3.119,-3.119,0.0,0.0,-2.94,-2.9383,-2.8649,-2.75,-2.5886,0.0,0.0,-2.2572,0.0,-2.2197,-2.2669,-2.3242,-2.4147,-2.5247,-2.5128,-2.5507,-2.6185,-2.6169,-2.6169,-2.6185,-2.6169,-2.6169,-2.6169,-2.6169,-2.6169,-2.6053,-2.5325,-2.5094,-2.4944,-2.4216,-2.347,-2.2891,-2.2891,-2.2376,-2.1812,-2.1812,-2.1556,-2.1325,-2.1293,-2.1055,-2.0696,-2.0294,-2.0191,-2.0085,-1.9702,-1.965,-1.9636,-1.9431,-1.9764,-1.9712,-1.8505,0.0,0.0,0.0,0.0,0.0,0.0,-1.2937,-1.2326,-1.1584,0.0,0.0,0.0,0.0,0.0,0.0,0.0,0.0,-1.3623,-1.5564,0.0,-1.7489,-1.8542,-1.9087,-1.9101,-1.9101,-1.9101,-1.9101,-1.9101,-1.9101,-1.9101,-1.9101,-1.9101,-1.9101,-1.9101,-1.9101,-1.9101,-1.9101,-1.9101,-1.9082,-1.8879,-1.8803,-1.8765,-3.264,-3.2746,-3.2876,-3.325,-3.3307,-3.312,-3.2636,-3.2555,-3.2377,-3.1861,-3.1797,-3.1737,-3.1602,-3.1614,-3.1423,0.0,-3.092,-3.0729,0.0,-3.0262,-3.0389,-3.072,-3.0344,-2.9877,-2.9283,-2.9108,-2.8352,-2.6916,0.0,0.0,0.0,-2.3708,-2.3901,-2.4479,-2.459,-2.4871,-2.5315,-2.655,-2.6904,-2.6686,-2.746,-2.7435,-2.695,-2.695,-2.6634,-2.6202,-2.6202,-2.6202,-2.6152,-2.5921,-2.5838,-2.5805,-2.5556,-2.4646,-2.3653,-2.3653,-2.3123,-2.2543,-2.2543,-2.2102,-2.1525,-2.1071,-2.0876,-2.0629,-2.0013,-1.9871,-1.98,-1.9647,-1.9611,-1.9578,-1.9431,-1.9472,-1.9434,-1.9097,-1.8891,0.0,0.0,0.0,0.0,0.0,0.0,-1.3748,0.0,-1.2734,0.0,0.0,0.0,0.0,0.0,0.0,0.0,0.0,-1.5241,0.0,-1.7487,-1.8556,-1.9101,-1.9101,-1.9101,-1.9101,-1.9101,-1.9101,-1.9101,-1.9101,-1.9101,-1.9101,-1.9101,-1.9101,-1.9101,-1.9101,-1.9101,-1.9101,-1.9082,-1.9026,-1.8917,-1.8784,-3.3329,-3.3397,-3.3397,-3.3397,-3.3397,-3.3238,-3.2768,-3.2704,-3.2561,-3.2082,-3.2019,-3.2019,-3.2019,-3.2019,0.0,-3.1232,-3.1182,-3.1004,-3.0574,-3.0322,-3.0309,-3.0598,-3.0206,-2.9718,-2.9178,0.0,0.0,-2.762,-2.6646,-2.5911,-2.5394,-2.5084,-2.5338,-2.6038,-2.5769,-2.585,-2.6256,-2.7364,-2.7554,-2.7179,-2.8119,-2.8187,-2.7713,-2.7734,-2.745,-2.6998,-2.6717,-2.6617,-2.655,-2.6091,-2.5954,-2.5901,-2.5754,-2.5188,-2.4542,-2.4431,-2.3884,-2.3305,-2.3305,-2.2758,-2.2073,-2.1536,-2.11,-2.0611,-1.9869,-1.9708,-1.969,-1.965,-1.9632,-1.9614,-1.9541,-1.945,-1.9431,-1.9483,-1.8775,-1.8042,-1.7485,0.0,0.0,0.0,0.0,0.0,0.0,-1.4092,0.0,0.0,0.0,0.0,0.0,0.0,0.0,-1.4178,-1.5988,0.0,-1.8091,-1.8768,-1.9101,-1.9101,-1.9101,-1.9101,-1.9101,-1.9101,-1.9101,-1.9101,-1.9101,-1.9101,-1.9101,-1.9101,-1.9101,-1.9101,-1.9101,-1.9101,-1.9101,-1.9078,-1.8984,-1.8855,-3.2398,-3.2398,0.0,0.0,-3.2398,0.0,-3.2398,-3.2398,-3.2398,-3.2398,-3.2398,-3.2398,-3.2398,-3.2398,-3.2251,-3.1863,0.0,0.0,0.0,-3.1114,-3.0806,-3.0813,-2.9796,-2.92,-2.9153,-2.9608,-2.9227,-2.8046,-2.7303,-2.6901,-2.6747,-2.6344,-2.6567,-2.7301,-2.672,-2.6907,-2.7688,-2.7712,-2.7692,-2.77,-2.8339,-2.8528,-2.842,-2.8442,-2.8426,-2.8254,-2.7576,-2.7346,-2.7193,-2.608,-2.5672,-2.5565,-2.5158,-2.5246,-2.5464,-2.5202,-2.4629,-2.4067,-2.4034,-2.3504,-2.2847,-2.2427,-2.1501,-2.0529,-1.9854,-1.9708,-1.9708,-1.9708,-1.9708,-1.9708,-1.969,-1.9632,-1.9593,-1.9593,-1.882,-1.8054,-1.7487,0.0,0.0,0.0,0.0,0.0,0.0,-1.524,-1.5777,0.0,0.0,0.0,0.0,0.0,-1.4568,-1.6155,-1.7505,-1.8491,-1.9087,-1.9101,-1.9101,-1.9101,-1.9101,-1.9101,-1.9101,-1.9101,-1.9101,-1.9101,-1.9101,-1.9101,-1.9101,-1.9101,-1.9101,-1.9101,-1.9101,-1.9101,-1.9097,-1.9036,-1.9012,-1.8974,0.0,0.0,-3.2398,-3.2398,-3.2398,-3.2398,-3.2398,-3.2398,-3.2398,-3.2398,-3.2398,-3.2398,-3.2398,-3.2398,-3.2369,-3.2271,-3.1799,-3.1285,-3.0762,-3.0575,-3.0667,-3.1005,-3.0773,-3.0345,-2.9729,-2.9911,-2.9454,-2.8293,-2.8466,-2.8486,-2.8333,-2.7725,-2.7521,-2.7579,-2.708,-2.6704,-2.6545,-2.8259,-2.8628,-2.8137,-2.9214,-2.9237,-2.8586,-2.8233,-2.798,-2.7761,-2.7582,-2.7787,-2.8092,-2.7797,-2.7349,-2.6796,-2.6345,-2.5882,-2.5489,-2.5419,-2.5148,-2.4761,-2.4468,-2.3826,-2.299,-2.1794,-2.0716,-1.9907,-1.9744,-1.9708,-1.9708,-1.9708,-1.9708,-1.969,-1.9632,-1.9611,-1.9574,-1.9465,-1.8435,-1.7575,-1.7495,-1.6731,0.0,0.0,-1.6404,-1.6634,-1.6329,-1.6706,-1.6699,0.0,0.0,0.0,0.0,-1.6237,-1.6303,-1.6213,-1.7505,-1.8491,-1.9087,-1.9101,-1.9101,-1.9101,-1.9101,-1.9101,-1.9101,-1.9101,-1.9101,-1.9101,-1.9101,-1.9101,-1.9101,-1.9101,-1.9101,-1.9101,-1.9101,-1.9078,-1.9036,-1.9059,-1.8969,-1.8836,-3.2859,-3.2613,-3.2398,-3.2398,-3.2398,-3.2398,-3.2398,-3.2398,-3.2398,-3.2398,-3.2398,-3.2398,-3.2398,-3.2398,-3.2398,-3.2398,-3.2059,-3.169,-3.1351,-3.1043,-3.0974,-3.1228,-3.0947,-3.0594,-3.0145,-3.0411,-3.0066,-2.9086,-2.8745,-2.8566,-2.847,-2.8115,-2.7984,-2.8047,-2.7588,-2.7246,-2.714,-2.8358,-2.8791,-2.8694,-2.9632,-2.9804,-2.9482,-2.9059,-2.8796,-2.8537,-2.7966,-2.7975,-2.813,-2.7584,-2.7132,-2.6755,-2.6565,-2.6007,-2.5457,-2.5675,-2.5387,-2.495,-2.473,-2.4143,-2.3276,-2.1982,-2.1011,-2.0343,-2.019,-1.9914,-1.9708,-1.9708,-1.9708,-1.969,-1.965,-1.9629,-1.9489,-1.9141,-1.8364,-1.7736,-1.7541,-1.7074,0.0,-1.6757,-1.7325,-1.7568,-1.7229,-1.7737,-1.7731,-1.693,0.0,0.0,-1.6902,-1.7631,-1.778,-1.7142,-1.81,-1.8782,-1.9101,-1.9101,-1.9101,-1.9101,-1.9101,-1.9101,-1.9101,-1.9101,-1.9101,-1.9101,-1.9101,-1.9101,-1.9101,-1.9101,-1.9101,-1.9101,-1.9101,-1.9059,-1.9012,-1.9036,-1.8984,-1.8889,-3.3567,-3.3106,-3.2705,-3.2705,-3.2705,-3.2705,-3.2705,-3.2705,-3.2705,-3.2705,-3.2705,-3.2705,-3.2705,-3.2613,-3.2552,-3.2552,-3.2459,-3.2398,-3.2398,-3.1886,-3.1563,-3.1563,-3.1012,-3.0648,-3.054,-3.0838,-3.0654,-2.9976,-2.8866,-2.8308,-2.8308,-2.8192,-2.825,-2.8488,-2.7995,-2.7934,-2.8207,-2.8264,-2.8567,-2.9028,-2.955,-2.9924,-3.0135,-2.9755,-2.9601,-2.9432,-2.8417,-2.8099,-2.8005,-2.6969,-2.6571,-2.6471,-2.6517,-2.6033,-2.5469,-2.5722,-2.5351,-2.4865,-2.4815,-2.4241,-2.3429,-2.2505,-2.1693,-2.1039,-2.0764,-2.0183,-1.9708,-1.9708,-1.9708,-1.9708,-1.9708,-1.965,-1.9406,-1.8787,-1.8493,-1.815,-1.7585,0.0,-1.7495,-1.7379,-1.7981,-1.8174,-1.7548,-1.8477,-1.8651,-1.7577,-1.8491,-1.8637,0.0,-1.8506,-1.8869,-1.8361,-1.884,-1.9101,-1.9101,-1.9101,-1.9101,-1.9101,-1.9101,-1.9101,-1.9101,-1.9101,-1.9101,-1.9101,-1.9101,-1.9101,-1.9101,-1.9101,-1.9101,-1.9101,-1.9101,-1.904,-1.896,-1.8993,-1.8993,-1.896,-3.4335,-3.4258,-3.4181,-3.4181,-3.4181,-3.4181,-3.4181,-3.4181,-3.4181,-3.4181,-3.4181,-3.4181,-3.4181,-3.3614,-3.3244,-3.3244,-3.2721,-3.2398,-3.2398,-3.229,-3.2228,-3.2228,-3.2151,-3.1813,-3.1243,-3.0768,-3.0454,-3.0336,-3.0022,-2.982,-2.9674,-2.8994,-2.8634,-2.8568,-2.7905,-2.766,-2.7735,-2.8134,-2.8352,-2.8432,-2.8528,-2.8599,-2.8599,-2.8149,-2.8222,-2.8512,-2.8309,-2.8553,-2.89,-2.8721,-2.825,-2.7657,-2.7272,-2.6634,-2.5899,-2.5054,-2.4738,-2.4608,-2.4435,-2.3646,-2.2843,-2.2656,-2.1684,-2.0764,-2.0707,-2.0183,-1.9708,-1.9708,-1.9708,-1.9708,-1.9708,-1.969,-1.9445,-1.8733,-1.8579,-1.8276,-1.7524,0.0,-1.8153,-1.8136,-1.8633,-1.8931,-1.8811,-1.8985,-1.9029,-1.8825,-1.8985,-1.9014,-1.8825,-1.8985,-1.9058,-1.897,-1.9058,-1.9101,-1.9101,-1.9101,-1.9101,-1.9101,-1.9101,-1.9101,-1.9101,-1.9101,-1.9101,-1.9101,-1.9101,-1.9101,-1.9101,-1.9101,-1.9101,-1.9101,-1.9101,-1.8988,-1.8836,-1.896,-1.8941,-1.8836,-3.5044,-3.4551,-3.4183,-3.4459,-3.469,-3.4767,-3.4536,-3.4505,-3.4505,-3.4505,-3.4505,-3.4505,-3.4505,-3.4212,-3.3983,-3.3983,-3.3336,-3.2936,-3.2936,-3.2598,-3.2398,-3.2398,-3.2398,-3.2244,-3.1936,-3.1209,-3.0872,-3.0951,-3.0451,-3.0204,-3.0204,-2.9779,-2.947,-2.9354,-2.8959,-2.873,-2.8678,-2.8923,-2.9149,-2.9387,-2.9387,-2.9314,-2.9152,-2.87,-2.8421,-2.828,-2.8002,-2.8076,-2.8286,-2.8286,-2.8071,-2.7786,-2.7842,-2.7177,-2.6364,-2.613,-2.51,-2.4043,-2.3958,-2.3571,-2.3176,-2.3176,-2.2493,-2.168,-2.1321,-2.0722,-2.0139,-1.9783,-1.9708,-1.9708,-1.9708,-1.9708,-1.9465,-1.877,-1.8929,0.0,0.0,-1.8541,-1.8881,-1.8844,-1.9057,-1.9176,-1.9101,-1.9101,-1.9101,-1.9101,-1.9101,-1.9101,-1.9101,-1.9101,-1.9101,-1.9101,-1.9101,-1.9101,-1.9101,-1.9101,-1.9101,-1.9101,-1.9101,-1.9101,-1.9101,-1.9101,-1.9101,-1.9101,-1.9101,-1.9101,-1.9101,-1.9101,-1.9078,-1.9055,-1.9097,-1.8988,-1.8822,-1.896,-1.8908,-1.8803,-3.5722,-3.5014,-3.4537,-3.4905,-3.5229,-3.5306,-3.5013,-3.4967,-3.4967,-3.4967,-3.4967,-3.4967,-3.4967,-3.4828,-3.4736,-3.4736,-3.406,-3.366,-3.366,-3.3167,-3.2736,-3.2398,-3.2398,-3.2398,-3.2398,-3.1781,-3.152,-3.1613,-3.0987,-3.0715,-3.081,-3.0536,-3.0327,-3.0236,-2.9924,-2.9741,-2.9645,-2.9606,-2.9807,-3.0147,-3.0147,-3.0027,-2.9859,-2.9505,-2.8966,-2.8305,-2.7976,-2.7735,-2.76,-2.76,-2.76,-2.766,-2.8027,-2.7546,-2.6879,-2.7067,-2.5682,-2.3999,-2.3684,-2.3595,-2.3595,-2.3595,-2.3152,-2.2568,-2.2059,-2.1291,-2.0539,-2.0034,-1.9813,-1.9708,-1.9708,-1.9708,-1.9483,-1.8807,0.0,0.0,0.0,-1.9087,-1.9413,-1.9339,-1.9321,-1.9265,-1.9157,-1.912,-1.9101,-1.9101,-1.9101,-1.9101,-1.9101,-1.9101,-1.9101,-1.9101,-1.9101,-1.9101,-1.9101,-1.9101,-1.9101,-1.9101,-1.9101,-1.9101,-1.9101,-1.9101,-1.9101,-1.9101,-1.9101,-1.9101,-1.9101,-1.9101,-1.9078,-1.9031,-1.9059,-1.8969,-1.8855,-1.8941,-1.8889,-1.8803,-3.6415,-3.6353,-3.6307,-3.6338,-3.6368,-3.6384,-3.6353,-3.6338,-3.6338,-3.6338,-3.6338,-3.6338,-3.6338,-3.5784,-3.5444,-3.5444,-3.4813,-3.4428,-3.4428,-3.4366,-3.3765,-3.2444,-3.2398,-3.2398,-3.2398,-3.2351,-3.2321,-3.2321,-3.2136,-3.2053,-3.2066,-3.129,-3.0934,-3.0904,-3.0132,-2.9791,-2.9765,-2.9645,-2.9633,-2.966,-2.966,-2.9642,-2.9624,-2.9585,-2.9165,-2.8569,-2.8558,-2.8139,-2.76,-2.76,-2.76,-2.7625,-2.7635,-2.758,-2.7405,-2.6816,-2.6072,-2.5181,-2.3939,-2.3595,-2.3595,-2.3595,-2.3152,-2.2688,-2.2643,-2.162,-2.0688,-2.0628,-2.0124,-1.9708,-1.9708,-1.9708,-1.9483,-1.8807,0.0,0.0,-1.8698,-1.9173,-1.9538,-1.9413,-1.9339,-1.9302,-1.9302,-1.9157,-1.9101,-1.9101,-1.9101,-1.9101,-1.9101,-1.9101,-1.9101,-1.9101,-1.9101,-1.9101,-1.9101,-1.9101,-1.9101,-1.9101,-1.9101,-1.9101,-1.9101,-1.9101,-1.9101,-1.9101,-1.9101,-1.9101,-1.9101,-1.9101,-1.9101,-1.9097,-1.9036,-1.9012,-1.896,-1.8855,-1.8803,-1.8803,-3.6492,-3.6492,-3.6492,-3.6492,-3.6492,-3.6492,-3.6492,-3.6492,-3.6492,-3.6492,-3.6492,-3.6492,-3.6492,-3.6261,-3.6107,-3.6107,-3.5521,-3.5136,-3.5136,-3.4736,-3.4073,-3.3059,-3.2613,-3.2398,-3.2398,-3.2398,-3.2398,-3.2398,-3.2342,-3.2315,-3.2315,-3.1931,-3.1685,-3.1602,-3.122,-3.096,-3.0833,-3.0791,-3.0791,-3.0791,-3.0791,-3.0537,-3.0163,-3.0163,-2.9759,-2.9205,-2.9205,-2.8786,-2.8203,-2.8203,-2.7944,-2.76,-2.76,-2.76,-2.7465,-2.6806,-2.6422,-2.5929,-2.4575,-2.4216,-2.4111,-2.3699,-2.343,-2.3167,-2.2793,-2.2313,-2.1814,-2.141,-2.0797,-2.0318,-2.0318,-1.9974,-1.9618,-1.9346,0.0,-1.96,-1.9325,-1.9465,-1.9574,-1.9538,-1.9431,-1.9358,-1.9302,-1.9246,-1.9176,-1.9101,-1.9101,-1.9101,-1.9101,-1.9101,-1.9101,-1.9101,-1.9101,-1.9101,-1.9101,-1.9101,-1.9101,-1.9101,-1.9101,-1.9101,-1.9101,-1.9101,-1.9101,-1.9101,-1.9101,-1.9101,-1.9101,-1.9101,-1.9078,-1.9036,-1.9012,-1.8941,-1.8889,-1.8908,-1.8865,-1.8736,-3.6492,-3.6492,-3.6492,-3.6492,-3.6492,-3.6492,-3.6492,-3.6492,-3.6492,-3.6492,-3.6492,-3.6492,-3.6492,-3.6492,-3.6492,-3.6492,-3.6061,-3.5799,-3.5799,-3.5198,-3.4505,-3.3767,-3.329,-3.2936,-3.2721,-3.2705,-3.2613,-3.2398,-3.237,-3.2342,-3.2342,-3.2191,-3.2094,-3.1996,-3.187,-3.1727,-3.1597,-3.1539,-3.1511,-3.1511,-3.1511,-3.1212,-3.0821,-3.0821,-3.0432,-2.9864,-2.9864,-2.946,-2.8906,-2.8906,-2.8483,-2.7914,-2.7914,-2.7764,-2.751,-2.7061,-2.6926,-2.6686,-2.5555,-2.5217,-2.4963,-2.3864,-2.3595,-2.349,-2.3092,-2.2838,-2.2568,-2.2119,-2.1485,-2.0942,-2.0733,-2.0318,-1.9962,-1.9738,-1.9708,-1.9708,-1.9708,-1.9669,-1.9629,-1.9629,-1.9538,-1.9446,-1.9395,-1.9358,-1.9284,-1.9157,-1.9157,-1.9139,-1.9101,-1.9101,-1.9101,-1.9101,-1.9101,-1.9101,-1.9101,-1.9101,-1.9101,-1.9101,-1.9101,-1.9101,-1.9101,-1.9101,-1.9101,-1.9101,-1.9101,-1.9101,-1.9101,-1.9101,-1.9078,-1.9036,-1.9012,-1.8941,-1.887,-1.8908,-1.8865,-1.8736,-3.6492,-3.6492,-3.6492,-3.6492,-3.6492,-3.6492,-3.6492,-3.6492,-3.6492,-3.6492,-3.6492,-3.6492,-3.6492,-3.6492,-3.6492,-3.6492,-3.6492,-3.6492,-3.6492,-3.5891,-3.5213,-3.4551,-3.4505,-3.4166,-3.3429,-3.3413,-3.3075,-3.2413,-3.229,-3.2206,-3.2206,-3.2081,-3.1996,-3.1996,-3.187,-3.1799,-3.1784,-3.1568,-3.1511,-3.1511,-3.1511,-3.1511,-3.1511,-3.1511,-3.1077,-3.0507,-3.0507,-3.0118,-2.9621,-2.9621,-2.9146,-2.8607,-2.8607,-2.8128,-2.76,-2.76,-2.76,-2.745,-2.6767,-2.6587,-2.6108,-2.4103,-2.361,-2.361,-2.3595,-2.3152,-2.2703,-2.2703,-2.2179,-2.15,-2.0838,-2.0703,-2.0483,-1.9828,-1.9708,-1.9708,-1.9708,-1.9708,-1.9708,-1.9708,-1.9632,-1.9593,-1.9593,-1.9483,-1.9376,-1.9321,-1.9302,-1.9246,-1.9101,-1.9101,-1.9101,-1.9101,-1.9101,-1.9101,-1.9101,-1.9101,-1.9101,-1.9101,-1.9101,-1.9101,-1.9101,-1.9101,-1.9101,-1.9101,-1.9101,-1.9101,-1.9101,-1.9101,-1.9101,-1.9082,-1.9031,-1.8993,-1.8993,-1.8855,-1.8803,-1.8784,-3.6492,-3.6492,-3.6492,-3.6492,-3.6492,-3.6492,-3.6492,-3.6492,-3.6492,-3.6492,-3.6492,-3.6492,-3.6492,-3.6492,-3.6492,-3.6492,-3.6492,-3.6492,-3.6492,-3.6183,-3.5891,-3.5692,-3.4938,-3.4412,-3.4181,-3.4181,-3.4073,-3.3873,-3.3323,-3.2992,-3.2879,-3.2392,-3.2038,-3.187,-3.1813,-3.1727,-3.1597,-3.1539,-3.1511,-3.1511,-3.1511,-3.1511,-3.1511,-3.1511,-3.1376,-3.1197,-3.1197,-3.0763,-3.0223,-3.0223,-2.9804,-2.9205,-2.8742,-2.8128,-2.76,-2.76,-2.76,-2.745,-2.6767,-2.6587,-2.6228,-2.4702,-2.4291,-2.4171,-2.3714,-2.346,-2.3325,-2.3325,-2.2838,-2.2343,-2.2149,-2.1335,-2.0628,-2.0438,-2.0004,-1.9708,-1.9708,-1.9708,-1.9708,-1.9708,-1.9632,-1.9556,-1.9483,-1.9413,-1.9376,-1.9321,-1.9302,-1.9284,-1.9246,-1.9139,-1.9101,-1.9101,-1.9101,-1.9101,-1.9101,-1.9101,-1.9101,-1.9101,-1.9101,-1.9101,-1.9101,-1.9101,-1.9101,-1.9101,-1.9101,-1.9101,-1.9101,-1.9101,-1.9101,-1.9082,-1.9031,-1.8941,-1.8855,-1.8803,-1.8702,-1.86,-3.6492,-3.6492,-3.6492,-3.6492,-3.6492,-3.6492,-3.6492,-3.6492,-3.6492,-3.6492,-3.6492,-3.6492,-3.6492,-3.6492,-3.6492,-3.6492,-3.6492,-3.6492,-3.6492,-3.6383,-3.6274,-3.6196,-3.5523,-3.5047,-3.4771,-3.4771,-3.4633,-3.4372,-3.3884,-3.3597,-3.3509,-3.3055,-3.2757,-3.2597,-3.2597,-3.233,-3.1899,-3.1899,-3.1735,-3.1511,-3.1511,-3.1511,-3.1511,-3.1511,-3.1511,-3.1511,-3.1511,-3.1241,-3.0883,-3.0883,-3.0477,-2.9834,-2.919,-2.8558,-2.8004,-2.8004,-2.7809,-2.751,-2.7106,-2.7001,-2.6746,-2.5674,-2.4993,-2.4485,-2.4081,-2.3789,-2.3595,-2.3595,-2.3295,-2.2987,-2.2748,-2.2044,-2.1395,-2.1141,-2.0528,-2.0094,-2.0094,-1.9872,-1.9708,-1.9708,-1.9654,-1.9614,-1.9541,-1.9487,-1.9431,-1.9321,-1.9246,-1.9213,-1.9213,-1.9139,-1.9101,-1.9101,-1.9101,-1.9101,-1.9101,-1.9101,-1.9101,-1.9101,-1.9101,-1.9101,-1.9101,-1.9101,-1.9101,-1.9101,-1.9101,-1.9101,-1.9101,-1.9101,-1.9101,-1.9101,-1.9074,-1.8965,-1.8874,-1.8822,-1.8721,-1.862,-3.6492,-3.6492,-3.6492,-3.6492,-3.6492,-3.6492,-3.6492,-3.6492,-3.6492,-3.6492,-3.6492,-3.6492,-3.6492,-3.6492,-3.6492,-3.6492,-3.6492,-3.6492,-3.6492,-3.6492,-3.6383,-3.6211,-3.6164,-3.5889,-3.5278,-3.5263,-3.4958,-3.4347,-3.4181,-3.4076,-3.4076,-3.388,-3.3789,-3.3774,-3.3774,-3.3337,-3.2602,-3.2602,-3.2228,-3.1675,-3.1615,-3.1585,-3.1585,-3.1525,-3.1511,-3.1511,-3.1511,-3.1511,-3.1511,-3.1511,-3.1047,-3.0402,-2.9849,-2.9205,-2.8682,-2.8622,-2.8184,-2.7675,-2.7615,-2.76,-2.745,-2.6851,-2.5734,-2.4754,-2.4634,-2.4126,-2.367,-2.361,-2.3595,-2.343,-2.2882,-2.2733,-2.2508,-2.1874,-2.1231,-2.0763,-2.0703,-2.0168,-1.9768,-1.9708,-1.969,-1.969,-1.969,-1.9614,-1.952,-1.9339,-1.9195,-1.912,-1.912,-1.9101,-1.9101,-1.9101,-1.9101,-1.9101,-1.9101,-1.9101,-1.9101,-1.9101,-1.9101,-1.9101,-1.9101,-1.9101,-1.9101,-1.9101,-1.9101,-1.9101,-1.9101,-1.9101,-1.9101,-1.9101,-1.9101,-1.9059,-1.8993,-1.8855,-1.8803,-1.8779,-3.6492,-3.6492,-3.6492,-3.6492,-3.6492,-3.6492,-3.6492,-3.6492,-3.6492,-3.6492,-3.6492,-3.6492,-3.6492,-3.6492,-3.6492,-3.6492,-3.6492,-3.6492,-3.6492,-3.6352,-3.6242,-3.6196,-3.5943,-3.5819,-3.5824,-3.5824,-3.5748,-3.5596,-3.5048,-3.4697,-3.4544,-3.3969,-3.3668,-3.3561,-3.3561,-3.3455,-3.3275,-3.3275,-3.32,-3.3021,-3.2482,-3.2273,-3.2213,-3.1705,-3.1511,-3.1511,-3.1511,-3.1511,-3.1511,-3.1511,-3.1047,-3.0477,-3.0342,-2.9879,-2.9292,-2.8742,-2.8502,-2.8263,-2.775,-2.76,-2.757,-2.742,-2.6752,-2.5899,-2.4844,-2.4485,-2.4231,-2.3714,-2.3595,-2.355,-2.343,-2.3017,-2.2643,-2.2508,-2.1919,-2.1306,-2.0763,-2.0569,-2.0288,-1.9768,-1.965,-1.9629,-1.9629,-1.952,-1.9483,-1.9538,-1.9358,-1.9265,-1.9265,-1.9157,-1.9101,-1.9101,-1.9101,-1.9101,-1.9101,-1.9101,-1.9101,-1.9101,-1.9101,-1.9101,-1.9101,-1.9101,-1.9101,-1.9101,-1.9101,-1.9101,-1.9101,-1.9101,-1.9101,-1.9101,-1.9101,-1.9059,-1.8993,-1.8855,-1.876,-1.8711,-3.6492,-3.6492,-3.6492,-3.6492,-3.6492,-3.6492,-3.6492,-3.6492,-3.6492,-3.6492,-3.6492,-3.6492,-3.6492,-3.6492,-3.6492,-3.6492,-3.6492,-3.6492,-3.6492,-3.6383,-3.6305,-3.6196,-3.6038,-3.5958,-3.6005,-3.5894,-3.5863,-3.5863,-3.5514,-3.527,-3.516,-3.4813,-3.4632,-3.4538,-3.4538,-3.4341,-3.3994,-3.3994,-3.3784,-3.3469,-3.3125,-3.2976,-3.2901,-3.2228,-3.1974,-3.1929,-3.1615,-3.1511,-3.1511,-3.1511,-3.1271,-3.0972,-3.0972,-3.0552,-2.9953,-2.9609,-2.9086,-2.8517,-2.8158,-2.7839,-2.76,-2.76,-2.7345,-2.6821,-2.5794,-2.5053,-2.45,-2.4141,-2.3819,-2.3595,-2.3595,-2.3325,-2.3137,-2.3137,-2.2598,-2.2059,-2.1695,-2.1111,-2.0554,-2.0228,-1.9863,-1.9647,-1.9593,-1.9538,-1.9483,-1.9465,-1.9358,-1.9265,-1.9195,-1.9139,-1.9101,-1.9101,-1.9101,-1.9101,-1.9101,-1.9101,-1.9101,-1.9101,-1.9101,-1.9101,-1.9101,-1.9101,-1.9101,-1.9101,-1.9101,-1.9101,-1.9101,-1.9101,-1.8988,-1.8803,-1.8803,-1.8798,-1.8716,-1.8397,-1.822,-1.8135,-3.6492,-3.6492,-3.6492,-3.6492,-3.6492,-3.6492,-3.6492,-3.6492,-3.6492,-3.6492,-3.6492,-3.6492,-3.6492,-3.6492,-3.6492,-3.6492,-3.6492,-3.6492,-3.646,-3.646,-3.6352,-3.6179,-3.6133,-3.6085,-3.6005,-3.5767,-3.5671,-3.5688,-3.5671,-3.5671,-3.5671,-3.5671,-3.5671,-3.5671,-3.5671,-3.5306,-3.4683,-3.4683,-3.4337,-3.3829,-3.3709,-3.3664,-3.3589,-3.2931,-3.2677,-3.2572,-3.1914,-3.16,-3.1511,-3.1511,-3.1511,-3.1511,-3.1511,-3.1122,-3.0657,-3.0537,-2.9759,-2.8876,-2.8667,-2.8173,-2.775,-2.763,-2.76,-2.745,-2.6911,-2.5824,-2.4903,-2.4799,-2.4231,-2.3774,-2.3774,-2.3684,-2.3595,-2.3595,-2.3176,-2.2823,-2.2703,-2.1739,-2.1006,-2.0882,-2.0273,-1.9806,-1.9644,-1.9611,-1.9538,-1.9358,-1.9339,-1.9265,-1.9139,-1.912,-1.912,-1.9101,-1.9101,-1.9101,-1.9101,-1.9101,-1.9101,-1.9101,-1.9101,-1.9101,-1.9101,-1.9101,-1.9101,-1.9101,-1.9101,-1.9101,-1.9101,-1.9101,-1.8898,-1.8611,-1.8519,-1.85,-1.8442,-1.7888,-1.7659,-1.7598,-3.6492,-3.6492,-3.6492,-3.6492,-3.6492,-3.6492,-3.6492,-3.6492,-3.6492,-3.6492,-3.6492,-3.6492,-3.6492,-3.6492,-3.6492,-3.6492,-3.6492,-3.6414,-3.6242,-3.6242,-3.6179,-3.6037,-3.5863,-3.5831,-3.6005,-3.5668,-3.5572,-3.5688,-3.5572,-3.5537,-3.5537,-3.5537,-3.5537,-3.5537,-3.5537,-3.5477,-3.537,-3.537,-3.531,-3.5175,-3.4608,-3.4369,-3.4294,-3.3619,-3.3365,-3.3275,-3.2617,-3.1989,-3.1511,-3.1511,-3.1511,-3.1511,-3.1511,-3.1436,-3.1256,-3.0672,-3.0387,-2.9998,-2.8906,-2.8532,-2.8323,-2.775,-2.76,-2.757,-2.748,-2.6881,-2.6168,-2.5576,-2.4933,-2.447,-2.447,-2.3999,-2.3595,-2.3595,-2.3535,-2.3295,-2.2778,-2.2538,-2.2224,-2.1635,-2.0976,-2.0314,-1.975,-1.9632,-1.9593,-1.9556,-1.9465,-1.9358,-1.9284,-1.9265,-1.9213,-1.9101,-1.9101,-1.9101,-1.9101,-1.9101,-1.9101,-1.9101,-1.9101,-1.9101,-1.9101,-1.9101,-1.9101,-1.9101,-1.9101,-1.9101,-1.9101,-1.9101,-1.9064,-1.8988,-1.8649,-1.85,-1.8442,-1.7888,-1.7787,-1.7888,-3.6492,-3.6492,-3.6492,-3.6492,-3.6492,-3.6492,-3.6492,-3.6492,-3.6492,-3.6492,-3.6492,-3.6492,-3.6492,-3.6492,-3.6492,-3.6492,-3.6492,-3.646,-3.6383,-3.6274,-3.6179,-3.6116,-3.5958,-3.5894,-3.6005,-3.575,-3.5638,-3.5688,-3.5587,-3.5504,-3.5504,-3.5504,-3.5504,-3.5504,-3.5504,-3.5504,-3.5504,-3.5504,-3.5504,-3.5474,-3.5175,-3.5055,-3.4981,-3.4307,-3.4038,-3.3903,-3.2886,-3.2303,-3.1989,-3.163,-3.1511,-3.1511,-3.1511,-3.1511,-3.1451,-3.1137,-3.0806,-3.0387,-2.9819,-2.9146,-2.8532,-2.8218,-2.7884,-2.76,-2.76,-2.7375,-2.6971,-2.6303,-2.563,-2.5038,-2.4679,-2.435,-2.4044,-2.3655,-2.3595,-2.3505,-2.3236,-2.2912,-2.2448,-2.1769,-2.144,-2.1006,-2.0318,-2.0236,-2.005,-1.9622,-1.9556,-1.9483,-1.9358,-1.9321,-1.9265,-1.9195,-1.9139,-1.9101,-1.9101,-1.9101,-1.9101,-1.9101,-1.9101,-1.9101,-1.9101,-1.9101,-1.8988,-1.8765,-1.8765,-1.8765,-1.8765,-1.8765,-1.8611,-1.8364,-1.8187,-1.7808,-1.7366,-1.7338,-1.7235,-1.7089]},{"header":{"parameterUnit":"m.s-1","parameterCategory":1,"la1":30.6,"la2":28.766,"lo1":-90.7593,"lo2":-88.6598,"dy":0.0162,"dx":0.0183,"nx":116,"ny":114,"refTime":"2024-05-26T12:00:00:Z","depth":0,"parameterNumber":3,"parameterNumberName":"V-component_of_WINDS"},"data":[0.0,0.0,0.0,0.0,0.0,0.0,0.0,0.0,0.0,0.0,0.0,0.0,0.0,0.0,0.0,0.0,0.0,0.0,0.0,0.0,0.0,0.0,0.0,0.0,0.0,0.0,0.0,0.0,0.0,0.0,0.0,0.0,0.0,0.0,0.0,0.0,0.0,0.0,0.0,0.0,0.0,0.0,0.0,0.0,0.0,0.0,0.0,0.0,0.0,0.0,0.0,0.0,0.0,0.0,0.0,0.0,0.0,0.0,0.0,0.0,0.0,0.0,0.0,0.0,0.0,0.0,0.0,0.0,0.0,0.0,0.0,0.0,0.0,0.0,0.0,0.0,0.0,0.0,0.0,0.0,0.0,0.0,0.0,0.0,0.0,0.0,0.0,0.0,0.0,0.0,0.0,0.0,0.0,0.0,0.0,0.0,0.0,0.0,0.0,0.0,0.0,0.0,0.0,0.0,0.0,0.0,0.0,0.0,0.0,0.0,0.0,0.0,0.0,0.0,0.0,0.0,0.0,0.0,0.0,0.0,0.0,0.0,0.0,0.0,0.0,0.0,0.0,0.0,0.0,0.0,0.0,0.0,0.0,0.0,0.0,0.0,0.0,0.0,0.0,0.0,0.0,0.0,0.0,0.0,0.0,0.0,0.0,0.0,0.0,0.0,0.0,0.0,0.0,0.0,0.0,0.0,0.0,0.0,0.0,0.0,0.0,0.0,0.0,0.0,0.0,0.0,0.0,0.0,0.0,0.0,0.0,0.0,0.0,0.0,0.0,0.0,0.0,0.0,0.0,0.0,0.0,0.0,0.0,0.0,0.0,0.0,0.0,0.0,0.0,0.0,0.0,0.0,0.0,0.0,0.0,0.0,0.0,0.0,0.0,0.0,0.0,0.0,0.0,0.0,0.0,0.0,0.0,0.0,0.0,0.0,0.0,0.0,0.0,0.0,0.0,0.0,0.0,0.0,0.0,0.0,0.0,0.0,0.0,0.0,0.0,0.0,0.0,0.0,0.0,0.0,0.0,0.0,0.0,0.0,0.0,0.0,0.0,0.0,0.0,0.0,0.0,0.0,0.0,0.0,0.0,0.0,0.0,0.0,0.0,0.0,0.0,0.0,0.0,0.0,0.0,0.0,0.0,0.0,0.0,0.0,0.0,0.0,0.0,0.0,0.0,0.0,0.0,0.0,0.0,0.0,0.0,0.0,0.0,0.0,0.0,0.0,0.0,0.0,0.0,0.0,0.0,0.0,0.0,0.0,0.0,0.0,0.0,0.0,0.0,0.0,0.0,0.0,0.0,0.0,0.0,0.0,0.0,0.0,0.0,0.0,0.0,0.0,0.0,0.0,0.0,0.0,0.0,0.0,0.0,0.0,0.0,0.0,0.0,0.0,0.0,0.0,0.0,0.0,0.0,0.0,0.0,0.0,0.0,0.0,0.0,0.0,0.0,0.0,0.0,0.0,0.0,0.0,0.0,0.0,0.0,0.0,0.0,0.0,0.0,0.0,0.0,0.0,0.0,0.0,0.0,0.0,0.0,0.0,0.0,0.0,0.0,0.0,0.0,0.0,0.0,0.0,0.0,0.0,0.0,0.0,0.0,0.0,0.0,0.0,0.0,0.0,0.0,0.0,0.0,0.0,0.0,0.0,0.0,0.0,0.0,0.0,0.0,0.0,0.0,0.0,0.0,0.0,0.0,0.0,0.0,0.0,0.0,0.0,0.0,0.0,0.0,0.0,0.0,0.0,0.0,0.0,0.0,0.0,0.0,0.0,0.0,0.0,0.0,0.0,0.0,0.0,0.0,0.0,0.0,0.0,0.0,0.0,0.0,0.0,0.0,0.0,0.0,0.0,0.0,0.0,0.0,0.0,0.0,0.0,0.0,0.0,0.0,0.0,0.0,0.0,0.0,0.0,0.0,0.0,0.0,0.0,0.0,0.0,0.0,0.0,0.0,0.0,0.0,0.0,0.0,0.0,0.0,0.0,0.0,0.0,0.0,0.0,0.0,0.0,0.0,0.0,0.0,0.0,0.0,0.0,0.0,0.0,0.0,0.0,0.0,0.0,0.0,0.0,0.0,0.0,0.0,0.0,0.0,0.0,0.0,0.0,0.0,0.0,0.0,0.0,0.0,0.0,0.0,0.0,0.0,0.0,0.0,0.0,0.0,0.0,0.0,0.0,0.0,0.0,0.0,0.0,0.0,0.0,0.0,0.0,0.0,0.0,0.0,0.0,0.0,0.0,0.0,0.0,0.0,0.0,0.0,0.0,0.0,0.0,0.0,0.0,0.0,0.0,0.0,0.0,0.0,0.0,0.0,0.0,0.0,0.0,0.0,0.0,0.0,0.0,0.0,0.0,0.0,0.0,0.0,0.0,0.0,0.0,0.0,0.0,0.0,0.0,0.0,0.0,0.0,0.0,0.0,0.0,0.0,0.0,0.0,0.0,0.0,0.0,0.0,0.0,0.0,0.0,0.0,0.0,0.0,0.0,0.0,0.0,0.0,0.0,0.0,0.0,0.0,0.0,0.0,0.0,0.0,0.0,0.0,0.0,0.0,0.0,0.0,0.0,0.0,0.0,0.0,0.0,0.0,0.0,0.0,0.0,0.0,0.0,0.0,0.0,0.0,0.0,0.0,0.0,0.0,0.0,0.0,0.0,0.0,0.0,0.0,0.0,0.0,0.0,0.0,0.0,0.0,0.0,0.0,0.0,0.0,0.0,0.0,0.0,0.0,0.0,0.0,0.0,0.0,0.0,0.0,0.0,0.0,0.0,0.0,0.0,0.0,0.0,0.0,0.0,0.0,0.0,0.0,0.0,0.0,0.0,0.0,0.0,0.0,0.0,0.0,0.0,0.0,0.0,0.0,0.0,0.0,0.0,0.0,0.0,0.0,0.0,0.0,0.0,0.0,0.0,0.0,0.0,0.0,0.0,0.0,0.0,0.0,0.0,0.0,0.0,0.0,0.0,0.0,0.0,0.0,0.0,0.0,0.0,0.0,0.0,0.0,0.0,0.0,0.0,0.0,0.0,0.0,0.0,0.0,0.0,0.0,0.0,0.0,0.0,0.0,0.0,0.0,0.0,0.0,0.0,0.0,0.0,0.0,0.0,0.0,0.0,0.0,0.0,0.0,0.0,0.0,0.0,0.0,0.0,0.0,0.0,0.0,0.0,0.0,0.0,0.0,0.0,0.0,0.0,0.0,0.0,0.0,0.0,0.0,0.0,0.0,0.0,0.0,0.0,0.0,0.0,0.0,0.0,0.0,0.0,0.0,0.0,0.0,0.0,0.0,0.0,0.0,0.0,0.0,0.0,0.0,0.0,0.0,0.0,0.0,0.0,0.0,0.0,0.0,0.0,0.0,0.0,0.0,0.0,0.0,0.0,0.0,0.0,0.0,0.0,0.0,0.0,0.0,0.0,0.0,0.0,0.0,0.0,0.0,0.0,0.0,0.0,0.0,0.0,0.0,0.0,0.0,0.0,0.0,0.0,0.0,0.0,0.0,0.0,0.0,0.0,0.0,0.0,0.0,0.0,0.0,0.0,0.0,0.0,0.0,0.0,0.0,0.0,0.0,0.0,0.0,0.0,0.0,0.0,0.0,0.0,0.0,0.0,0.0,0.0,0.0,0.0,0.0,0.0,0.0,0.0,0.0,0.0,0.0,0.0,0.0,0.0,0.0,0.0,0.0,0.0,0.0,0.0,0.0,0.0,0.0,0.0,0.0,0.0,0.0,0.0,0.0,0.0,0.0,0.0,0.0,0.0,0.0,0.0,0.0,0.0,0.0,0.0,0.0,0.0,0.0,0.0,0.0,0.0,0.0,0.0,0.0,0.0,0.0,0.0,0.0,0.0,0.0,0.0,0.0,0.0,0.0,0.0,0.0,0.0,0.0,0.0,0.0,0.0,0.0,0.0,0.0,0.0,0.0,0.0,0.0,0.0,0.0,0.0,0.0,0.0,0.0,0.0,0.0,0.0,0.0,0.0,0.0,0.0,0.0,0.0,0.0,0.0,0.0,0.0,0.0,0.0,0.0,0.0,0.0,0.0,0.0,0.0,0.0,0.0,0.0,0.0,0.0,0.0,0.0,0.0,0.0,0.0,0.0,0.0,0.0,0.0,0.0,0.0,0.0,0.0,0.0,0.0,0.0,0.0,0.0,0.0,0.0,0.0,0.0,0.0,0.0,0.0,0.0,0.0,0.0,0.0,0.0,0.0,0.0,0.0,0.0,0.0,0.0,0.0,0.0,0.0,0.0,0.0,0.0,0.0,0.0,0.0,0.0,0.0,0.0,0.0,0.0,0.0,0.0,0.0,0.0,0.0,0.0,0.0,0.0,0.0,0.0,0.0,0.0,0.0,0.0,0.0,0.0,0.0,0.0,0.0,0.0,0.0,0.0,0.0,0.0,0.0,0.0,0.0,0.0,0.0,0.0,0.0,0.0,0.0,0.0,0.0,0.0,0.0,0.0,0.0,0.0,0.0,0.0,0.0,0.0,0.0,0.0,0.0,0.0,0.0,0.0,0.0,0.0,0.0,0.0,0.0,0.0,0.0,0.0,0.0,0.0,0.0,0.0,0.0,0.0,0.0,0.0,0.0,0.0,0.0,0.0,0.0,0.0,0.0,0.0,0.0,0.0,0.0,0.0,0.0,0.0,0.0,0.0,0.0,0.0,0.0,0.0,0.0,0.0,0.0,0.0,0.0,0.0,0.0,0.0,0.0,0.0,0.0,0.0,0.0,0.0,0.0,0.0,0.0,0.0,0.0,0.0,0.0,0.0,0.0,0.0,0.0,0.0,0.0,0.0,0.0,0.0,0.0,0.0,0.0,0.0,0.0,0.0,0.0,0.0,0.0,0.0,0.0,0.0,0.0,0.0,0.0,0.0,0.0,0.0,0.0,0.0,0.0,0.0,0.0,0.0,0.0,0.0,0.0,0.0,0.0,0.0,0.0,0.0,0.0,0.0,0.0,0.0,0.0,0.0,0.0,0.0,0.0,0.0,0.0,0.0,0.0,0.0,0.0,0.0,0.0,0.0,0.0,0.0,0.0,0.0,0.0,0.0,0.0,0.0,0.0,0.0,0.0,0.0,0.0,0.0,0.0,0.0,0.0,0.0,0.0,0.0,0.0,0.0,0.0,0.0,0.0,0.0,0.0,0.0,0.0,0.0,0.0,0.0,0.0,0.0,0.0,0.0,0.0,0.0,0.0,0.0,0.0,0.0,0.0,0.0,0.0,0.0,0.0,0.0,0.0,0.0,0.0,0.0,0.0,0.0,0.0,0.0,0.0,0.0,0.0,0.0,0.0,0.0,0.0,0.0,0.0,0.0,0.0,0.0,0.0,0.0,0.0,0.0,0.0,0.0,0.0,0.0,0.0,0.0,0.0,0.0,0.0,0.0,0.0,0.0,0.0,0.0,0.0,0.0,0.0,0.0,0.0,0.0,0.0,0.0,0.0,0.0,0.0,0.0,0.0,0.0,0.0,0.0,0.0,0.0,0.0,0.0,0.0,0.0,0.0,0.0,0.0,0.0,0.0,0.0,0.0,0.0,0.0,0.0,0.0,0.0,0.0,0.0,0.0,0.0,0.0,0.0,0.0,0.0,0.0,0.0,0.0,0.0,0.0,0.0,0.0,0.0,0.0,0.0,0.0,0.0,0.0,0.0,0.0,0.0,0.0,0.0,0.0,0.0,0.0,0.0,0.0,0.0,0.0,0.0,0.0,0.0,0.0,0.0,0.0,0.0,0.0,0.0,0.0,0.0,0.0,0.0,0.0,0.0,0.0,0.0,0.0,0.0,0.0,0.0,0.0,0.0,0.0,0.0,0.0,0.0,0.0,0.0,0.0,0.0,0.0,0.0,0.0,0.0,0.0,0.0,0.0,0.0,0.0,0.0,0.0,0.0,0.0,0.0,0.0,0.0,0.0,0.0,0.0,0.0,0.0,0.0,0.0,0.0,0.0,0.0,0.0,0.0,0.0,0.0,0.0,0.0,0.0,0.0,0.0,0.0,0.0,0.0,0.0,0.0,0.0,0.0,0.0,0.0,0.0,0.0,0.0,0.0,0.0,0.0,0.0,0.0,0.0,0.0,0.0,0.0,0.0,0.0,0.0,1.1396,0.0,0.0,0.0,0.0,0.0,0.0,0.0,0.0,0.0,0.0,0.0,0.0,0.0,0.0,0.0,0.0,0.0,0.0,0.0,0.0,0.0,0.0,0.0,0.0,1.022,1.0195,1.0195,1.0203,1.019,1.0198,0.0,0.0,0.0,0.0,0.0,1.0146,1.0156,1.0366,1.0777,1.0772,1.1187,1.1988,1.199,1.1765,1.138,0.0,0.0,0.0,0.0,0.0,0.0,0.0,0.0,0.0,0.0,0.0,0.0,0.0,0.0,0.0,0.0,0.0,0.0,0.0,0.0,0.0,0.0,0.0,0.0,0.0,0.0,0.0,0.0,0.0,0.0,0.0,0.0,0.0,0.0,0.0,0.0,0.0,0.0,0.0,0.0,0.0,0.0,0.0,0.0,0.0,0.0,0.0,0.0,0.0,0.0,0.0,0.0,0.0,0.0,0.0,0.0,0.0,0.0,0.0,0.0,0.0,0.0,0.0,0.0,0.0,0.0,0.0,0.0,0.0,0.0,0.0,1.2408,0.0,0.0,0.0,0.0,0.0,0.0,0.0,0.0,0.0,0.0,0.0,0.0,0.0,0.0,0.0,0.0,0.0,0.0,0.0,0.0,0.0,0.9213,1.0091,1.0189,1.0209,1.0209,1.0183,1.017,1.0188,1.0185,0.0,0.0,0.0,1.0089,1.0083,1.0097,1.0514,1.1379,1.169,1.2681,1.4335,1.4349,1.4056,1.3508,1.2565,0.0,0.0,0.0,0.0,0.0,0.0,0.0,0.0,0.0,0.0,0.0,0.0,0.0,0.0,0.0,0.0,0.0,0.0,0.0,0.0,0.0,0.0,0.0,0.0,0.0,0.0,0.0,0.0,0.0,0.0,0.0,0.0,0.0,0.0,0.0,0.0,0.0,0.0,0.0,0.0,0.0,0.0,0.0,0.0,0.0,0.0,0.0,0.0,0.0,0.0,0.0,0.0,0.0,0.0,0.0,0.0,0.0,0.0,0.0,0.0,0.0,0.0,0.0,1.6775,1.7011,1.7863,1.7023,1.7064,1.7695,1.5878,1.5169,1.5222,0.0,0.0,0.0,0.0,0.0,0.0,0.0,0.0,0.0,0.0,0.0,0.0,0.0,0.0,0.0,0.0,0.0,0.0,0.0,0.0,0.914,1.0025,1.0163,1.0202,1.0202,1.0143,1.0117,1.0104,1.0105,0.0,0.0,1.0106,1.0063,1.0006,1.0068,1.0505,1.1318,1.2838,1.4434,1.6071,1.6062,1.6395,1.6884,1.5375,1.4747,1.4685,0.0,0.0,0.0,0.0,0.0,0.0,0.0,0.0,0.0,0.0,0.0,0.0,0.0,0.0,0.0,0.0,0.0,0.0,0.0,0.0,0.0,0.0,0.0,0.0,0.0,0.0,0.0,0.0,0.0,0.0,0.0,0.0,0.0,0.0,0.0,0.0,0.0,0.0,0.0,0.0,0.0,1.1813,1.1809,0.0,0.0,0.0,0.0,0.0,0.0,0.0,0.0,0.0,0.0,0.0,0.0,0.0,0.0,1.8014,1.9338,1.9777,1.9341,2.0479,2.0778,2.0251,2.0056,2.0194,2.0561,2.0258,0.0,1.6682,1.5915,0.0,0.0,0.0,0.0,0.0,0.0,0.0,0.0,0.0,0.0,0.0,0.0,0.0,0.0,0.0,0.0,0.0,0.0,0.0,0.0,0.0,1.0549,1.0868,1.0868,1.1258,1.1304,1.0804,1.0772,1.0545,1.0002,0.9995,0.9979,0.9938,1.0445,1.1617,1.3434,1.5627,1.7313,1.8489,1.8971,1.9644,2.037,1.9677,1.81,1.5852,1.4151,0.0,0.0,0.0,0.0,0.0,0.0,0.0,0.0,0.0,0.0,0.0,0.0,0.0,0.0,0.0,0.0,0.0,0.0,0.0,0.0,0.0,0.0,0.0,0.0,0.0,0.0,0.0,0.0,0.0,0.0,0.0,0.0,0.0,0.0,0.0,0.0,0.0,0.0,0.0,1.1847,1.2718,1.2313,1.303,1.2996,0.0,0.0,0.0,0.0,0.0,0.0,0.0,0.0,0.0,1.8279,1.8342,1.9154,2.0849,2.1527,2.1913,2.2016,2.2478,2.2511,2.2148,2.1888,2.187,2.1991,2.1991,2.1213,1.9821,1.845,1.73,1.6292,0.0,0.0,0.0,0.0,1.5009,1.4909,0.0,0.0,0.0,0.0,0.0,0.0,0.0,0.0,0.0,0.0,0.0,0.0,1.0277,1.0967,1.1482,1.1691,1.2213,1.2273,1.1644,1.1373,1.0939,1.0242,1.0016,1.0,1.0207,1.1506,1.3448,1.6071,1.8187,1.9735,2.0743,2.1402,2.2032,2.2601,2.2621,2.0826,1.7696,1.6008,1.4669,1.3574,0.0,0.0,0.0,0.0,0.0,0.0,0.0,0.0,0.0,0.0,0.0,0.0,0.0,0.0,0.0,0.0,0.0,0.0,0.0,0.0,0.0,0.0,0.0,0.0,0.0,0.0,0.0,0.0,0.0,0.0,0.0,0.0,0.0,0.0,0.0,0.0,0.0,1.3282,1.4166,1.339,1.4912,1.5244,0.0,0.0,0.0,0.0,0.0,0.0,1.7647,1.8304,1.929,2.0705,2.0741,2.1465,2.297,2.297,2.327,2.3795,2.3544,2.3439,2.3417,2.3117,2.2933,2.2841,2.2846,2.2643,2.2184,2.047,1.9326,1.8565,1.7695,1.7261,1.723,1.7793,1.7763,1.7602,0.0,0.0,0.0,0.0,0.0,0.0,0.0,0.0,0.0,0.0,0.0,1.0212,1.1046,1.1297,1.1714,1.2473,1.2452,1.2426,0.0,1.1608,1.1101,1.1036,1.0314,1.0267,1.1022,1.3524,1.6085,1.8708,1.9597,2.0876,2.2486,2.2524,2.2562,2.2606,2.2671,2.2179,2.1228,1.9482,1.7841,1.6184,1.3715,0.0,0.0,0.0,0.0,0.0,0.0,0.0,0.0,0.0,0.0,0.0,0.0,0.0,0.0,0.0,0.0,0.0,0.0,0.0,0.0,0.0,0.0,0.0,0.0,0.0,0.0,0.0,0.0,0.0,0.0,0.0,0.0,0.0,0.0,0.0,0.0,0.0,0.0,1.6117,1.8149,0.0,0.0,0.0,0.0,1.8141,1.9629,2.0564,2.0595,2.1347,2.2062,2.2731,2.274,2.3068,2.3751,2.3741,2.3759,2.3806,2.3785,2.3771,2.3765,2.3743,2.3571,2.3265,2.3188,2.297,2.2591,2.1466,2.0686,2.0118,1.9358,1.8913,1.8712,1.9002,1.9336,1.9687,0.0,0.0,0.0,0.0,0.0,0.9475,0.9235,0.9383,0.9534,0.9629,1.0175,1.0688,1.1023,1.2584,1.3497,1.3259,1.4156,1.424,1.3159,1.2275,1.2004,1.2428,1.1713,1.2224,1.4143,1.6116,1.7879,1.9405,2.1293,2.2596,2.3321,2.3834,2.4149,2.4274,2.4296,2.3889,2.3034,2.1338,1.9659,1.8015,1.6549,1.4473,0.0,0.0,0.0,0.0,0.0,0.0,0.0,0.0,0.0,0.0,0.0,0.0,0.0,0.0,0.0,0.0,0.0,0.0,0.0,0.0,0.0,0.0,0.0,0.0,0.0,0.0,0.0,0.0,0.0,0.0,0.0,0.0,0.0,0.0,0.0,0.0,0.0,1.8737,1.9973,0.0,0.0,1.9532,2.0174,2.007,2.1557,2.2465,2.2465,2.3151,2.3638,2.3857,2.3876,2.397,2.4174,2.4745,2.4936,2.4774,2.5335,2.5495,2.5274,2.5274,2.5211,2.5112,2.5088,2.4876,2.4523,2.4108,2.3108,2.18,2.132,2.108,2.0981,2.09,2.0964,2.1073,0.0,0.0,0.0,0.0,0.893,0.9426,0.9523,0.9457,0.9439,0.9556,1.0331,1.1006,1.1362,1.3424,1.4551,1.4043,1.5215,1.5351,1.3894,1.3002,1.2745,1.3181,1.3015,1.4082,1.6614,1.8018,1.9416,2.0872,2.2595,2.3639,2.4046,2.4642,2.4974,2.5107,2.5144,2.488,2.4293,2.3203,2.1618,1.9731,1.8598,1.6795,1.4671,0.0,0.0,0.0,0.0,0.0,0.0,0.0,0.0,0.0,0.0,0.0,0.0,0.0,0.0,0.0,0.0,0.0,0.0,0.0,0.0,0.0,0.0,0.0,0.0,0.0,0.0,0.0,0.0,0.0,0.0,0.0,0.0,0.0,0.0,0.0,2.0341,2.0647,2.187,2.219,2.0932,2.1887,2.255,2.2456,2.3417,2.4002,2.397,2.4388,2.458,2.4508,2.4794,2.4927,2.4859,2.5705,2.6051,2.5882,2.6455,2.657,2.627,2.6277,2.6215,2.6135,2.6111,2.5979,2.5765,2.5725,2.4969,2.3806,2.3333,2.3136,2.311,2.2809,2.2707,2.2647,0.0,0.0,0.0,0.8156,0.885,0.9389,0.9394,0.9389,0.9412,0.9485,1.0287,1.1184,1.2097,1.3719,1.4752,1.4794,1.5471,1.552,1.4635,1.3715,1.3212,1.3263,1.4187,1.5809,1.8225,1.9142,2.0774,2.3188,2.3405,2.3922,2.4689,2.4814,2.4895,2.4902,2.5031,2.5095,2.5101,2.5156,2.3802,2.1467,1.9815,1.9077,1.8582,0.0,0.0,0.0,0.0,0.0,0.0,0.0,0.0,0.0,0.0,0.0,0.0,0.0,0.0,0.0,0.0,0.0,0.0,0.0,0.0,0.0,0.0,0.0,0.0,0.0,0.0,0.0,0.0,0.0,0.0,0.0,0.0,0.0,1.9148,2.1323,2.2644,2.1827,2.3891,2.4733,2.3052,2.4346,2.5295,2.5295,2.5245,2.5187,2.5141,2.515,2.5037,2.4809,2.5608,2.5996,2.5864,2.6657,2.705,2.705,2.7072,2.6944,2.6682,2.6675,2.6534,2.6299,2.6223,2.6188,2.6176,2.6183,2.6177,2.6099,2.5316,2.502,2.4977,2.4637,2.4518,2.4411,0.0,0.0,0.7217,0.7321,0.8352,0.9194,0.9245,0.9214,0.9234,0.9403,1.0653,1.167,1.2091,1.4093,1.5193,1.4631,1.5311,1.5343,1.4368,1.3604,1.3724,1.4891,1.7351,1.9044,1.9778,2.1165,2.2236,2.2914,2.3548,2.4054,2.4409,2.4543,2.467,2.4756,2.4907,2.4954,2.4954,2.4974,2.4588,2.3888,2.2983,2.1545,1.975,0.0,0.0,0.0,0.0,0.0,0.0,0.0,0.0,0.0,0.0,0.0,0.0,0.0,0.0,0.0,0.0,0.0,0.0,0.0,0.0,0.0,0.0,0.0,0.0,0.0,0.0,0.0,0.0,0.0,0.0,0.0,0.0,2.1957,2.1964,2.3092,2.4068,2.4448,2.5024,2.5201,2.4738,2.5066,2.5307,2.529,2.5286,2.5539,2.6145,2.6198,2.6442,2.6993,2.7151,2.7217,2.7179,2.7932,2.822,2.8081,2.8674,2.883,2.8559,2.8567,2.8524,2.8458,2.8429,2.8338,2.8187,2.8099,2.7967,2.7684,2.6056,2.5402,2.5326,2.5042,2.4739,2.4455,0.0,0.6212,0.703,0.7752,0.856,0.9107,0.9146,0.9123,0.9154,0.9334,1.077,1.1828,1.2046,1.4202,1.5337,1.4532,1.5134,1.5039,1.3773,1.3642,1.4468,1.6356,1.8606,2.0136,2.0853,2.2116,2.2915,2.3224,2.3777,2.4095,2.4228,2.4357,2.4461,2.4543,2.4643,2.4719,2.479,2.4799,2.4861,2.4877,2.451,2.3558,2.2139,2.0554,1.9554,1.8837,1.7654,1.7094,1.6838,1.6404,0.0,0.0,0.0,0.0,0.0,0.0,0.0,0.0,0.0,0.0,0.0,0.0,0.0,0.0,0.0,0.0,0.0,0.0,0.0,0.0,0.0,0.0,0.0,0.0,2.1673,2.3599,2.4011,2.455,2.5055,2.554,2.5528,2.5478,2.5478,2.578,2.5962,2.5966,2.6272,2.669,2.7201,2.72,2.7404,2.7872,2.8183,2.8333,2.8336,2.9125,2.9443,2.9338,2.9775,2.9851,2.9558,2.955,2.9476,0.0,2.9316,2.9233,2.9123,2.9049,2.8936,0.0,0.0,0.0,0.0,0.0,2.5987,2.5624,0.0,0.6867,0.7355,0.8719,0.903,0.9093,0.9093,0.9093,0.9138,0.9288,1.0626,1.1646,1.1837,1.3931,1.5043,1.4326,1.4866,1.4682,0.0,1.3971,1.541,1.7647,1.8795,2.0083,2.1595,2.2409,2.3143,2.3806,2.3986,2.4074,2.4074,2.4201,2.4284,2.4275,2.4365,2.4441,2.4575,2.462,2.4719,2.4821,2.4821,2.4914,2.481,2.2435,2.2018,2.2492,2.0977,1.95,1.8274,1.8251,0.0,0.0,0.0,0.0,0.0,0.0,0.0,0.0,0.0,0.0,0.0,0.0,0.0,0.0,0.0,0.0,0.0,0.0,0.0,0.0,0.0,0.0,0.0,0.0,2.3098,2.4462,2.5247,2.5526,2.5646,2.5576,2.5576,2.5576,2.5576,2.6362,2.6873,2.6893,2.7633,2.8148,2.8254,0.0,0.0,0.0,0.0,2.9356,2.9373,3.0126,3.05,3.0491,3.0434,3.0238,2.9956,2.9956,2.9783,2.9495,2.9418,2.9369,2.9358,2.9346,2.9324,2.9241,2.8676,2.8445,2.8406,2.8003,2.7609,2.7276,0.0,0.7282,0.779,0.8077,0.8622,0.9011,0.9024,0.9019,0.9081,0.9279,1.0143,1.0818,1.1009,1.2615,1.3601,1.3461,1.3997,1.4435,1.4599,1.5369,1.6637,1.8485,2.0146,2.1495,2.2445,2.3198,2.365,2.3806,2.3837,2.3865,2.3847,2.4046,2.4142,2.4142,2.4266,2.4339,2.4366,2.4365,2.4392,2.4418,2.4418,2.4559,2.4643,2.3519,2.3179,2.3186,2.2186,2.2124,2.2424,2.179,2.0916,1.9845,1.8335,0.0,0.0,0.0,0.0,0.0,0.0,0.0,0.0,0.0,0.0,0.0,0.0,0.0,0.0,0.0,0.0,0.0,0.0,0.0,0.0,2.2036,2.3623,2.4877,2.505,2.5307,2.5457,2.5432,2.5435,2.5435,2.5435,2.6232,2.6767,2.6828,2.7613,2.8434,2.9198,2.9218,0.0,3.0228,3.0309,3.0363,3.0419,3.0467,3.0492,3.0506,0.0,0.0,3.0304,3.0253,3.0151,3.0042,2.9965,2.983,2.9626,2.9617,2.9494,2.9262,2.8879,2.8725,2.8688,2.8383,2.8035,2.7669,0.7749,0.7908,0.8023,0.8386,0.8762,0.8996,0.9002,0.8997,0.9044,0.9191,0.9899,1.0477,1.0677,1.1779,1.2495,1.2495,1.265,1.3352,1.4817,1.5377,1.6771,1.9297,2.0741,2.1884,2.2681,2.3381,2.3739,2.3739,2.3739,2.3739,2.3739,2.3894,2.3937,2.3947,2.4018,2.4114,2.4209,2.4209,2.4247,2.4294,2.4294,2.433,2.4379,2.4078,2.3974,2.3948,2.351,2.3397,2.3392,2.2982,2.2323,2.1362,1.9687,1.8598,1.7435,0.0,0.0,0.0,0.0,0.0,0.0,0.0,0.0,0.0,0.0,0.0,0.0,0.0,0.0,1.9585,0.0,0.0,2.2851,2.3289,2.4138,2.4761,2.4838,2.4974,2.5146,2.5379,2.5399,2.5569,2.5971,2.678,2.7493,2.7974,2.8809,2.9505,2.9978,3.0,3.0219,3.0684,3.0636,3.0624,3.0698,3.0631,3.06,3.0608,3.0638,3.0592,3.0493,3.0506,3.0448,3.0355,3.0283,3.0164,3.0051,2.9973,2.9826,2.9626,2.9318,2.9053,2.8778,2.8658,2.8396,2.8105,0.8839,0.8498,0.8284,0.8857,0.8953,0.8953,0.8942,0.8942,0.8969,0.9075,0.9654,1.0114,1.0308,1.1045,1.158,1.1694,1.1643,1.248,1.4589,1.5083,1.6737,1.9996,2.0971,2.1852,2.2767,2.3332,2.3594,2.3594,2.3594,2.3616,2.3656,2.3725,2.3732,2.3732,2.3732,2.3863,2.4024,2.4024,2.4085,2.421,2.421,2.4143,2.4056,2.4211,2.4346,2.4395,2.4255,2.3752,2.3164,2.302,2.2547,2.1742,2.0234,1.9757,1.9179,1.6162,1.5638,0.0,0.0,0.0,0.0,0.0,0.0,0.0,0.0,0.0,1.8091,1.8826,2.0272,2.1559,2.1992,2.2772,2.3599,2.4285,2.4449,2.4508,2.4604,2.4643,2.4802,2.5179,2.5288,2.5654,2.6452,2.734,2.8227,2.912,2.9979,3.0479,3.0473,3.0473,3.0506,3.0578,3.0578,3.0613,3.0662,3.0667,3.069,3.0673,3.0759,3.0742,3.0614,3.0659,3.0614,3.05,3.0438,3.0404,3.0385,3.0277,3.0169,3.0053,2.9809,2.9419,2.8986,2.8911,2.8737,2.8556,0.0,0.8846,0.879,0.8811,0.8816,0.8799,0.8741,0.8735,0.8794,0.899,0.9091,0.9201,0.9339,1.0075,1.0761,1.1311,1.192,1.2903,1.4345,1.5401,1.7368,2.049,2.0958,2.1772,2.3118,2.3212,2.3265,2.3265,2.3265,2.3354,2.3528,2.3522,2.3522,2.3522,2.3522,2.3611,2.3743,2.3743,2.3789,2.3858,2.3858,2.3847,2.3837,2.3868,2.3969,2.4052,2.3345,2.3096,2.3014,2.2362,2.2077,2.1835,2.0941,2.0704,2.0331,1.8315,0.0,1.6767,1.6313,1.6376,1.6882,1.8253,1.8151,1.8705,0.0,0.0,2.1331,2.2239,2.3079,2.3443,2.2821,2.3351,2.3938,2.4029,2.4219,2.433,2.4348,2.4459,2.4546,2.459,2.4921,2.545,2.6263,2.7186,2.8108,2.9035,2.986,3.0342,3.0399,3.0404,3.0434,3.0513,3.0513,3.0505,3.0521,3.0587,3.0611,3.0605,3.0749,3.0769,3.0682,3.0622,3.0596,3.0572,3.0453,3.0405,3.0404,3.037,3.0375,3.0348,3.019,2.9946,2.9643,2.9349,2.9188,2.9112,0.0,0.8863,0.8788,0.8608,0.8699,0.8794,0.8754,0.8754,0.8789,0.8869,0.888,0.893,0.9071,0.9386,0.9692,0.9938,1.0954,1.2241,1.3769,1.5123,1.7282,2.0459,2.0844,2.1684,2.317,2.3121,2.3089,2.3089,2.3089,2.3126,2.3217,2.3407,2.3505,2.3505,2.3505,2.3539,2.3578,2.3578,2.36,2.3616,2.3508,2.3457,2.3427,2.3277,2.3004,2.2689,2.2684,2.2397,0.0,0.0,2.1597,2.1478,2.0734,2.0122,1.9417,1.8141,1.7773,0.0,1.9004,1.8968,1.8957,0.0,2.0617,2.1189,2.2919,2.2646,2.2255,2.3107,2.3508,2.3606,2.3271,2.3586,2.3845,0.0,2.3886,2.4008,2.3959,2.4135,2.4311,2.4364,2.4567,2.5047,2.5921,2.6789,2.7698,2.8688,2.9498,3.0022,3.0221,3.0228,3.0266,3.0378,3.0384,3.0402,3.0434,3.0466,3.0477,3.0482,3.057,3.0604,3.0586,3.0586,3.0618,3.0684,3.1146,3.1316,3.1313,3.1774,3.196,3.1864,3.1298,3.1008,3.079,2.9875,2.9415,2.9262,0.0,0.8776,0.8665,0.8412,0.8563,0.8718,0.8689,0.8683,0.8706,0.8794,0.8805,0.884,0.8925,0.8936,0.8931,0.892,1.0195,1.1602,1.3027,1.4716,1.6904,1.9659,2.0168,2.1091,2.2551,2.2508,2.2548,2.2756,2.2756,2.2825,2.2957,2.3193,2.3336,2.3401,2.3324,2.336,2.3448,2.3307,2.3319,2.3407,2.3176,2.3086,2.3056,2.2663,2.1904,2.1138,2.153,2.1174,0.0,0.0,1.9881,1.9783,1.9291,1.8637,1.8004,1.7781,1.8321,1.9219,2.0395,0.0,0.0,2.1442,2.2198,2.274,2.274,2.258,2.2598,2.3182,2.3318,2.3318,2.3318,2.3439,2.3477,2.3324,2.3606,2.375,2.3484,2.3808,2.4031,2.3929,2.4002,2.4319,2.5004,2.6042,2.7154,2.8327,2.8958,2.9471,2.9869,2.9916,2.9984,3.0122,3.0129,3.0177,3.0259,3.0325,3.0348,3.0348,3.0423,3.0477,3.0463,3.0521,3.0706,3.1012,3.1688,3.2081,3.2305,3.2907,3.3135,3.3026,3.2364,3.2109,3.1971,3.0974,3.0164,2.957,0.0,0.0,0.854,0.8341,0.8415,0.8488,0.8422,0.8409,0.8499,0.8757,0.8809,0.8809,0.8815,0.8815,0.8775,0.8711,1.0112,1.1321,1.2079,1.4315,1.6319,1.7923,1.8722,1.975,2.1046,2.1066,2.1417,2.2139,2.2139,2.2364,2.2803,2.2816,2.2932,2.3089,2.2919,2.3008,2.3289,2.2819,2.2857,2.3194,2.2915,2.281,2.2723,2.2004,2.083,1.9562,1.9601,0.0,1.8263,1.6756,1.6255,1.6255,1.6238,1.6203,0.0,1.786,1.9299,2.0331,0.0,0.0,2.1703,2.1925,2.2387,2.28,2.28,2.2788,2.2788,2.2822,2.2822,2.2822,2.2822,2.2835,2.2835,2.2822,2.3424,2.365,2.2927,2.3506,2.3737,2.3035,2.3056,2.314,0.0,2.4784,2.6493,2.8091,2.8222,2.8596,2.9381,2.9418,2.9514,2.9707,2.9707,2.9769,2.9913,3.0107,3.0215,3.0202,3.0342,3.0407,3.0407,3.0413,3.0868,3.1686,3.1847,3.2375,3.3161,3.326,3.3294,3.3277,3.3199,3.3111,3.3044,3.294,3.1746,3.0266,0.0,0.0,0.0,0.8453,0.8396,0.8367,0.8344,0.8415,0.8486,0.8523,0.8604,0.0,0.0,0.0,0.0,0.0,0.9521,1.0374,1.1129,1.2879,1.4545,1.6037,1.7384,1.8528,1.945,1.9939,2.0338,2.0572,2.111,2.1441,2.1623,2.2285,2.2632,2.2699,2.2619,2.2659,2.2764,2.2602,2.2598,2.2669,2.1909,2.1612,2.1564,2.1177,1.9782,1.8046,0.0,0.0,1.6653,1.614,1.5931,1.5904,1.5949,0.0,0.0,1.7879,1.8747,1.9449,2.1051,0.0,2.1608,2.2347,2.2673,2.281,2.281,2.2656,2.2525,2.2525,2.2525,2.2525,2.2525,2.2682,2.2746,2.2565,2.3296,2.3578,2.2655,2.3763,2.4215,2.2992,2.3306,0.0,0.0,0.0,0.0,2.6724,2.7477,2.8307,2.9289,2.9336,2.9387,2.9495,2.9495,2.9523,2.9561,2.9767,2.9878,2.9878,3.0085,3.0228,3.0298,3.0911,3.1388,3.1769,3.2928,3.3634,3.405,3.4646,3.4942,3.4977,3.437,3.4121,3.4093,3.4023,3.3231,3.2123,0.0,0.0,0.0,0.0,0.0,0.0,0.0,0.0,0.0,0.0,0.0,0.0,0.0,0.0,0.0,0.0,0.0,0.9771,1.0164,1.1644,1.3034,1.4243,1.5297,1.6425,1.7646,1.7889,1.8372,1.9121,1.9634,2.0107,2.0498,2.1164,2.1492,2.1559,2.1549,2.1576,2.1625,2.1522,2.1495,2.1441,2.0481,2.0044,1.991,1.9223,1.7875,0.0,1.6028,1.5358,1.4632,1.4751,1.4928,1.5083,1.5133,1.5718,1.6551,1.7551,1.8421,1.9443,2.123,2.1322,2.1137,2.2136,2.2252,2.2124,2.2124,2.1912,2.1643,2.1423,2.1356,2.1333,2.1239,2.1363,2.1542,2.1766,2.2773,2.3326,2.268,2.4018,2.4613,2.3408,2.3696,2.3813,0.0,0.0,0.0,2.5749,2.6784,2.7827,2.8817,2.8982,2.9093,2.9222,2.9214,2.9246,2.9279,2.9465,2.9608,2.9689,3.0079,3.0341,3.0487,3.1371,3.2,3.2407,3.3608,3.4377,3.48,3.5392,3.5676,3.5717,3.5195,3.4997,3.4985,3.5,3.4642,3.4025,0.0,0.0,0.0,0.0,0.0,0.0,0.0,0.0,0.0,0.0,0.0,0.0,0.0,0.0,0.0,0.0,0.0,0.0,0.9253,1.0639,1.1795,1.2492,1.2575,1.3544,1.5567,1.5014,1.5683,1.7706,1.7751,1.834,1.9392,1.9442,1.9574,1.9748,1.9679,1.9773,1.9933,1.9601,1.9551,1.958,1.8653,1.8202,1.7912,1.6386,1.5311,1.4514,1.3741,1.2958,1.2343,1.27,0.0,0.0,0.0,0.0,1.7928,1.7104,1.8459,2.024,2.0459,2.0389,2.0451,2.1327,2.1213,2.0877,2.0877,2.0665,2.028,1.964,1.9468,1.9374,0.0,0.0,1.9471,2.0452,2.1882,2.2859,2.2844,2.4199,2.4896,0.0,0.0,0.0,0.0,0.0,0.0,2.5262,0.0,2.7161,2.8008,2.837,2.8619,2.8827,2.8839,2.8927,2.9042,2.9191,2.9434,2.9738,3.0327,3.0728,3.096,3.1796,3.2636,3.3497,3.3868,3.4523,3.5372,3.5432,3.5483,3.5507,3.5631,3.5682,3.5707,3.5858,3.5895,3.574,0.0,0.0,0.0,0.0,0.0,0.0,0.0,0.0,0.0,0.0,0.0,0.0,0.0,0.0,0.0,0.0,0.0,0.0,0.8336,0.9258,0.9875,1.0007,1.0968,1.195,1.2873,1.3273,1.3938,1.4921,1.5678,1.6241,1.6635,1.7287,1.7675,1.781,1.7847,1.7872,1.786,1.776,1.7764,1.7723,1.6971,1.6585,1.637,1.5951,1.488,1.3617,1.3956,0.0,0.0,0.0,0.0,0.0,0.0,1.6781,1.797,0.0,0.0,2.0172,2.0654,2.0751,2.0735,2.0781,2.0682,2.0598,2.0598,2.0157,1.9702,1.9546,1.9186,1.8725,0.0,0.0,0.0,1.954,2.1082,0.0,2.2245,2.3695,0.0,2.3665,0.0,2.4647,2.4115,2.4613,0.0,0.0,2.5934,2.6708,2.7522,2.7663,2.7751,2.7844,2.8102,2.8264,2.835,2.8791,2.9392,3.0153,3.0555,3.1024,3.1533,3.2589,3.3091,3.3165,3.3909,3.4499,3.4969,3.5034,3.5205,3.5438,3.5571,3.5635,3.565,3.5783,3.5827,3.5794,0.0,0.0,0.0,0.0,0.0,0.0,0.0,0.0,0.0,0.0,0.0,0.0,0.0,0.0,0.0,0.0,0.0,0.0,0.0,0.8296,0.872,0.9002,0.9396,1.0025,1.0922,1.1246,1.1753,1.2445,1.3281,1.3794,1.3992,1.4809,1.5224,1.5324,1.5743,1.5931,1.5964,1.5964,1.5964,0.0,0.0,1.4726,1.4538,1.4155,1.3389,1.259,0.0,0.0,0.0,0.0,0.0,1.6093,1.707,1.7959,1.8773,1.9515,0.0,2.0256,2.0586,2.0596,2.0461,2.0325,2.0172,1.9993,1.9737,1.9284,1.8684,1.7835,1.7426,0.0,1.6182,0.0,0.0,0.0,0.0,0.0,2.2151,2.3469,2.4269,0.0,2.4636,0.0,2.465,2.5013,2.5383,0.0,2.6162,2.6666,2.7142,2.7317,2.7424,2.7452,2.7634,2.8014,2.8592,2.9057,2.9783,3.0742,3.1199,3.1629,3.2072,3.3072,3.3466,3.3381,0.0,3.4379,3.4586,3.4717,3.4878,3.5062,3.5283,3.5372,3.5399,3.5563,3.5641,3.5683,0.0,0.0,0.0,0.0,0.0,0.0,0.0,0.0,0.0,0.0,0.8146,0.0,0.0,0.0,0.0,0.0,0.0,0.0,0.0,0.0,0.8042,0.8684,0.8041,0.8242,0.9483,0.9331,0.9614,1.0369,1.0911,1.1303,1.1579,1.224,1.255,1.2598,1.3375,1.377,1.3906,1.3989,1.4036,1.3989,1.3321,1.2965,1.2735,0.0,0.0,0.0,0.0,0.0,0.0,0.0,1.5876,1.6935,1.8143,1.9108,1.9782,1.9541,1.9878,2.0342,2.0275,2.0115,1.9935,1.9884,1.9672,1.9279,1.8678,1.8235,1.7432,1.566,0.0,1.4789,1.389,1.4861,1.6121,1.7117,0.0,2.0738,2.2068,2.3164,2.3951,2.4345,2.482,2.5173,2.5272,2.5351,2.5575,2.6061,2.6418,2.6674,2.679,2.7082,2.7272,2.7334,2.7332,2.7859,2.8944,2.9444,3.017,3.1151,3.1869,3.2333,3.2598,3.336,3.3716,3.3755,0.0,0.0,3.4242,3.4412,3.4529,3.4622,3.4926,3.5062,3.5105,3.5292,3.5399,3.5449,0.0,0.0,0.0,0.0,0.0,0.0,0.0,0.0,0.0,0.0,0.8296,0.8035,0.0,0.0,0.0,0.0,0.0,0.0,0.0,0.0,0.0,0.7734,0.7602,0.7824,0.8445,0.8423,0.8664,0.0,0.0,0.9624,0.9831,1.0079,1.0249,1.0356,1.0514,1.0616,1.0727,1.1287,1.1561,1.1636,1.205,1.2089,1.1911,0.0,0.0,0.0,0.0,0.0,0.0,0.0,1.6413,1.7633,1.8776,1.9514,1.9961,1.9911,1.9969,2.0008,1.9729,1.9621,1.953,1.9306,1.9213,1.9016,1.8404,1.7379,0.0,0.0,1.4513,1.3603,1.2876,1.4415,1.5855,1.6047,0.0,0.0,0.0,0.0,2.2593,0.0,0.0,0.0,0.0,0.0,0.0,0.0,0.0,2.5888,2.6311,2.6381,2.6555,2.689,2.6953,2.7213,2.7724,2.8608,2.9482,3.0323,3.1582,3.2469,3.301,3.3472,3.3615,3.3477,3.352,0.0,3.381,3.3899,3.4165,3.4531,3.4643,3.4793,3.4945,3.5105,3.5152,3.5173,0.0,0.0,0.0,0.0,0.0,0.0,0.0,0.8269,0.8463,0.9134,0.8985,0.8718,0.8454,0.8168,0.7942,0.0,0.0,0.0,0.0,0.0,0.0,0.0,0.7413,0.7497,0.772,0.0,0.0,0.0,0.0,0.0,0.0,0.0,0.0,0.0,0.0,0.0,0.0,0.0,0.0,0.0,0.0,0.0,0.0,0.0,0.0,0.0,0.0,0.0,0.0,0.0,1.5418,1.6777,1.896,1.9819,2.0005,2.0005,1.9884,1.969,1.9424,1.9328,1.9236,1.8993,1.9026,1.8767,1.7461,0.0,0.0,0.0,1.3336,1.2735,1.2094,1.3388,0.0,0.0,0.0,0.0,0.0,0.0,0.0,0.0,0.0,0.0,0.0,0.0,0.0,0.0,0.0,2.5406,2.615,2.6202,2.6292,2.6486,2.6724,2.7142,2.7715,2.8396,2.9207,3.0172,3.1227,3.1954,3.2384,3.3069,3.3327,3.3241,3.3349,0.0,3.3549,3.3689,3.3889,3.4099,3.4232,3.4405,3.4599,3.4733,3.4879,3.5006,0.0,0.0,0.0,0.0,0.0,0.0,0.0,0.8603,0.8906,0.952,0.9598,0.9441,0.9009,0.846,0.8027,0.0,0.0,0.0,0.0,0.0,0.0,0.0,0.0,0.0,0.0,0.0,0.0,0.0,0.0,0.0,0.0,0.0,0.0,0.0,0.0,0.0,0.0,0.0,0.0,0.0,0.0,0.0,0.0,0.0,0.0,0.0,0.0,0.0,0.0,0.0,1.409,1.5298,1.8036,1.9221,1.9599,1.9513,1.9426,1.931,1.9109,1.9011,1.8931,1.8779,1.8855,1.8465,1.6566,1.6032,0.0,0.0,1.2296,1.2062,1.1591,0.0,1.3425,0.0,1.537,0.0,0.0,0.0,0.0,0.0,0.0,0.0,0.0,0.0,0.0,0.0,0.0,0.0,2.599,2.615,2.6202,2.6202,2.6521,2.6962,2.7606,2.8147,2.8837,2.9674,3.0668,3.1306,3.1615,3.2523,3.2993,3.3055,3.3241,0.0,0.0,3.3563,3.3657,3.3712,3.3868,3.4061,3.4239,3.4199,3.4325,3.451,0.0,0.0,0.0,0.0,0.0,0.0,0.0,0.8295,0.8851,0.9511,0.9598,0.9579,0.953,0.8941,0.8291,0.0,0.0,0.0,0.0,0.0,0.0,0.0,0.0,0.0,0.0,0.0,0.0,0.0,0.0,0.0,0.0,0.0,0.0,0.0,0.0,0.0,0.0,0.0,0.0,0.0,0.0,0.0,0.0,0.0,0.0,0.0,0.0,0.0,0.0,0.0,0.0,1.3459,1.491,1.6749,1.8292,1.7923,0.0,0.0,1.862,1.8556,1.8556,1.8537,1.8537,1.8101,1.6329,0.0,0.0,1.278,1.196,1.1576,1.1504,1.2033,1.2891,0.0,0.0,1.6692,0.0,0.0,0.0,0.0,0.0,0.0,0.0,0.0,0.0,0.0,0.0,0.0,2.5521,2.5972,2.6202,2.6202,2.6239,2.629,2.6374,2.7312,2.7825,2.7945,2.9799,3.0838,3.1179,3.2067,3.262,3.2932,3.3055,0.0,0.0,3.3331,3.3534,3.3698,3.3726,3.3842,3.3956,3.3434,3.3235,3.3179,0.0,0.0,0.0,0.0,0.0,0.0,0.8308,0.8515,0.8883,0.952,0.9923,1.0001,0.9642,0.9366,0.8775,0.7699,0.0,0.0,0.0,0.0,0.0,0.0,0.0,0.0,0.0,0.0,0.0,0.0,0.0,0.0,0.0,0.0,0.0,0.0,0.0,0.0,0.0,0.0,0.0,0.0,0.0,0.0,0.0,0.0,0.0,0.0,0.0,0.0,0.0,0.0,0.0,0.0,1.2817,1.4178,0.0,0.0,1.7545,1.8106,1.8269,1.842,1.8478,1.8361,1.8145,1.7486,1.5661,0.0,1.3827,1.1992,1.1491,1.1376,1.1376,1.1635,1.2277,1.3555,1.418,1.5095,1.6764,0.0,0.0,0.0,0.0,0.0,0.0,0.0,0.0,0.0,0.0,0.0,2.4511,2.5291,2.5738,2.5793,2.6061,2.6202,2.6202,2.661,2.6869,2.7044,2.8268,2.9007,2.9332,3.0415,3.1243,3.1816,3.2139,0.0,0.0,3.3196,3.3331,3.352,3.352,3.3629,3.3737,3.3136,3.3003,3.3,0.0,0.0,0.0,0.0,0.0,0.8219,0.846,0.8615,0.8856,0.9282,0.9865,1.0073,0.9642,0.9424,0.8921,0.7975,0.7675,0.0,0.0,0.0,0.0,0.0,0.0,0.0,0.0,0.0,0.0,0.0,0.0,0.0,0.0,0.0,0.0,0.0,0.0,0.0,0.0,0.0,0.0,0.0,0.0,0.0,0.0,0.0,0.0,0.0,0.0,0.0,0.0,0.0,0.0,0.0,0.0,0.0,0.0,0.0,1.6592,1.7329,1.7741,1.8084,1.8301,1.8143,1.7758,1.6958,0.0,1.424,1.3305,1.1466,1.1192,1.125,1.1296,1.1376,1.1806,1.2916,1.341,1.4253,1.5966,1.7519,0.0,0.0,0.0,0.0,0.0,0.0,0.0,0.0,0.0,0.0,0.0,2.4446,2.5082,2.5446,2.5899,2.6132,2.6202,2.6132,2.6239,2.6485,2.717,2.7649,2.8015,2.9093,2.9986,3.0712,0.0,0.0,0.0,3.2343,3.2433,3.257,3.2614,3.2712,3.2771,3.2223,3.212,3.2177,0.0,0.0,0.0,0.0,0.0,0.0,0.8004,0.8407,0.8704,0.8704,0.9238,0.9598,0.9598,0.9002,0.8603,0.8589,0.799,0.0,0.0,0.0,0.0,0.0,0.0,0.0,0.0,0.0,0.7596,0.819,0.8064,0.0,0.0,0.0,0.0,0.0,0.0,0.0,0.0,0.0,0.0,0.0,0.0,0.0,0.0,0.0,0.0,0.0,0.0,0.0,0.0,0.0,0.0,0.0,0.0,0.0,0.0,0.0,1.5325,1.6504,1.6894,1.7454,1.7902,1.7902,1.7454,1.6563,1.4889,1.4041,1.3134,1.1454,1.1097,1.1132,1.1285,1.1307,1.1543,1.2286,1.3471,1.4732,1.6024,1.7882,0.0,0.0,0.0,0.0,0.0,0.0,0.0,0.0,0.0,0.0,0.0,2.3508,2.4225,2.5368,2.5735,2.5989,2.6202,2.6007,2.6007,2.6202,2.6763,2.7247,2.7736,2.846,2.9157,0.0,0.0,0.0,0.0,3.0535,3.0627,3.0641,3.0769,3.0826,3.076,3.0298,3.0203,3.0242,0.0,0.0,0.0,0.0,0.0,0.0,0.0,0.8188,0.8199,0.8154,0.8599,0.8915,0.8915,0.8734,0.8603,0.8603,0.799,0.0,0.0,0.0,0.0,0.0,0.0,0.0,0.0,0.0,0.8097,0.8204,0.8576,0.8859,0.0,0.0,0.0,0.0,0.0,0.0,0.0,0.0,0.0,0.0,0.0,0.0,0.0,0.0,0.0,0.0,0.0,0.0,0.0,0.0,0.0,0.0,0.0,0.0,0.0,1.217,1.3656,0.0,1.5118,1.5607,1.596,1.5552,1.5291,1.4805,1.345,1.2987,1.2457,1.1115,1.0897,1.0979,1.1015,1.1097,1.1698,1.3365,1.394,0.0,0.0,0.0,0.0,0.0,0.0,0.0,0.0,0.0,0.0,0.0,0.0,0.0,0.0,2.329,2.3758,2.4364,2.5017,2.5438,2.5645,2.568,2.5789,2.6005,2.6034,2.619,2.6483,2.6896,0.0,0.0,0.0,0.0,0.0,3.0096,3.03,3.0591,3.065,3.0722,3.0728,3.0163,3.0045,3.0051,0.0,0.0,0.0,0.0,0.0,0.0,0.0,0.8149,0.8033,0.7884,0.8146,0.8399,0.8583,0.8369,0.8325,0.858,0.799,0.0,0.0,0.0,0.0,0.0,0.0,0.0,0.0,0.7859,0.8262,0.8646,0.9232,0.963,0.9852,0.9746,0.9285,0.0,0.0,0.0,0.0,0.0,0.0,0.0,0.0,0.0,0.0,0.0,0.0,0.0,0.0,0.0,0.0,0.0,0.0,0.0,0.0,0.0,0.0,0.0,1.2224,1.3378,0.0,1.4395,1.4778,1.4382,1.4124,1.3703,1.2711,1.2319,1.1885,1.0896,1.0765,1.0837,1.0885,1.0968,1.1466,1.2803,1.3372,0.0,0.0,0.0,0.0,0.0,0.0,0.0,0.0,0.0,0.0,0.0,0.0,0.0,0.0,2.3098,2.3326,2.3508,2.4477,2.5091,2.5288,2.5416,2.5602,2.5789,2.5584,2.5584,2.5805,2.6045,0.0,0.0,0.0,0.0,0.0,2.8968,2.9171,2.9506,2.9582,2.9669,2.9697,2.939,2.9388,2.9509,0.0,0.0,0.0,0.0,0.0,0.0,0.0,0.8267,0.8133,0.7884,0.7884,0.8072,0.8505,0.7983,0.7851,0.8479,0.0,0.0,0.0,0.0,0.0,0.0,0.0,0.0,0.7605,0.7638,0.8228,0.9394,1.0034,1.063,1.1167,1.115,1.0437,0.9153,0.8586,0.0,0.0,0.0,0.0,0.0,0.0,0.0,0.0,0.0,0.0,0.0,0.0,0.0,0.0,0.0,0.0,0.0,0.0,0.0,0.0,0.0,0.0,0.0,0.0,1.3622,1.4097,1.4056,1.3662,1.3119,1.2508,1.1967,0.0,1.0815,1.0693,1.0743,1.0916,1.0954,1.1031,1.1314,0.0,0.0,0.0,0.0,0.0,0.0,0.0,0.0,0.0,0.0,0.0,0.0,0.0,0.0,0.0,2.2865,2.2865,2.2865,2.4063,2.4795,2.4993,2.5162,2.5336,2.5549,2.5355,2.5371,2.5578,2.5768,0.0,0.0,0.0,0.0,0.0,2.7357,2.7494,2.7701,2.7911,2.8,2.8028,2.815,2.8388,2.8657,0.0,0.0,0.0,0.0,0.0,0.0,0.0,0.0,0.0,0.0,0.8087,0.7943,0.8049,0.7782,0.767,0.0,0.0,0.0,0.0,0.0,0.0,0.0,0.0,0.0,0.7605,0.859,0.9196,0.9394,1.0965,1.1771,1.1881,1.2318,1.1603,0.9926,0.9796,0.8837,0.0,0.0,0.0,0.0,0.0,0.0,0.0,0.0,0.0,0.0,0.0,0.0,0.0,0.0,0.0,0.0,0.0,0.0,0.0,0.0,0.9993,1.0083,1.0523,0.0,1.2116,1.1668,1.179,1.1858,0.0,1.137,1.1424,1.0815,1.0693,1.084,1.134,1.1434,1.1951,0.0,0.0,0.0,0.0,0.0,0.0,0.0,0.0,0.0,0.0,0.0,0.0,0.0,0.0,0.0,0.0,2.2684,2.2684,2.2684,2.3355,2.3837,2.4032,2.4467,2.4786,2.4993,2.5045,2.5178,2.5371,2.5429,0.0,0.0,0.0,0.0,2.6809,2.7006,2.7246,2.7478,2.7686,2.7864,2.7996,2.8042,2.8164,2.8309,0.0,0.0,0.0,0.0,0.0,0.0,0.0,0.0,0.0,0.0,0.0,0.8099,0.7925,0.7797,0.0,0.0,0.0,0.0,0.0,0.0,0.0,0.0,0.0,0.7605,0.7605,0.8616,0.9266,0.9494,1.1091,1.1966,1.2154,1.248,1.1902,1.0562,0.9684,0.8575,0.0,0.0,0.0,0.0,0.0,0.0,0.0,0.0,0.0,0.0,0.7523,0.7973,0.0,0.8806,0.9519,1.022,0.0,0.0,0.0,0.0,0.9306,0.9306,0.9686,1.0606,1.1401,1.1168,1.1356,1.1505,1.1193,1.1152,1.1098,1.076,0.0,0.0,1.1492,0.0,0.0,0.0,0.0,0.0,0.0,0.0,0.0,0.0,0.0,0.0,0.0,0.0,0.0,0.0,0.0,0.0,0.0,2.2615,2.2615,2.2615,2.3038,2.3363,2.3565,2.4198,2.4544,2.4666,2.4886,2.5045,2.5178,2.5256,2.5429,0.0,0.0,0.0,2.6469,2.6624,2.6973,2.7419,2.7524,2.7689,2.7864,2.7864,2.7982,2.8095,0.0,0.0,0.0,0.0,0.0,0.0,0.0,0.0,0.0,0.0,0.0,0.0,0.0,0.0,0.0,0.0,0.0,0.0,0.0,0.0,0.0,0.0,0.0,0.7656,0.7742,0.831,0.8973,0.9744,1.1009,1.1872,1.2343,1.2543,1.208,1.1026,0.9074,0.791,0.0,0.0,0.0,0.0,0.0,0.0,0.0,0.0,0.0,0.0,0.0,0.0,0.0,0.8491,0.9133,0.9727,0.9573,0.0,0.0,0.0,0.0,0.0,0.9614,1.0496,1.1269,1.1426,1.1519,1.16,1.16,1.1207,0.0,0.0,0.0,0.0,0.0,1.1763,0.0,0.0,0.0,0.0,0.0,0.0,0.0,0.0,0.0,0.0,0.0,0.0,0.0,0.0,0.0,0.0,0.0,2.2343,2.2386,2.2463,2.2836,2.3135,2.3341,2.4073,2.4416,2.4436,2.4746,2.4946,2.5005,2.5178,2.5275,0.0,0.0,0.0,2.6242,2.6278,2.6691,2.7294,2.7373,2.7494,2.7657,2.7686,2.7821,2.7954,0.0,0.0,0.0,0.0,0.0,0.0,0.0,0.0,0.0,0.0,0.0,0.0,0.0,0.0,0.0,0.0,0.0,0.0,0.0,0.0,0.0,0.7605,0.7605,0.7866,0.8435,0.8551,0.9182,1.0357,1.1644,1.2512,1.2987,1.407,1.333,1.1026,0.9131,0.7989,0.7484,0.0,0.0,0.0,0.0,0.0,0.0,0.0,0.0,0.0,0.0,0.0,0.0,0.7518,0.8341,0.94,0.8543,0.0,0.0,0.0,0.0,0.0,0.9449,1.0372,1.0936,1.0851,1.122,1.16,1.16,1.1519,1.1614,0.0,0.0,0.0,0.0,1.351,0.0,0.0,0.0,0.0,0.0,0.0,0.0,0.0,0.0,0.0,0.0,0.0,0.0,0.0,0.0,0.0,0.0,0.0,2.1398,2.1898,2.2417,2.2828,2.3135,2.3775,2.4067,2.4088,2.4416,2.4742,2.5005,2.5025,2.5143,0.0,0.0,2.5584,2.5972,2.6207,2.6469,2.6775,2.7231,2.7419,2.7481,2.7627,2.7716,2.7745,0.0,0.0,0.0,0.0,0.0,0.0,0.0,0.0,0.0,0.0,0.0,0.0,0.0,0.0,0.0,0.0,0.0,0.0,0.0,0.0,0.0,0.8128,0.8143,0.8281,0.8595,0.9284,1.0038,1.0889,1.2148,1.3014,1.3488,1.3813,1.2578,1.0031,0.9246,0.8333,0.7396,0.7437,0.0,0.0,0.0,0.0,0.0,0.0,0.0,0.0,0.0,0.0,0.0,0.0,0.8238,0.9079,0.8551,0.0,0.0,0.0,0.0,0.0,0.8465,0.9493,1.0308,1.031,1.1159,1.2049,1.2298,1.2015,1.1951,0.0,0.0,0.0,0.0,0.0,0.0,0.0,0.0,0.0,0.0,0.0,0.0,0.0,0.0,0.0,0.0,0.0,0.0,0.0,0.0,0.0,0.0,0.0,2.0688,2.1296,2.1733,2.2161,2.2609,2.3216,2.3689,2.4003,2.4151,2.4416,2.4742,2.4742,2.4866,2.5139,0.0,2.5298,2.56,2.5715,2.6028,2.6469,2.6708,2.7005,2.7293,2.7272,2.7334,2.7413,0.0,0.0,0.0,0.0,0.0,0.0,0.0,0.0,0.0,0.0,0.0,0.0,0.0,0.0,0.0,0.0,0.0,0.0,0.0,0.0,0.7837,0.834,0.8522,0.874,0.9037,0.9976,1.0782,1.1428,1.2523,1.3318,1.3782,1.2939,1.1418,0.9387,0.9209,0.8451,0.73,0.7374,0.7367,0.0,0.0,0.0,0.0,0.0,0.0,0.0,0.0,0.0,0.0,0.0,0.0,0.0,0.0,0.0,0.0,0.8128,0.7614,0.7327,0.7981,0.8857,0.9702,1.0136,1.1162,1.2219,1.2802,1.2392,1.2225,0.0,0.0,0.0,0.0,0.0,0.0,0.0,0.0,0.0,0.0,0.0,0.0,0.0,0.0,0.0,0.0,0.0,0.0,0.0,0.0,0.0,0.0,0.0,2.0001,2.0584,2.0907,2.131,2.1789,2.2232,2.2922,2.3797,2.3839,2.403,2.4395,2.4457,2.46,2.4786,2.4926,2.5064,2.5182,2.5275,2.564,2.6154,2.626,2.6674,2.7181,2.6938,2.6971,2.7116,0.0,0.0,0.0,0.0,0.0,0.0,0.0,0.0,0.0,0.0,0.0,0.0,0.0,0.0,0.0,0.0,0.0,0.0,0.0,0.0,0.7619,0.767,0.8267,0.9153,1.0343,1.033,1.0908,1.2129,1.2657,1.3221,1.3753,1.1862,1.0599,0.9899,0.8841,0.7977,0.73,0.7374,0.7392,0.7384,0.0,0.0,0.0,0.0,0.0,0.0,0.0,0.0,0.0,0.0,0.0,0.0,0.0,0.0,0.8207,0.8472,0.8037,0.7713,0.8886,0.9084,0.928,1.0595,1.1145,1.1609,1.2516,1.2442,0.0,1.3941,0.0,0.0,0.0,0.0,0.0,0.0,0.0,0.0,0.0,0.0,0.0,0.0,0.0,0.0,0.0,0.0,0.0,0.0,0.0,0.0,0.0,0.0,0.0,1.9763,1.9993,2.0271,2.0621,2.0592,2.1463,2.3172,2.3355,2.3653,2.4046,2.4354,2.4354,2.4109,2.4726,2.4946,2.4855,2.5182,2.5432,2.5698,2.6136,2.6674,2.7165,2.6841,2.6791,2.6905,0.0,0.0,0.0,0.0,0.0,0.0,0.0,0.0,0.0,0.0,0.0,0.0,0.0,0.0,0.0,0.0,0.0,0.0,0.0,0.7605,0.7793,0.8201,0.8464,0.899,0.9806,1.091,1.1818,1.2509,1.3109,1.3108,1.2538,1.1521,1.0479,0.9405,0.8688,0.8184,0.7831,0.7484,0.751,0.7733,0.7335,0.0,0.0,0.0,0.0,0.0,0.0,0.0,0.0,0.0,0.7671,0.8173,0.8113,0.8412,0.8734,0.8435,0.794,0.7579,0.7953,0.8926,0.9868,0.9973,1.1278,0.0,0.0,1.2843,1.3268,1.48,1.5242,0.0,0.0,0.0,0.0,0.0,0.0,0.0,0.0,0.0,0.0,0.0,0.0,0.0,0.0,0.0,0.0,0.0,0.0,0.0,0.0,0.0,0.0,1.9125,1.9211,1.9482,1.9984,2.0107,2.0482,2.1187,2.1557,2.2188,2.3068,2.3194,2.3629,2.4333,2.458,2.4766,2.493,2.5064,2.522,2.5451,2.5848,2.6138,2.6298,2.6052,2.607,2.6229,0.0,0.0,0.0,0.0,0.0,0.0,0.0,0.0,0.0,0.0,0.0,0.0,0.0,0.0,0.0,0.0,0.0,0.0,0.7605,0.7605,0.7808,0.8267,0.846,0.8726,0.9057,1.0886,1.198,1.2194,1.2803,1.2651,1.178,1.1126,1.0317,0.9364,0.8851,0.8544,0.8374,0.7779,0.7704,0.7942,0.735,0.7099,0.0,0.0,0.0,0.0,0.0,0.0,0.0,0.0,0.7486,0.7927,0.7891,0.819,0.849,0.8269,0.8006,0.7791,0.782,0.8878,0.9994,1.0184,0.0,0.0,1.348,1.3548,1.391,1.5365,1.5834,0.0,0.0,0.0,0.0,0.0,0.0,0.0,0.0,0.0,0.0,0.0,0.0,0.0,0.0,0.0,0.0,0.0,0.0,0.0,0.0,0.0,0.0,0.0,1.8513,1.8717,1.913,1.9275,1.9368,1.9432,1.9747,2.061,2.1924,2.2111,2.2619,2.3406,2.3727,2.4071,2.4382,2.4461,2.476,2.5182,2.5513,2.5703,2.576,2.5535,2.5556,2.5705,0.0,0.0,0.0,0.0,0.0,0.0,0.0,0.0,0.0,0.0,0.0,0.0,0.0,0.0,0.0,0.0,0.0,0.0,0.7605,0.7605,0.7605,0.7605,0.8169,0.8427,0.8296,1.0119,1.1083,1.1097,1.1553,1.1794,1.1767,1.0551,0.9999,0.9971,0.9364,0.9021,0.886,0.8257,0.7996,0.7942,0.735,0.7099,0.0,0.0,0.0,0.0,0.0,0.0,0.0,0.0,0.7107,0.6744,0.8067,0.7849,0.7257,0.7981,0.8285,0.8485,0.8875,0.9002,0.9493,1.1492,0.0,0.0,1.4463,1.4553,1.4514,1.5572,1.591,1.6141,1.6616,0.0,0.0,0.0,0.0,0.0,0.0,0.0,0.0,0.0,0.0,0.0,0.0,0.0,0.0,0.0,0.0,0.0,0.0,0.0,0.0,0.0,1.7902,1.7902,1.7902,1.7902,1.8003,1.8202,1.8202,1.9069,2.0705,2.1254,2.1315,2.105,2.2056,2.2671,2.3016,2.3275,2.3935,2.4819,2.5146,2.5495,2.5742,2.5432,2.5381,2.5481,0.0,0.0,0.0,0.0,0.0,0.0,0.0,0.0,0.0,0.0,0.0,0.0,0.0,0.0,0.0,0.0,0.0,0.0,0.7605,0.7552,0.7545,0.7605,0.7716,0.7759,0.7665,0.859,0.9723,1.1097,1.1052,1.0856,1.051,0.964,0.9461,0.9829,0.9233,0.8941,0.886,0.8257,0.7996,0.7942,0.735,0.7099,0.0,0.0,0.0,0.0,0.0,0.0,0.0,0.0,0.0,0.0,0.7093,0.7557,0.7991,0.7506,0.7817,0.8279,0.8075,0.9158,0.0,1.084,0.0,0.0,0.0,1.4645,0.0,0.0,1.6238,1.6684,0.0,0.0,0.0,0.0,0.0,0.0,0.0,0.0,0.0,0.0,0.0,0.0,0.0,0.0,0.0,0.0,0.0,0.0,0.0,0.0,0.0,0.0,1.7902,1.7902,1.7902,1.7902,1.7922,1.7983,1.8123,1.8765,1.9793,2.0148,2.0622,2.1178,2.1615,2.1991,2.2315,2.2651,2.3026,2.3525,2.409,2.4376,2.4502,2.4932,2.5107,2.5166,0.0,0.0,0.0,0.0,0.0,0.0,0.0,0.0,0.0,0.0,0.0,0.0,0.0,0.0,0.0,0.0,0.0,0.0,0.0,0.753,0.7522,0.7605,0.7507,0.7536,0.7717,0.7986,0.8729,0.9944,1.0035,0.9979,0.9796,0.9435,0.953,1.0023,0.9754,0.9479,0.9222,0.8613,0.8366,0.8312,0.7702,0.7459,0.7459,0.0,0.0,0.0,0.0,0.0,0.0,0.0,0.0,0.0,0.6648,0.7091,0.7672,0.7299,0.781,0.857,0.89,0.9987,0.0,1.2242,1.3553,1.4719,1.529,0.0,0.0,0.0,0.0,0.0,0.0,0.0,0.0,0.0,0.0,0.0,0.0,0.0,0.0,0.0,0.0,0.0,0.0,0.0,0.0,0.0,0.0,0.0,0.0,0.0,0.0,0.0,1.7902,1.7902,1.7902,1.7902,1.7902,1.7902,1.8023,1.8342,1.8815,1.9145,1.9643,2.0278,2.0892,2.1289,2.1607,2.2235,2.2583,2.2763,2.3283,2.3496,2.3559,2.4005,2.4182,2.4182,0.0,0.0,0.0,0.0,0.0,0.0,0.0,0.0,0.0,0.0,0.0,0.0,0.0,0.0,0.0,0.0,0.0,0.0,0.0,0.0,0.7514,0.7597,0.7453,0.7619,0.8109,0.7986,0.7977,0.8101,0.8701,0.9155,0.9459,0.9642,0.9968,1.0437,1.0554,1.0286,0.9668,0.9073,0.8792,0.8698,0.8149,0.7906,0.7906,0.7906,0.0,0.0,0.0,0.0,0.0,0.0,0.0,0.0,0.6616,0.6628,0.6753,0.7241,0.8036,0.9059,1.048,1.104,0.0,1.4629,1.4883,0.0,1.6134,0.0,0.0,0.0,0.0,0.0,0.0,0.0,0.0,0.0,0.0,0.0,0.0,0.0,0.0,0.0,0.0,0.0,0.0,0.0,0.0,0.0,0.0,0.0,0.0,0.0,0.0,0.0,1.7882,1.7902,1.7902,1.7902,1.7902,0.0,1.7902,1.7902,1.7902,1.8301,1.86,1.8851,1.9965,2.0557,2.0845,2.1821,2.221,2.2248,2.259,2.2767,2.2819,2.2846,2.288,2.2898,0.0,0.0,0.0,0.0,0.0,0.0,0.0,0.0,0.0,0.0,0.0,0.0,0.0,0.0,0.0,0.0,0.0,0.0,0.0,0.0,0.7446,0.7514,0.7396,0.7371,0.7494,0.7359,0.7305,0.7338,0.7937,0.8511,0.9024,0.9079,0.9646,1.0619,1.0195,0.9654,0.9049,0.8447,0.7915,0.7475,0.7349,0.7265,0.7213,0.7213,0.7133,0.0,0.0,0.0,0.0,0.0,0.0,0.0,0.6608,0.6824,0.6993,0.6587,0.7359,0.8433,0.8932,1.0223,0.0,0.0,1.4436,1.512,1.5784,1.5942,0.0,0.0,0.0,0.0,0.0,0.0,0.0,0.0,0.0,0.0,0.0,0.0,0.0,0.0,0.0,0.0,0.0,0.0,0.0,0.0,0.0,0.0,0.0,0.0,0.0,1.774,1.7842,1.7902,1.7902,1.7902,1.7902,0.0,1.7902,1.7902,1.7902,1.8143,1.8464,1.8803,1.908,1.9422,1.9811,2.0052,2.0421,2.0872,2.1255,2.1703,2.2151,2.247,2.2713,2.2898,0.0,0.0,0.0,0.0,0.0,0.0,0.0,0.0,0.0,0.0,0.0,0.0,0.0,0.0,0.0,0.0,0.0,0.0,0.0,0.7421,0.7373,0.7404,0.734,0.7268,0.7206,0.7137,0.7099,0.7099,0.7418,0.7982,0.8778,0.9446,1.0201,1.0973,1.0455,0.9895,0.9276,0.8383,0.7825,0.7529,0.7498,0.7467,0.7423,0.7423,0.7255,0.6985,0.6911,0.0,0.0,0.0,0.0,0.0,0.0,0.0,0.6759,0.6698,0.7342,0.8251,0.913,0.0,0.0,1.3826,0.0,1.5557,1.602,1.6129,0.0,0.0,0.0,0.0,0.0,0.0,0.0,0.0,0.0,0.0,0.0,0.0,0.0,0.0,0.0,0.0,0.0,0.0,0.0,0.0,0.0,0.0,0.0,1.7584,1.7604,1.7604,1.774,1.7767,1.7713,1.7842,1.7862,1.7801,1.7862,1.7902,1.7902,1.8103,1.8307,1.8509,1.8606,1.9011,1.9584,1.9424,1.9714,2.0287,2.0588,2.0848,2.1085,2.1532,2.1762,2.1902,0.0,0.0,0.0,0.0,0.0,0.0,0.0,0.0,0.0,0.0,0.0,0.0,0.0,0.0,0.0,0.0,0.0,0.0,0.0,0.7365,0.7284,0.7268,0.7268,0.7214,0.7099,0.7099,0.7099,0.7099,0.7207,0.7789,0.8828,0.9895,1.0663,1.1163,1.0716,1.0207,0.9573,0.8462,0.7919,0.7825,0.7762,0.7744,0.7744,0.773,0.7419,0.6977,0.6977,0.6952,0.6916,0.6732,0.0,0.0,0.0,0.0,0.6388,0.6859,0.7325,0.8023,0.9475,0.0,1.2544,1.4596,1.5453,0.0,1.6293,0.0,0.0,0.0,0.0,0.0,0.0,0.0,0.0,0.0,0.0,0.0,0.0,0.0,0.0,0.0,0.0,0.0,0.0,0.0,0.0,0.0,0.0,0.0,1.7404,1.7461,1.7475,1.7475,1.7604,1.7625,1.7496,1.7713,1.7781,1.7679,1.7801,1.7882,1.7902,1.8063,1.8163,1.8222,1.838,1.8851,1.9457,1.924,1.946,1.996,2.0135,2.017,2.0187,2.0544,2.0712,2.0794,0.0,0.0,0.0,0.0,0.0,0.0,0.0,0.0,0.0,0.0,0.0,0.7552,0.7605,0.7492,0.0,0.0,0.0,0.0,0.7415,0.0,0.0,0.7137,0.7137,0.7115,0.7099,0.7099,0.7099,0.7099,0.7622,0.8476,0.9635,0.9306,0.9691,1.0665,1.01,0.9532,0.8982,0.823,0.7615,0.7135,0.7115,0.7119,0.7111,0.7059,0.699,0.6916,0.6916,0.6799,0.6651,0.6625,0.6491,0.0,0.0,0.0,0.0,0.619,0.6537,0.7123,0.0,0.0,1.3077,0.0,1.5442,1.581,0.0,0.0,0.0,0.0,0.0,0.0,0.0,0.0,0.0,0.0,0.0,0.0,0.0,0.0,0.0,0.0,0.0,0.0,0.0,0.0,0.0,0.0,0.0,0.0,1.7384,1.7404,1.7412,1.7412,1.7502,1.7516,1.7496,1.7537,1.7537,1.7529,1.7666,1.7781,1.7902,1.7922,1.8043,1.8202,1.8242,1.84,1.8659,1.8803,1.9035,1.9317,1.9291,1.9729,2.0342,2.0183,2.0392,2.0794,0.0,0.0,0.0,0.0,0.0,0.0,0.0,0.0,0.0,0.0,0.0,0.7492,0.7484,0.7469,0.0,0.0,0.0,0.0,0.7235,0.7201,0.0,0.7099,0.7099,0.7099,0.7099,0.7096,0.7101,0.7101,0.7217,0.8114,0.9734,0.9322,1.0194,1.2073,1.1133,1.0369,0.9704,0.8399,0.7517,0.6995,0.6954,0.7187,0.7506,0.7066,0.716,0.7461,0.7045,0.6849,0.6748,0.6642,0.6465,0.0,0.0,0.0,0.0,0.0,0.6241,0.698,0.8554,1.0408,1.2335,0.0,1.4879,1.5396,1.5956,0.0,0.0,0.0,0.0,0.0,0.0,0.0,0.0,0.0,0.0,0.0,0.0,0.0,0.0,0.0,0.0,0.0,0.0,0.0,0.0,0.0,0.0,1.7233,1.7274,1.7287,1.7287,1.7287,1.7378,1.7419,1.7344,1.7434,1.7496,1.7496,1.7645,1.772,1.7781,1.7862,1.7942,1.8023,1.8023,1.8228,1.8567,1.8606,1.8884,1.9266,1.9314,1.9603,2.003,2.0168,2.0375,2.0596,0.0,0.0,0.0,0.0,0.0,0.0,0.0,0.0,0.0,0.0,0.0,0.0,0.7399,0.0,0.0,0.0,0.0,0.0,0.7107,0.0,0.0,0.0,0.0,0.7096,0.7096,0.7077,0.7066,0.705,0.6861,0.7847,0.987,0.9576,1.0886,1.3409,1.2191,1.1109,1.0107,0.8791,0.793,0.7416,0.7243,0.7514,0.7991,0.7613,0.7833,0.8198,0.7407,0.7087,0.0,0.0,0.0,0.0,0.0,0.0,0.0,0.0,0.0,0.0,0.0,0.0,1.0962,1.2796,1.3776,1.455,0.0,0.0,0.0,0.0,0.0,0.0,0.0,0.0,0.0,0.0,0.0,0.0,0.0,0.0,0.0,0.0,0.0,0.0,0.0,0.0,0.0,0.0,0.0,1.7199,1.7199,1.7199,1.7199,1.7199,1.7308,1.7308,1.7199,1.7352,1.7447,1.7468,1.7577,1.7638,1.7699,1.7801,1.7862,1.7902,1.7902,1.8109,1.8417,1.8425,1.8688,1.9118,1.935,1.9566,1.9815,2.0168,2.0376,2.0512,0.0,0.0,0.0,0.0,0.0,0.0,0.0,0.0,0.0,0.0,0.0,0.0,0.7392,0.7349,0.73,0.73,0.0,0.0,0.0,0.0,0.0,0.0,0.0,0.0,0.7104,0.7044,0.6982,0.6916,0.6967,0.8141,1.036,1.0021,1.1304,1.3815,1.2598,1.1056,0.936,0.9398,0.9101,0.8562,0.8129,0.8002,0.8172,0.8832,0.9103,0.9022,0.8086,0.0,0.0,0.0,0.0,0.0,0.0,0.0,0.0,0.0,0.0,0.0,0.0,0.7973,0.0,1.0572,1.1953,0.0,0.0,0.0,0.0,0.0,0.0,0.0,0.0,0.0,0.0,0.0,0.0,0.0,0.0,0.0,0.0,0.0,0.0,0.0,0.0,0.0,0.0,0.0,0.0,1.7199,1.7199,1.7199,1.7199,1.7199,1.7199,1.7199,1.7199,1.722,1.7274,1.7404,1.7404,1.7528,1.7699,1.7699,1.7781,1.7902,1.7902,1.7922,1.7963,1.8143,1.8341,1.8581,1.9035,1.953,1.9988,2.0023,2.034,2.0745,0.0,0.0,0.0,0.0,0.0,0.0,0.0,0.0,0.0,0.0,0.0,0.0,0.0,0.726,0.7274,0.7185,0.7177,0.0,0.0,0.0,0.0,0.0,0.0,0.0,0.0,0.7033,0.6924,0.6773,0.6617,0.7392,0.899,0.8998,0.9626,1.0789,1.1468,1.1307,1.0456,0.9559,0.8978,0.0,0.8399,0.874,0.9375,0.9247,0.9514,0.9848,0.0,0.0,0.0,0.0,0.0,0.0,0.6445,0.6142,0.5802,0.5802,0.6013,0.0,0.0,0.0,0.0,1.0233,1.1427,0.0,0.0,0.0,0.0,0.0,0.0,0.0,0.0,0.0,0.0,0.0,0.0,0.0,0.0,0.0,0.0,0.0,0.0,0.0,0.0,0.0,0.0,0.0,0.0,0.0,1.7199,1.7199,1.7199,1.7199,1.7199,1.7199,1.7199,1.7199,1.722,1.7274,1.735,1.7446,1.7508,1.7638,1.772,1.7781,1.7862,1.7902,1.7922,1.8123,1.8347,1.8586,1.8702,1.918,1.978,1.9566,1.9927,2.0529,0.0,0.0,0.0,0.0,0.0,0.0,0.0,0.0,0.0,0.7182,0.0,0.0,0.0,0.0,0.7158,0.7082,0.7074,0.7053,0.7001,0.6993,0.0,0.0,0.0,0.0,0.0,0.6842,0.6689,0.6536,0.6383,0.6923,0.8099,0.8215,0.8646,0.9378,1.0214,1.0622,1.0622,0.0,0.0,0.8909,0.0,0.0,0.9942,1.0133,1.0445,0.0,0.0,0.0,0.0,0.0,0.0,0.0,0.0,0.6381,0.5802,0.5802,0.6135,0.0,0.6587,0.0,0.0,0.0,0.0,0.0,0.0,0.0,0.0,0.0,0.0,0.0,0.0,0.0,0.0,0.0,0.0,0.0,0.0,0.0,0.0,0.0,0.0,0.0,0.0,0.0,0.0,0.0,0.0,0.0,1.7199,1.7199,1.7199,1.7199,1.7199,1.7199,1.7199,1.7199,1.7199,1.7199,1.7295,1.735,1.7404,1.7549,1.7638,1.7699,1.7781,1.7862,1.7902,1.8043,1.8248,1.8475,1.8664,1.9049,1.9548,1.957,1.9927,2.041,0.0,0.0,0.0,0.0,0.0,0.0,0.0,0.0,0.6993,0.6993,0.0,0.0,0.0,0.0,0.0,0.702,0.702,0.702,0.6993,0.6993,0.0,0.0,0.0,0.0,0.6719,0.6457,0.629,0.621,0.6281,0.6832,0.7841,0.7799,0.8535,0.9881,0.8985,0.8946,0.9609,0.0,1.0491,0.9562,0.0,0.9904,0.9855,0.0,0.0,0.0,1.1547,1.0944,0.0,0.9476,0.0,0.0,0.0,0.6457,0.5824,0.5802,0.6135,0.0,0.0,0.0,0.0,0.0,0.0,0.0,0.0,0.0,0.0,0.0,0.0,0.0,0.0,0.0,0.0,0.0,0.0,0.0,0.0,0.0,0.0,0.0,0.0,0.0,0.0,0.0,0.0,0.0,0.0,1.7199,1.7199,1.7199,1.7199,1.7199,1.7199,1.7199,1.7199,1.7199,1.7199,1.7199,1.7199,1.7274,1.7384,1.7404,1.7508,1.7699,1.7699,1.7781,1.7902,1.7902,1.8023,1.8248,1.8903,1.9169,1.9281,2.001,2.0323,2.041,0.0,0.0,0.0,0.0,0.0,0.6993,0.6993,0.6993,0.6993,0.0,0.0,0.0,0.704,0.7349,0.7588,0.7588,0.7588,0.7394,0.6959,0.6919,0.6919,0.6919,0.6874,0.6871,0.6917,0.6791,0.6681,0.6561,0.6526,0.6514,0.6539,0.6904,0.7324,0.7782,0.8299,0.8393,0.8181,0.8477,0.0,1.0223,0.9356,0.9923,0.0,0.0,0.0,0.0,0.0,1.2125,1.1588,0.0,1.0516,0.9192,0.0,0.0,0.6245,0.5892,0.6366,0.0,0.6024,0.0,0.0,0.0,0.0,0.0,0.0,0.0,0.0,0.0,0.0,0.0,0.0,0.0,0.0,0.0,0.0,0.0,0.0,0.0,0.0,0.0,0.0,0.0,0.0,0.0,0.0,0.0,1.7157,1.7199,1.7199,1.7199,1.7199,1.7199,1.7199,1.7199,1.7199,1.7199,1.7199,1.7199,1.7199,1.722,1.7253,1.735,1.7453,1.755,1.7659,1.7781,1.7902,1.7902,1.7922,1.8003,1.8195,1.8635,1.9207,1.9281,1.9841,2.061,0.0,0.0,0.0,0.7214,0.7275,0.7354,0.755,0.7607,0.7626,0.0,0.0,0.0,0.7664,0.8103,0.8328,0.8073,0.7864,0.7598,0.7218,0.7013,0.6908,0.6908,0.6824,0.6795,0.6833,0.6715,0.6565,0.6409,0.6457,0.6304,0.6009,0.6403,0.6612,0.6674,0.7211,0.7454,0.7412,0.7012,0.0,0.0,0.9619,0.0,0.0,1.2171,1.2616,0.0,0.0,0.0,1.2498,1.256,1.1529,0.0,0.0,0.0,0.0,0.0,0.7045,0.0,0.0,0.0,0.0,0.0,0.0,0.0,0.0,0.0,0.0,0.0,0.0,0.0,0.0,0.0,0.0,0.0,0.0,0.0,0.0,0.0,0.0,0.0,0.0,0.0,0.0,0.0,0.0,1.7094,1.7157,1.7199,1.7199,1.7199,1.7199,1.7199,1.7199,1.7199,1.7199,1.7199,1.7199,1.7199,1.7199,1.7199,1.7199,1.7274,1.7357,1.7461,1.7563,1.7686,1.7821,1.7882,1.7902,1.7922,1.8075,1.8397,1.8827,1.9192,1.9648,2.0135,0.0,0.0,0.7049,0.7524,0.7698,0.7943,0.8421,0.8489,0.8531,0.0,0.8673,0.8703,0.8786,0.9158,0.9172,0.8627,0.8074,0.7694,0.7586,0.7109,0.6828,0.6828,0.6681,0.659,0.6573,0.6413,0.6233,0.6025,0.6216,0.6198,0.5998,0.618,0.6251,0.6233,0.6063,0.6371,0.6996,0.6262,0.0,0.8126,1.0121,1.0927,0.0,0.0,1.3368,0.0,1.3942,1.3726,1.3065,1.3136,1.2046,0.0,0.0,0.0,0.0,0.0,0.798,0.0,0.76,0.7698,0.0,0.0,0.0,0.0,0.9596,0.937,0.0,0.0,0.0,0.0,0.0,0.0,0.0,0.0,0.0,0.0,0.0,0.0,0.0,0.0,0.0,0.0,0.0,1.7086,1.7178,1.7178,1.7199,1.7199,1.7199,1.7199,1.7199,1.7199,1.7199,1.7199,1.7199,1.7199,1.7199,1.7199,1.7199,1.7199,1.7199,1.7199,1.7274,1.7404,1.7447,1.7563,1.7699,1.7821,1.7882,1.7942,1.8279,1.8352,1.8352,1.938,1.9543,1.9427,0.0,0.7129,0.7473,0.7579,0.7967,0.8446,0.8963,0.8691,0.8752,0.9675,0.979,1.0008,1.0613,1.0246,0.9893,0.9778,0.8696,0.7853,0.747,0.6757,0.6359,0.6409,0.6526,0.653,0.6369,0.6474,0.6439,0.6242,0.6278,0.6198,0.5998,0.6034,0.6,0.5893,0.5856,0.593,0.6111,0.0,0.0,0.8356,0.889,0.0,1.2014,1.2769,1.3477,1.4122,1.4307,1.4253,1.4034,0.0,1.2968,1.2177,0.0,0.0,0.0,0.0,0.0,0.9043,0.848,0.0,0.0,0.0,0.0,0.0,0.0,0.7844,0.0,0.0,0.0,0.0,0.0,0.0,0.0,0.0,0.0,0.0,0.0,0.0,0.0,0.0,0.0,0.0,0.0,1.6981,1.7023,1.696,1.7115,1.7199,1.7199,1.7199,1.7199,1.7199,1.7199,1.7199,1.7199,1.7199,1.7199,1.7199,1.7199,1.7199,1.7199,1.7199,1.7274,1.7404,1.7412,1.7536,1.7699,1.772,1.7801,1.7902,1.8003,1.8195,1.8475,1.875,1.9247,1.9811,0.7145,0.7573,0.8047,0.8351,0.8618,0.9054,0.9831,0.9742,1.0021,1.1151,1.1357,1.125,1.0887,1.0699,1.0413,0.9951,0.901,0.818,0.7538,0.6869,0.643,0.6257,0.6343,0.6351,0.6254,0.6343,0.6319,0.615,0.6216,0.6168,0.5998,0.5998,0.6196,0.6526,0.5983,0.614,0.6793,0.0,0.7323,0.8247,0.947,0.0,1.2576,1.3205,1.38,1.428,1.414,1.4093,1.4029,1.3636,1.3521,0.0,0.0,1.1638,1.1611,0.0,1.0167,1.0536,0.0,0.0,0.0,0.969,0.0,0.0,0.0,0.0,0.0,0.0,0.0,0.0,0.0,0.0,0.0,0.0,0.0,0.0,0.0,0.0,0.0,0.0,0.0,0.0,0.0,1.609,1.6183,1.6163,1.6177,1.6347,1.6673,1.6699,1.6837,1.7186,1.7199,1.7199,1.7199,1.7199,1.7199,1.7199,1.7199,1.7199,1.7199,1.7199,1.7253,1.7308,1.737,1.7474,1.7604,1.7679,1.7781,1.7902,1.7902,1.8009,1.8234,1.8495,1.8907,1.9413,0.7417,0.789,0.8455,0.8934,0.9286,0.978,1.0636,1.0801,1.1186,1.2148,1.2596,1.2342,1.1081,1.1214,1.1088,1.0311,0.951,0.8722,0.8002,0.7268,0.6719,0.6368,0.6288,0.6239,0.6225,0.625,0.615,0.5924,0.607,0.6067,0.5916,0.5916,0.6352,0.7069,0.6294,0.6629,0.0,0.0,0.0,0.866,0.0,1.1703,1.2515,1.3524,1.3964,1.4057,1.3884,1.3844,1.3805,1.3652,0.0,1.4013,1.2818,1.3023,0.0,0.0,0.0,0.0,0.0,0.0,0.0,0.0,0.0,0.9522,0.0,0.0,0.0,0.9529,0.0,0.0,0.0,0.0,0.0,0.0,0.0,0.0,0.0,0.0,0.0,0.0,0.0,0.0,0.0,1.4878,1.5066,1.5336,1.5054,1.519,1.5996,1.6158,1.6491,1.7029,1.7146,1.7199,1.7199,1.7199,1.7199,1.7199,1.7199,1.7199,1.7199,1.7199,1.7199,1.7199,1.7308,1.7412,1.7488,1.7604,1.774,1.7862,1.7882,1.7902,1.7942,1.8333,1.8649,1.8993,0.6804,0.757,0.8324,0.8386,0.9579,1.0634,1.0928,1.0966,1.11,1.1394,1.2484,1.305,1.2579,1.2474,1.2385,1.2272,0.0,0.0,0.9223,0.0,0.7078,0.6919,0.6618,0.6415,0.6296,0.6411,0.6192,0.5652,0.5835,0.5835,0.5641,0.5641,0.5921,0.6425,0.6724,0.0,0.0,0.0,0.9124,0.0,1.0937,1.102,0.0,1.2914,1.356,1.3614,1.3871,1.3973,1.3962,0.0,1.4064,1.4095,0.0,1.351,1.3554,0.0,0.0,0.0,0.0,0.0,0.0,0.0,1.1721,0.0,0.0,0.0,0.9287,0.806,0.0,0.0,0.0,0.0,0.0,0.0,0.0,0.0,0.0,0.0,0.0,0.0,0.0,0.0,0.0,0.0,1.3882,1.5133,1.4226,1.4159,1.5426,1.6062,1.6415,1.648,1.695,1.7199,1.7199,1.7199,1.7199,1.7199,1.7199,1.7199,1.7199,1.7199,1.7199,1.7199,1.722,1.7295,1.7425,1.7488,1.7591,1.772,1.7842,1.7902,1.7902,1.7963,1.8475,1.9169,0.7078,0.7974,0.8705,0.8557,0.9353,1.0187,1.07,1.1768,1.2334,1.1872,1.2823,1.3373,0.0,0.0,0.0,0.0,0.0,1.039,0.0,0.0,0.8284,0.7718,0.73,0.6923,0.6599,0.6379,0.6028,0.5539,0.5623,0.5642,0.5594,0.5594,0.6117,0.7058,0.6971,0.0,0.914,0.0,0.9356,0.0,0.0,0.0,0.0,1.2806,1.355,1.3582,1.3724,1.3821,1.3849,0.0,1.3972,0.0,0.0,0.0,0.0,0.0,0.0,0.0,0.0,0.0,0.0,0.0,0.0,0.0,0.0,0.0,0.9527,0.0,0.0,0.0,0.0,0.0,0.0,0.0,0.0,0.0,0.0,0.0,0.0,0.0,0.0,0.0,0.0,0.0,0.0,0.0,0.0,1.2858,1.4275,1.4946,1.5639,1.6375,1.6611,1.6885,1.7199,1.7199,1.7199,1.7199,1.7199,1.7199,1.7199,1.7199,1.7199,1.7199,1.7199,1.7274,1.7404,1.7432,1.7502,1.7604,1.774,1.7821,1.7902,1.7902,1.8431,1.9147,0.7303,0.8124,0.8742,0.8571,0.9091,0.9862,1.0856,1.2267,1.3069,1.2655,0.0,0.0,1.3368,1.2808,0.0,0.0,1.2176,1.1318,0.0,0.0,0.9524,0.8963,0.8248,0.0,0.0,0.677,0.6202,0.567,0.5592,0.5621,0.5737,0.562,0.6223,0.7386,0.7298,0.8302,1.0061,0.0,0.0,1.0699,1.1276,1.1436,1.15,1.2922,1.353,1.3597,1.3597,1.3668,1.3687,1.3399,1.3873,0.0,1.3719,0.0,0.0,0.0,0.0,0.0,1.38,0.0,0.0,0.0,0.0,0.0,0.0,0.0,0.0,0.0,0.0,0.0,0.0,0.0,0.0,0.0,0.0,0.0,0.0,0.0,0.0,0.0,0.0,0.0,0.0,0.0,0.0,0.0,0.0,0.0,1.3284,1.3869,1.4756,1.6114,1.6218,1.6556,1.7186,1.7199,1.7199,1.7199,1.7199,1.7199,1.7199,1.7199,1.7199,1.7199,1.7199,1.7253,1.7363,1.7384,1.744,1.7516,1.7659,1.7781,1.7902,1.7902,1.8333,1.8936,0.7258,0.7645,0.0,0.8104,0.8941,1.0151,1.179,1.2162,1.258,0.0,0.0,0.0,0.0,0.0,0.0,0.0,0.0,1.2668,1.2245,0.0,1.0569,1.0797,0.9497,0.8782,0.0,0.0,0.6936,0.6085,0.5817,0.5828,0.6075,0.5681,0.5972,0.6862,0.7766,0.8658,0.9592,1.0477,1.1592,1.2782,1.24,1.2763,1.3465,0.0,1.3319,1.3597,1.3597,0.0,0.0,1.3752,1.38,0.0,0.0,0.0,0.0,0.0,0.0,0.0,0.0,0.0,0.0,1.2419,0.0,0.0,0.0,0.0,1.0982,0.0,0.0,0.0,0.0,0.0,0.0,0.8614,0.0,0.0,0.0,0.0,0.0,0.0,0.0,0.0,0.0,0.0,0.0,0.0,0.0,0.0,1.269,1.3094,1.3948,1.5487,1.5715,1.6266,1.7199,1.7199,1.7199,1.7199,1.7199,1.7199,1.7199,1.7199,1.7199,1.7199,1.7199,1.7199,1.722,1.7363,1.744,1.7516,1.7659,1.7781,1.7902,1.7902,1.8155,1.8519,0.0,0.0,0.0,0.0,0.0,0.9654,1.1022,1.1943,0.0,0.0,0.0,0.0,0.0,0.0,1.4404,0.0,0.0,1.3679,1.3065,1.2652,0.0,0.0,0.0,1.0358,0.0,0.0,0.7953,0.7026,0.6619,0.6473,0.655,0.6106,0.6386,0.7297,0.0,0.9036,0.0,0.0,0.0,0.0,0.0,1.2825,1.36,0.0,0.0,1.3597,1.3597,1.3597,0.0,1.3644,1.3716,1.3787,1.375,1.3868,1.3973,1.3892,1.4046,0.0,0.0,0.0,1.3988,1.3157,0.0,0.0,0.0,0.0,0.0,0.0,0.0,0.0,0.0,0.0,0.9958,0.9332,0.8481,0.0,0.0,0.0,0.0,0.0,0.0,0.0,0.0,0.0,0.0,0.0,0.0,0.0,0.0,1.2748,1.3593,1.4859,1.5361,1.5945,1.6663,1.7016,1.7199,1.7199,1.7199,1.7199,1.7199,1.7199,1.7199,1.7199,1.7199,1.7199,1.7199,1.7253,1.7282,1.7323,1.7488,1.7591,1.7652,1.7828,1.8155,1.8553,0.9135,0.0,0.0,0.0,0.0,0.0,0.0,0.0,0.0,0.0,1.3998,0.0,1.5189,0.0,1.4706,0.0,1.4789,1.4264,1.3687,1.3598,0.0,1.2727,1.2199,0.0,0.0,1.0,0.9029,0.8004,0.0,0.7214,0.7036,0.6571,0.6757,0.7524,0.0,0.9274,1.0695,0.0,1.2193,0.0,0.0,1.3093,0.0,0.0,1.3597,1.3597,0.0,1.3597,1.3597,1.3597,1.3668,1.3716,1.3621,1.3716,1.3844,1.3739,1.3787,1.3868,1.3915,1.3868,0.0,1.3278,1.2691,0.0,1.1355,0.0,0.0,0.0,0.0,0.0,0.0,0.0,0.0,0.9999,0.9012,0.0,0.0,0.0,0.0,0.0,0.0,0.0,0.0,0.0,0.8681,0.9365,0.0,0.0,0.0,0.0,1.2997,1.4271,1.4624,1.5306,1.6388,1.6593,1.6866,1.7199,1.7199,1.7199,1.7199,1.7199,1.7199,1.7199,1.7199,1.7199,1.7199,1.7199,1.7233,1.7274,1.7406,1.7522,1.7591,1.7821,1.8069,1.8358,0.0,0.0,0.0,0.0,0.9337,0.0,0.0,0.0,1.3531,0.0,1.4537,1.4697,1.5174,1.4817,1.4727,1.5184,1.4807,0.0,1.417,1.4033,0.0,0.0,1.2876,1.2443,1.2154,1.1216,0.0,0.0,0.0,0.0,0.7555,0.7069,0.709,0.7576,0.8491,0.0,1.0342,1.1716,1.2805,1.3597,1.3597,1.3597,1.3597,1.3597,1.3597,1.3597,1.3597,1.3597,1.3597,1.3597,1.3597,1.3597,1.3597,1.3597,1.3597,1.3597,1.3597,1.3621,1.3763,1.3787,1.36,1.2871,0.0,0.0,0.0,0.0,1.3106,0.0,0.0,0.0,0.0,0.0,0.0,1.0599,0.9657,0.8464,0.0,0.0,0.0,0.0,0.0,0.0,0.0,0.0,0.7406,0.9552,0.8689,0.0,0.0,0.0,1.2183,1.3709,1.3615,1.4443,1.6336,1.5997,1.6278,1.7199,1.7199,1.7199,1.7199,1.7199,1.7199,1.7199,1.7199,1.7199,1.7199,1.7199,1.7274,1.7384,1.7404,1.7528,1.772,1.7842,1.7902,1.8023,1.0015,0.9964,1.0038,0.0,1.0233,1.0666,0.0,0.0,0.0,0.0,1.4589,1.4869,1.5291,1.5242,1.5222,1.533,1.5232,0.0,0.0,0.0,0.0,1.4218,1.3786,1.3345,1.2926,1.1793,0.0,1.0246,0.0,0.0,0.8523,0.77,0.7566,0.0,0.0,0.0,1.0797,1.1851,1.2805,1.3597,1.3597,1.3597,0.0,0.0,1.3597,1.3597,1.3597,1.3597,1.3597,1.3597,1.3597,1.3597,1.3597,1.3597,1.3597,1.3597,1.3597,1.3621,1.3644,1.3644,1.37,1.3955,1.339,1.276,0.0,0.0,0.0,0.0,0.0,0.0,0.0,0.0,0.0,0.0,0.9433,0.0,0.0,0.0,0.0,0.0,0.0,0.0,0.0,0.0,0.8262,0.8447,0.0,0.0,0.0,0.0,0.0,1.3098,1.3656,1.4524,1.5722,1.5772,1.6278,1.7199,1.7199,1.7199,1.7199,1.7199,1.7199,1.7199,1.7199,1.7199,1.7199,1.7199,1.722,1.7253,1.735,1.7528,1.772,1.7842,1.7902,1.7922,1.0788,0.0,0.0,1.1424,0.0,0.0,1.2529,0.0,0.0,1.4132,1.4576,0.0,1.5107,1.5303,1.541,1.541,1.541,0.0,1.501,0.0,0.0,1.457,1.4446,1.4116,1.3599,1.2922,0.0,1.1081,0.0,0.0,0.8875,0.8149,0.7952,0.0,0.0,0.9805,0.0,1.2306,1.3144,1.3597,1.3597,0.0,0.0,1.3597,1.3597,1.3597,1.3597,1.3597,1.3597,1.3597,1.3597,1.3597,1.3597,1.3597,1.3597,1.3597,1.3597,1.3597,1.3597,1.3597,1.3729,1.4317,1.3959,1.3597,1.399,1.384,1.3478,0.0,0.0,0.0,0.0,0.0,0.0,0.0,0.0,0.0,0.0,0.0,0.0,0.0,0.0,0.0,0.0,0.0,0.0,0.0,0.0,0.0,0.0,0.0,0.0,1.2479,1.3094,1.4079,1.5487,1.5244,1.582,1.7199,1.7199,1.7199,1.7199,1.7199,1.7199,1.7199,1.7199,1.7199,1.7199,1.7199,1.7199,1.722,1.7363,1.7466,1.759,1.774,1.7842,1.7922,0.0,0.0,0.0,0.0,0.0,0.0,0.0,1.3486,0.0,1.4309,0.0,1.5039,1.5039,1.5371,1.5586,1.5586,0.0,1.54,1.515,1.5302,1.5192,1.474,1.4894,1.4732,1.4236,1.4053,0.0,0.0,0.0,1.0177,0.8979,0.845,0.0,0.0,0.0,0.0,0.0,1.2812,1.3535,0.0,1.3597,1.3597,1.3597,1.3597,1.3597,1.3597,1.3597,1.3597,1.3597,1.3597,1.3597,1.3597,1.3597,1.3597,1.3597,1.3597,1.3597,1.3597,1.3597,1.3597,1.3716,1.4186,1.4314,1.4414,1.49,1.4689,1.442,1.4485,1.3895,1.3443,0.0,0.0,0.0,0.0,0.0,0.0,0.0,0.0,0.0,0.0,0.0,0.0,0.0,0.0,0.0,0.0,0.0,0.0,0.0,0.0,0.0,1.1921,1.2242,0.0,1.5323,0.0,1.5203,1.7115,1.7178,1.7199,1.7199,1.7199,1.7199,1.7199,1.7199,1.7199,1.7199,1.7199,1.7199,1.722,1.7363,1.7404,1.7446,1.7618,1.7781,1.7963,0.0,0.0,0.0,0.0,0.0,1.4094,1.4404,1.4805,1.5234,1.5703,1.6113,1.6356,1.6356,1.6424,1.6473,1.6473,1.6162,0.0,0.0,0.0,0.0,1.5243,1.4988,1.4828,1.4845,1.3882,1.3108,0.0,1.1068,1.0004,0.9375,0.858,0.8201,0.0,0.0,0.0,1.2099,1.2762,0.0,1.3597,1.3597,1.3597,1.3597,1.3597,1.3597,1.3597,1.3597,1.3597,1.3597,1.3597,1.3597,1.3597,1.3597,1.3597,1.3597,1.3597,1.3597,1.3597,1.3597,1.3597,1.3621,1.3716,1.3729,1.3873,1.4391,1.4449,1.4517,1.4903,1.4856,1.4652,1.4314,0.0,0.0,0.0,0.0,0.0,0.0,0.0,0.0,0.0,0.0,0.0,0.0,0.0,0.0,0.0,0.0,0.0,0.0,0.0,0.0,0.0,0.0,0.0,0.0,0.0,1.5114,1.6629,1.701,1.7199,1.7199,1.7199,1.7199,1.7199,1.7199,1.7199,1.7199,1.7199,1.7199,1.722,1.7363,1.7419,1.7509,1.7659,1.7781,1.7902,0.0,0.0,0.0,0.0,0.0,0.0,0.0,1.6338,0.0,1.6153,1.6281,1.6387,1.6387,1.6592,1.6697,1.6697,1.6502,1.6406,1.6406,1.5996,1.5782,1.5871,1.5496,0.0,1.5202,1.4375,1.3699,1.322,1.1614,1.0495,0.985,0.8973,0.8564,0.8626,0.0,1.1239,0.0,0.0,0.0,1.3927,1.3714,1.3765,1.3952,1.369,1.3597,1.3597,1.3597,1.3597,1.3597,1.3597,1.3597,1.3597,1.3597,1.3597,1.3597,1.3597,1.3597,1.3597,1.3597,1.3597,1.3668,1.3952,1.4022,1.4163,1.4651,1.4766,1.4834,1.5062,1.5108,1.5059,1.4903,1.4067,0.0,0.0,0.0,0.0,0.0,0.0,0.0,0.0,0.0,0.0,0.0,0.0,0.0,0.0,0.0,0.0,0.0,0.0,0.0,0.0,0.0,0.0,0.0,0.0,0.0,1.6863,1.7094,1.7199,1.7199,1.7199,1.7199,1.7199,1.7199,1.7199,1.7199,1.7199,1.7199,1.7199,1.7274,1.7316,1.7352,1.7529,1.7645,1.7713,0.0,1.5553,0.0,0.0,1.5939,0.0,1.6701,1.7428,1.7646,1.6643,1.6506,1.6506,1.6506,1.6797,1.697,1.697,1.6892,1.6833,1.6833,1.6455,1.6262,1.6394,1.6009,1.5729,1.5586,1.5006,1.4368,0.0,1.2328,1.1215,1.0324,0.9543,0.0,0.0,0.0,0.0,0.0,0.0,1.3917,1.4417,1.4055,1.4128,1.4417,1.4045,1.391,1.391,1.391,1.391,1.3865,1.3772,1.3669,1.3597,1.3597,1.3597,1.3597,1.3597,1.3597,1.3597,1.3597,1.3692,1.3834,1.4163,1.4326,1.4512,1.4994,1.5108,1.5153,1.5356,1.5322,1.527,1.5346,1.463,0.0,0.0,0.0,0.0,0.0,0.0,0.0,0.0,0.0,0.0,0.0,0.0,0.0,0.0,0.0,0.0,0.8179,0.8874,0.0,0.0,0.0,1.2884,1.4454,0.0,1.5698,0.0,1.7157,1.7199,1.7199,1.7199,1.7199,1.7199,1.7199,1.7199,1.7199,1.7199,1.7199,1.7199,1.7199,1.722,1.7274,1.7447,1.7516,1.757,0.0,0.0,0.0,0.0,0.0,0.0,0.0,1.7428,1.7969,1.7842,1.7822,1.7822,1.7822,1.7871,1.7891,1.7891,1.7539,1.7324,1.7324,1.6914,1.6638,1.667,1.6271,1.6107,1.6218,1.5403,1.4647,0.0,0.0,1.1981,1.0809,1.0322,0.0,0.0,0.0,0.0,0.0,1.3508,1.4128,1.4925,1.4883,1.4894,1.4925,1.4883,1.4863,1.4863,1.4863,1.4863,1.48,1.4386,1.3962,1.3597,1.3597,1.3597,1.3597,1.3597,1.3597,1.3597,1.3597,1.3952,1.421,1.3787,1.4046,1.4512,1.4994,1.5108,1.5345,1.6185,1.6042,1.5685,1.5591,1.5343,1.4898,0.0,0.0,0.0,0.0,0.0,0.0,0.0,0.0,0.0,0.0,0.0,0.0,0.0,0.0,0.0,0.0,0.8051,0.8754,1.0264,0.0,1.2304,1.3073,1.4834,0.0,1.6565,1.701,1.7199,1.7199,1.7199,1.7199,1.7199,1.7199,1.7199,1.7199,1.7199,1.7199,1.7199,1.7199,1.7274,1.7391,1.7468,1.757,1.7699,0.0,0.0,0.0,0.0,0.0,0.0,0.0,1.813,1.8256,1.8047,1.8008,1.8008,1.8008,1.8008,1.8008,1.8008,1.7852,1.7764,1.7764,1.7363,1.7119,1.7119,1.6699,1.64,1.6286,1.5595,1.5069,0.0,0.0,0.0,0.0,0.0,0.0,0.0,0.0,1.3225,1.3971,1.4299,1.4821,1.539,1.5111,1.5163,1.538,1.5101,1.4997,1.4997,1.4997,1.4997,1.4966,1.478,1.4417,1.3983,1.3679,1.3597,1.3597,1.3597,1.3597,1.3597,1.3597,1.3763,1.3952,1.4046,1.4233,1.4512,1.4994,1.5322,1.5623,1.5998,1.5998,1.6003,1.6325,1.5839,1.5496,0.0,0.0,0.0,0.0,0.0,0.0,0.0,0.0,0.0,0.0,0.0,0.0,0.0,0.0,0.0,0.0,0.7806,0.0,0.9501,0.0,1.2763,1.3302,1.5219,1.6427,1.6926,1.7115,1.7199,1.7199,1.7199,1.7199,1.7199,1.7199,1.7199,1.7199,1.7199,1.7199,1.7199,1.7199,1.722,1.7295,1.7399,1.7502,1.7604,1.9985,0.0,1.9759,0.0,1.9552,1.9585,1.9534,1.9505,1.9403,1.9123,1.9093,1.8821,1.8071,1.8008,1.8008,1.8008,1.8008,1.8008,1.8008,1.7734,1.7568,1.7568,1.7333,0.0,1.6909,1.6377,1.5965,1.5655,1.4821,0.0,0.0,0.0,0.0,0.0,1.3994,1.4347,1.4625,1.5033,1.5473,1.5894,1.5535,1.5597,1.5856,1.5535,1.5401,1.5401,1.5401,1.5401,1.538,1.5245,1.4987,1.4635,1.4169,1.3931,1.3817,1.3817,1.37,1.3597,1.3597,1.3716,1.3928,1.4303,1.4489,1.4743,1.521,1.5557,1.5854,1.602,1.612,1.6293,1.6812,1.6216,1.589,1.6643,0.0,0.0,0.0,0.0,0.0,0.0,0.0,1.0892,0.0,0.0,0.0,0.0,0.0,0.0,0.0,0.0,0.0,0.0,0.0,0.0,0.0,1.5769,1.682,1.7199,1.7199,1.7199,1.7199,1.7199,1.7199,1.7199,1.7199,1.7199,1.7199,1.7199,1.7199,1.7199,1.7199,1.7199,1.722,1.7357,1.7461,1.7516,2.1908,2.187,2.182,2.167,2.1655,2.1655,2.1655,2.1655,2.1655,2.1655,2.1655,2.0732,1.8266,1.8008,1.8008,1.8008,1.8008,1.8008,1.8008,1.8008,1.8008,0.0,0.0,1.8371,1.8361,1.7989,1.7393,1.6691,0.0,0.0,1.4694,0.0,1.522,1.4616,1.5347,1.5532,1.532,1.5588,1.5977,1.6402,1.6392,1.6392,1.6402,1.6392,1.6392,1.6392,1.6392,1.6392,1.6319,1.5863,1.568,1.5587,1.5132,1.4666,1.4304,1.4304,1.3948,1.3597,1.3597,1.3999,1.4384,1.4396,1.4743,1.521,1.5678,1.581,1.5976,1.6568,1.6599,1.6586,1.6854,1.6402,1.6034,1.6193,0.0,0.0,0.0,0.0,0.0,0.0,1.1345,1.0738,1.0339,0.0,0.0,0.0,0.0,0.0,0.0,0.0,0.0,1.1507,1.3264,0.0,1.507,1.6477,1.7186,1.7199,1.7199,1.7199,1.7199,1.7199,1.7199,1.7199,1.7199,1.7199,1.7199,1.7199,1.7199,1.7199,1.7199,1.7199,1.722,1.7413,1.7496,1.7537,2.2749,2.2664,2.2648,2.2586,2.2571,2.2498,2.2169,2.2114,2.1993,2.1744,2.17,2.1407,2.0621,2.053,2.0358,0.0,1.9984,1.9813,0.0,1.9419,1.922,1.8687,1.8777,1.8714,1.8521,1.8322,1.8237,1.8284,0.0,0.0,0.0,1.6639,1.6465,1.6589,1.6979,1.7054,1.6955,1.7283,1.7347,1.7289,1.7201,1.7019,1.68,1.68,1.6643,1.6413,1.6413,1.6413,1.6381,1.6236,1.6184,1.6164,1.6008,1.5401,1.478,1.478,1.4449,1.4086,1.4086,1.3979,1.4012,1.472,1.4994,1.53,1.6098,1.6272,1.6358,1.6633,1.6675,1.6684,1.6854,1.6778,1.6672,1.6674,1.6494,0.0,0.0,0.0,0.0,0.0,0.0,1.2109,0.0,1.0804,0.0,0.0,0.0,0.0,0.0,0.0,0.0,0.0,1.322,0.0,1.5101,1.649,1.7199,1.7199,1.7199,1.7199,1.7199,1.7199,1.7199,1.7199,1.7199,1.7199,1.7199,1.7199,1.7199,1.7199,1.7199,1.7199,1.722,1.7282,1.7372,1.7516,2.3938,2.3877,2.3877,2.3877,2.3877,2.3763,2.3481,2.3436,2.3333,2.3096,2.305,2.305,2.305,2.305,0.0,2.1315,2.1181,2.106,2.072,2.05,2.0204,1.9728,1.9757,1.9717,1.9542,0.0,0.0,1.9565,1.9448,1.926,1.9006,1.8604,1.8324,1.8148,1.8594,1.8481,1.8003,1.8284,1.8281,1.8032,1.7656,1.74,1.7275,1.7204,1.7069,1.687,1.6694,1.6632,1.663,1.6662,1.6694,1.674,1.6965,1.6475,1.5748,1.5377,1.4925,1.4562,1.4562,1.4221,1.4062,1.4871,1.5085,1.5356,1.6306,1.65,1.6522,1.6599,1.662,1.6641,1.6727,1.6833,1.6854,1.6825,1.6537,1.6068,1.5401,0.0,0.0,0.0,0.0,0.0,0.0,1.225,0.0,0.0,0.0,0.0,0.0,0.0,0.0,1.2029,1.4145,0.0,1.5865,1.6751,1.7199,1.7199,1.7199,1.7199,1.7199,1.7199,1.7199,1.7199,1.7199,1.7199,1.7199,1.7199,1.7199,1.7199,1.7199,1.7199,1.7199,1.7253,1.7357,1.7468,2.5312,2.5312,0.0,0.0,2.5312,0.0,2.5312,2.5312,2.5312,2.5312,2.5312,2.5312,2.5312,2.5312,2.4413,2.2155,0.0,0.0,0.0,2.1384,2.1073,2.1029,2.1156,2.1215,2.1181,2.054,2.037,2.0611,2.0203,2.0088,2.0293,2.0814,2.0432,1.9339,2.0135,1.9819,1.8676,1.878,1.8811,1.8728,1.7967,1.774,1.7802,1.773,1.7719,1.7698,1.7273,1.7088,1.7075,1.718,1.7194,1.7284,1.7904,1.7678,1.7014,1.6094,1.5465,1.5075,1.5091,1.4759,1.452,1.4985,1.516,1.5434,1.6293,1.65,1.65,1.65,1.65,1.65,1.6522,1.662,1.6697,1.6697,1.6396,1.5938,1.5369,0.0,0.0,0.0,0.0,0.0,0.0,1.3722,1.4206,0.0,0.0,0.0,0.0,0.0,1.2832,1.4546,1.5761,1.665,1.7186,1.7199,1.7199,1.7199,1.7199,1.7199,1.7199,1.7199,1.7199,1.7199,1.7199,1.7199,1.7199,1.7199,1.7199,1.7199,1.7199,1.7199,1.7233,1.7329,1.7384,1.7425,0.0,0.0,2.5312,2.5312,2.5312,2.5312,2.5312,2.5312,2.5312,2.5312,2.5312,2.5312,2.5312,2.5312,2.5063,2.4484,2.4071,2.3682,2.3339,2.3197,2.2848,2.232,2.2307,2.2199,2.1948,2.1632,2.1597,2.1808,2.116,2.0935,2.1109,2.0845,2.0597,2.0454,2.1205,2.1146,2.0461,2.025,1.9999,1.9747,1.9382,1.9169,1.9056,1.9541,1.9185,1.8462,1.8343,1.7959,1.7554,1.7581,1.734,1.7153,1.777,1.7581,1.7152,1.6905,1.6214,1.5623,1.6042,1.5845,1.5617,1.609,1.6185,1.6228,1.6457,1.65,1.65,1.65,1.65,1.6522,1.662,1.6675,1.6718,1.6846,1.6096,1.5447,1.5242,1.4868,0.0,0.0,1.4706,1.4977,1.4703,1.5042,1.4904,0.0,0.0,0.0,0.0,1.4365,1.4615,1.4598,1.5761,1.665,1.7186,1.7199,1.7199,1.7199,1.7199,1.7199,1.7199,1.7199,1.7199,1.7199,1.7199,1.7199,1.7199,1.7199,1.7199,1.7199,1.7199,1.7253,1.7329,1.7274,1.7344,1.7488,2.5673,2.548,2.5312,2.5312,2.5312,2.5312,2.5312,2.5312,2.5312,2.5312,2.5312,2.5312,2.5312,2.5312,2.5312,2.5312,2.5047,2.4759,2.4494,2.4254,2.3929,2.3532,2.332,2.3107,2.2923,2.2503,2.2248,2.2218,2.1957,2.187,2.1994,2.172,2.1473,2.1327,2.2043,2.2063,2.154,2.1369,2.1014,2.0515,1.9987,1.9587,1.9329,1.9925,1.9791,1.9339,1.9446,1.9227,1.8929,1.9002,1.8866,1.869,1.8993,1.8765,1.8326,1.8019,1.7407,1.6869,1.7156,1.6905,1.6641,1.6943,1.6788,1.6621,1.6867,1.671,1.65,1.65,1.65,1.6522,1.6599,1.6654,1.6608,1.6384,1.5999,1.5589,1.5248,1.504,0.0,1.4956,1.5464,1.5749,1.5513,1.597,1.586,1.4879,0.0,0.0,1.4822,1.5737,1.6009,1.5434,1.6297,1.6911,1.7199,1.7199,1.7199,1.7199,1.7199,1.7199,1.7199,1.7199,1.7199,1.7199,1.7199,1.7199,1.7199,1.7199,1.7199,1.7199,1.7199,1.7274,1.7384,1.7329,1.7357,1.7461,2.6226,2.5865,2.5552,2.5552,2.5552,2.5552,2.5552,2.5552,2.5552,2.5552,2.5552,2.5552,2.5552,2.548,2.5432,2.5432,2.536,2.5312,2.5312,2.4856,2.4604,2.4604,2.423,2.3998,2.3914,2.3238,2.2734,2.2435,2.2756,2.2923,2.2923,2.288,2.2622,2.2258,2.272,2.2671,2.2237,2.2132,2.1772,2.1187,2.0452,1.9901,1.9616,2.0117,2.0344,2.0417,2.0599,2.0603,2.0534,2.0647,2.062,2.0589,2.0625,2.0293,1.9809,1.9252,1.8802,1.8441,1.8278,1.7938,1.7655,1.7702,1.7217,1.6848,1.7307,1.6936,1.65,1.65,1.65,1.65,1.65,1.6599,1.6464,1.5834,1.5969,1.5917,1.5287,0.0,1.5478,1.5579,1.6049,1.6185,1.58,1.6637,1.6794,1.5826,1.665,1.6781,0.0,1.6663,1.699,1.6532,1.6963,1.7199,1.7199,1.7199,1.7199,1.7199,1.7199,1.7199,1.7199,1.7199,1.7199,1.7199,1.7199,1.7199,1.7199,1.7199,1.7199,1.7199,1.7199,1.7295,1.7412,1.7404,1.7404,1.7412,2.6765,2.6705,2.6645,2.6645,2.6645,2.6645,2.6645,2.6645,2.6645,2.6645,2.6645,2.6645,2.6645,2.6262,2.5973,2.5973,2.5564,2.5312,2.5312,2.5228,2.518,2.518,2.5119,2.4855,2.441,2.3877,2.358,2.3541,2.372,2.388,2.403,2.3689,2.3604,2.3654,2.326,2.3005,2.2914,2.2329,2.2051,2.1916,2.1791,2.1698,2.1698,2.2341,2.2249,2.1779,2.182,2.1467,2.0997,2.1011,2.0761,2.0512,2.1021,2.0856,2.0463,2.0424,2.0347,2.0106,1.9134,1.8809,1.8747,1.8759,1.8034,1.7307,1.7375,1.6936,1.65,1.65,1.65,1.65,1.65,1.6522,1.6388,1.5929,1.5868,1.5713,1.5267,0.0,1.6061,1.6081,1.6667,1.7008,1.6937,1.7094,1.7133,1.695,1.7094,1.712,1.695,1.7094,1.716,1.7081,1.716,1.7199,1.7199,1.7199,1.7199,1.7199,1.7199,1.7199,1.7199,1.7199,1.7199,1.7199,1.7199,1.7199,1.7199,1.7199,1.7199,1.7199,1.7199,1.7323,1.7488,1.7412,1.7432,1.7488,2.7318,2.6934,2.6707,2.6861,2.7042,2.7102,2.6922,2.6898,2.6898,2.6898,2.6898,2.6898,2.6898,2.6669,2.655,2.655,2.6045,2.5733,2.5733,2.5468,2.5312,2.5312,2.5312,2.5192,2.4951,2.4548,2.4283,2.4181,2.4059,2.4025,2.4025,2.39,2.3971,2.4144,2.3978,2.3948,2.401,2.3684,2.3342,2.3011,2.3011,2.2595,2.2067,2.2778,2.2658,2.2144,2.2525,2.2433,2.2199,2.2199,2.203,2.1856,2.1753,2.1618,2.1445,2.1113,2.0645,2.0085,1.9574,1.943,1.9447,1.9447,1.8832,1.8191,1.789,1.7388,1.6898,1.6563,1.65,1.65,1.65,1.65,1.6333,1.5855,1.606,0.0,0.0,1.6153,1.6594,1.6636,1.6897,1.7115,1.7199,1.7199,1.7199,1.7199,1.7199,1.7199,1.7199,1.7199,1.7199,1.7199,1.7199,1.7199,1.7199,1.7199,1.7199,1.7199,1.7199,1.7199,1.7199,1.7199,1.7199,1.7199,1.7199,1.7199,1.7199,1.7199,1.7253,1.7308,1.7233,1.7323,1.7475,1.7412,1.744,1.7496,2.7909,2.7356,2.6983,2.721,2.7462,2.7584,2.7294,2.7258,2.7258,2.7258,2.7258,2.7258,2.7258,2.715,2.7078,2.7078,2.661,2.6298,2.6298,2.5913,2.5576,2.5312,2.5312,2.5312,2.5312,2.5054,2.4848,2.4699,2.4483,2.4323,2.4234,2.4235,2.434,2.4484,2.4558,2.4626,2.4711,2.4788,2.4516,2.4034,2.4034,2.346,2.2654,2.3208,2.304,2.2616,2.3113,2.3221,2.3108,2.3108,2.3108,2.3005,2.2494,2.2406,2.2355,2.1724,2.089,2.0137,1.9874,1.9798,1.9798,1.9798,1.9384,1.8895,1.8469,1.7865,1.7272,1.681,1.6588,1.65,1.65,1.65,1.6312,1.5781,0.0,0.0,0.0,1.6446,1.6876,1.696,1.6981,1.7044,1.7136,1.7178,1.7199,1.7199,1.7199,1.7199,1.7199,1.7199,1.7199,1.7199,1.7199,1.7199,1.7199,1.7199,1.7199,1.7199,1.7199,1.7199,1.7199,1.7199,1.7199,1.7199,1.7199,1.7199,1.7199,1.7199,1.7253,1.7363,1.7274,1.7344,1.7468,1.7432,1.7461,1.7496,2.845,2.8402,2.8366,2.839,2.8414,2.8426,2.8402,2.839,2.839,2.839,2.839,2.839,2.839,2.7957,2.763,2.763,2.7138,2.6837,2.6837,2.6789,2.6321,2.5348,2.5312,2.5312,2.5312,2.5276,2.5252,2.5252,2.5391,2.5496,2.5449,2.5169,2.505,2.5025,2.4674,2.4504,2.4536,2.4711,2.4755,2.4723,2.4723,2.4653,2.4584,2.4661,2.431,2.3866,2.391,2.3559,2.3108,2.3108,2.3108,2.3078,2.3035,2.304,2.2945,2.2401,2.1829,2.1129,2.0087,1.9798,1.9798,1.9798,1.9384,1.8995,1.8958,1.8141,1.7398,1.7348,1.6886,1.65,1.65,1.65,1.6312,1.5781,0.0,0.0,1.597,1.6376,1.6761,1.6876,1.696,1.7002,1.7002,1.7136,1.7199,1.7199,1.7199,1.7199,1.7199,1.7199,1.7199,1.7199,1.7199,1.7199,1.7199,1.7199,1.7199,1.7199,1.7199,1.7199,1.7199,1.7199,1.7199,1.7199,1.7199,1.7199,1.7199,1.7199,1.7199,1.7233,1.7329,1.7384,1.7412,1.7468,1.7496,1.7496,2.851,2.851,2.851,2.851,2.851,2.851,2.851,2.851,2.851,2.851,2.851,2.851,2.851,2.833,2.821,2.821,2.769,2.739,2.739,2.7078,2.6561,2.5829,2.548,2.5312,2.5312,2.5312,2.5312,2.5312,2.5382,2.5418,2.5418,2.5399,2.5487,2.5591,2.5565,2.5635,2.5757,2.5837,2.5837,2.5837,2.5837,2.5624,2.531,2.531,2.4971,2.4506,2.4506,2.4155,2.3665,2.3665,2.3396,2.3108,2.3108,2.3108,2.2995,2.2443,2.2171,2.1757,2.0666,2.0365,2.0277,1.9886,1.966,1.9396,1.9083,1.8682,1.8304,1.7965,1.7451,1.7049,1.7049,1.676,1.6425,1.6233,0.0,1.6446,1.6288,1.6515,1.6718,1.6761,1.6854,1.6939,1.7002,1.7065,1.7115,1.7199,1.7199,1.7199,1.7199,1.7199,1.7199,1.7199,1.7199,1.7199,1.7199,1.7199,1.7199,1.7199,1.7199,1.7199,1.7199,1.7199,1.7199,1.7199,1.7199,1.7199,1.7199,1.7199,1.7253,1.7329,1.7384,1.7432,1.7461,1.744,1.7515,1.7625,2.851,2.851,2.851,2.851,2.851,2.851,2.851,2.851,2.851,2.851,2.851,2.851,2.851,2.851,2.851,2.851,2.8174,2.7969,2.7969,2.7438,2.6898,2.6382,2.6009,2.5733,2.5564,2.5552,2.548,2.5312,2.5347,2.5382,2.5382,2.5606,2.5758,2.591,2.6097,2.627,2.6396,2.6465,2.6499,2.6499,2.6499,2.6248,2.5862,2.5862,2.5536,2.5059,2.5059,2.472,2.4255,2.4255,2.3847,2.3371,2.3371,2.3246,2.3032,2.2656,2.2543,2.2343,2.1443,2.1207,2.0993,2.0024,1.9798,1.971,1.9334,1.9121,1.8895,1.8519,1.8028,1.7612,1.7436,1.7049,1.6713,1.6525,1.65,1.65,1.65,1.6577,1.6654,1.6654,1.6761,1.6867,1.6897,1.6939,1.7023,1.7136,1.7136,1.7157,1.7199,1.7199,1.7199,1.7199,1.7199,1.7199,1.7199,1.7199,1.7199,1.7199,1.7199,1.7199,1.7199,1.7199,1.7199,1.7199,1.7199,1.7199,1.7199,1.7199,1.7253,1.7329,1.7384,1.7432,1.7481,1.744,1.7515,1.7625,2.851,2.851,2.851,2.851,2.851,2.851,2.851,2.851,2.851,2.851,2.851,2.851,2.851,2.851,2.851,2.851,2.851,2.851,2.851,2.7978,2.745,2.6934,2.6898,2.6633,2.6117,2.6105,2.5841,2.5324,2.5512,2.5618,2.5618,2.5805,2.591,2.591,2.6097,2.6213,2.6201,2.643,2.6499,2.6499,2.6499,2.6499,2.6499,2.6499,2.6135,2.5598,2.5598,2.5272,2.48,2.48,2.4456,2.4004,2.4004,2.3602,2.3108,2.3108,2.3108,2.2982,2.246,2.2309,2.1907,2.0225,1.9811,1.9811,1.9798,1.9384,1.9008,1.9008,1.8569,1.8041,1.7524,1.741,1.7187,1.66,1.65,1.65,1.65,1.65,1.65,1.65,1.662,1.6697,1.6697,1.6825,1.6918,1.6981,1.7002,1.7065,1.7199,1.7199,1.7199,1.7199,1.7199,1.7199,1.7199,1.7199,1.7199,1.7199,1.7199,1.7199,1.7199,1.7199,1.7199,1.7199,1.7199,1.7199,1.7199,1.7199,1.7199,1.722,1.7363,1.7404,1.7404,1.7468,1.7496,1.7516,2.851,2.851,2.851,2.851,2.851,2.851,2.851,2.851,2.851,2.851,2.851,2.851,2.851,2.851,2.851,2.851,2.851,2.851,2.851,2.8461,2.8421,2.8264,2.7358,2.6825,2.6645,2.6645,2.6561,2.6405,2.6094,2.6009,2.6153,2.5823,2.5828,2.6097,2.6166,2.627,2.6396,2.6465,2.6499,2.6499,2.6499,2.6499,2.6499,2.6499,2.6386,2.6235,2.6235,2.5871,2.536,2.536,2.5008,2.4506,2.4117,2.3602,2.3108,2.3108,2.3108,2.2982,2.246,2.2309,2.2008,2.0727,2.0427,2.0327,1.9899,1.9685,1.9572,1.9572,1.9121,1.8707,1.8544,1.7903,1.7348,1.7149,1.6785,1.65,1.65,1.65,1.65,1.65,1.662,1.674,1.6825,1.6876,1.6918,1.6981,1.7002,1.7023,1.7065,1.7157,1.7199,1.7199,1.7199,1.7199,1.7199,1.7199,1.7199,1.7199,1.7199,1.7199,1.7199,1.7199,1.7199,1.7199,1.7199,1.7199,1.7199,1.7199,1.7199,1.722,1.7363,1.7432,1.7468,1.7496,1.7632,1.7767,2.851,2.851,2.851,2.851,2.851,2.851,2.851,2.851,2.851,2.851,2.851,2.851,2.851,2.851,2.851,2.851,2.851,2.851,2.851,2.8618,2.8724,2.8791,2.8067,2.7567,2.735,2.735,2.7241,2.7036,2.6772,2.6724,2.6834,2.6589,2.6585,2.6811,2.6811,2.6829,2.6826,2.6826,2.6688,2.6499,2.6499,2.6499,2.6499,2.6499,2.6499,2.6499,2.6499,2.6273,2.5971,2.5971,2.5573,2.5034,2.4494,2.391,2.3446,2.3446,2.3283,2.3032,2.2694,2.2606,2.2393,2.1543,2.1018,2.0591,2.0251,1.9962,1.9798,1.9798,1.9547,1.9246,1.9045,1.8456,1.7953,1.7739,1.7225,1.6861,1.6861,1.6638,1.65,1.65,1.6565,1.6641,1.6727,1.6791,1.6854,1.6981,1.7065,1.7073,1.7073,1.7157,1.7199,1.7199,1.7199,1.7199,1.7199,1.7199,1.7199,1.7199,1.7199,1.7199,1.7199,1.7199,1.7199,1.7199,1.7199,1.7199,1.7199,1.7199,1.7199,1.7199,1.7287,1.7378,1.7447,1.7475,1.7611,1.7747,2.851,2.851,2.851,2.851,2.851,2.851,2.851,2.851,2.851,2.851,2.851,2.851,2.851,2.851,2.851,2.851,2.851,2.851,2.851,2.851,2.8618,2.8803,2.8831,2.8612,2.8125,2.8112,2.7869,2.7382,2.7495,2.7594,2.7594,2.7742,2.7792,2.7841,2.7841,2.7664,2.7356,2.7356,2.7102,2.6637,2.6587,2.6562,2.6562,2.6512,2.6499,2.6499,2.6499,2.6499,2.6499,2.6499,2.6109,2.5511,2.5046,2.4506,2.4067,2.4017,2.3597,2.317,2.312,2.3108,2.2982,2.2481,2.1594,2.0817,2.0717,2.0289,1.9861,1.9811,1.9798,1.966,1.9158,1.9033,1.8845,1.8355,1.7815,1.7461,1.741,1.6923,1.655,1.65,1.6522,1.6522,1.6522,1.6641,1.6782,1.696,1.7094,1.7178,1.7178,1.7199,1.7199,1.7199,1.7199,1.7199,1.7199,1.7199,1.7199,1.7199,1.7199,1.7199,1.7199,1.7199,1.7199,1.7199,1.7199,1.7199,1.7199,1.7199,1.7199,1.7199,1.7199,1.7274,1.7404,1.7468,1.7496,1.755,2.851,2.851,2.851,2.851,2.851,2.851,2.851,2.851,2.851,2.851,2.851,2.851,2.851,2.851,2.851,2.851,2.851,2.851,2.851,2.8657,2.8764,2.8791,2.9106,2.9135,2.888,2.888,2.8819,2.8697,2.8318,2.8223,2.8349,2.8002,2.7877,2.8036,2.8036,2.801,2.7921,2.7921,2.7858,2.7708,2.7316,2.714,2.709,2.6663,2.6499,2.6499,2.6499,2.6499,2.6499,2.6499,2.6109,2.5573,2.546,2.5071,2.4525,2.4117,2.3916,2.3715,2.3233,2.3108,2.3083,2.2957,2.2447,2.1732,2.0893,2.0591,2.0377,1.9899,1.9798,1.9761,1.966,1.9271,1.8958,1.8845,1.8392,1.7877,1.7461,1.7297,1.7024,1.655,1.6599,1.6654,1.6654,1.6782,1.6825,1.6761,1.6939,1.7044,1.7044,1.7136,1.7199,1.7199,1.7199,1.7199,1.7199,1.7199,1.7199,1.7199,1.7199,1.7199,1.7199,1.7199,1.7199,1.7199,1.7199,1.7199,1.7199,1.7199,1.7199,1.7199,1.7199,1.7274,1.7404,1.7468,1.757,1.7679,2.851,2.851,2.851,2.851,2.851,2.851,2.851,2.851,2.851,2.851,2.851,2.851,2.851,2.851,2.851,2.851,2.851,2.851,2.851,2.8618,2.8685,2.8791,2.8988,2.9118,2.9091,2.9197,2.9236,2.9236,2.8952,2.8881,2.8984,2.8698,2.8612,2.8725,2.8725,2.8625,2.8461,2.8461,2.8348,2.8084,2.7795,2.767,2.7607,2.7102,2.6889,2.6851,2.6587,2.6499,2.6499,2.6499,2.6298,2.6047,2.6047,2.5636,2.5134,2.4845,2.4406,2.3929,2.3627,2.3308,2.3108,2.3108,2.2895,2.2456,2.1644,2.1069,2.0603,2.0302,1.9987,1.9798,1.9798,1.9572,1.9371,1.9371,1.892,1.8469,1.8204,1.7714,1.7285,1.6974,1.6741,1.6633,1.6697,1.6761,1.6825,1.6846,1.6939,1.7044,1.7094,1.7157,1.7199,1.7199,1.7199,1.7199,1.7199,1.7199,1.7199,1.7199,1.7199,1.7199,1.7199,1.7199,1.7199,1.7199,1.7199,1.7199,1.7199,1.7199,1.7323,1.7496,1.7496,1.7529,1.7645,1.7922,1.8101,1.8214,2.851,2.851,2.851,2.851,2.851,2.851,2.851,2.851,2.851,2.851,2.851,2.851,2.851,2.851,2.851,2.851,2.851,2.851,2.855,2.855,2.8657,2.8843,2.887,2.8961,2.9091,2.9353,2.947,2.9419,2.947,2.947,2.947,2.947,2.947,2.947,2.947,2.9298,2.9038,2.9038,2.8812,2.8386,2.8285,2.8247,2.8185,2.7632,2.7419,2.7392,2.6839,2.6575,2.6499,2.6499,2.6499,2.6499,2.6499,2.6172,2.5724,2.5624,2.4971,2.423,2.4054,2.364,2.3233,2.3133,2.3108,2.2982,2.2531,2.1669,2.0943,2.0855,2.0377,1.9949,1.9949,1.9874,1.9798,1.9798,1.9447,1.9108,1.9008,1.8242,1.7626,1.7561,1.7011,1.6656,1.6667,1.6675,1.6761,1.6939,1.696,1.7044,1.7157,1.7178,1.7178,1.7199,1.7199,1.7199,1.7199,1.7199,1.7199,1.7199,1.7199,1.7199,1.7199,1.7199,1.7199,1.7199,1.7199,1.7199,1.7199,1.7199,1.7393,1.77,1.7767,1.7787,1.7848,1.8403,1.8649,1.8707,2.851,2.851,2.851,2.851,2.851,2.851,2.851,2.851,2.851,2.851,2.851,2.851,2.851,2.851,2.851,2.851,2.851,2.8578,2.8764,2.8764,2.8843,2.9052,2.9236,2.9275,2.9091,2.9534,2.965,2.9419,2.965,2.9753,2.9753,2.9753,2.9753,2.9753,2.9753,2.9703,2.9679,2.9679,2.9628,2.9515,2.8976,2.8775,2.8712,2.821,2.7996,2.7921,2.7369,2.6901,2.6499,2.6499,2.6499,2.6499,2.6499,2.6436,2.6285,2.5737,2.5498,2.5172,2.4255,2.3941,2.3766,2.3233,2.3108,2.3083,2.3007,2.2506,2.1958,2.1509,2.0968,2.0578,2.0578,2.0137,1.9798,1.9798,1.9748,1.9547,1.907,1.887,1.8607,1.8154,1.7601,1.7084,1.6572,1.662,1.6697,1.674,1.6846,1.6939,1.7023,1.7044,1.7073,1.7199,1.7199,1.7199,1.7199,1.7199,1.7199,1.7199,1.7199,1.7199,1.7199,1.7199,1.7199,1.7199,1.7199,1.7199,1.7199,1.7199,1.724,1.7323,1.7659,1.7787,1.7848,1.8403,1.85,1.8403,2.851,2.851,2.851,2.851,2.851,2.851,2.851,2.851,2.851,2.851,2.851,2.851,2.851,2.851,2.851,2.851,2.851,2.855,2.8618,2.8724,2.8843,2.8922,2.9118,2.9197,2.9091,2.9404,2.9509,2.9419,2.9663,2.9792,2.9792,2.9792,2.9792,2.9792,2.9792,2.9792,2.9792,2.9792,2.9792,2.9767,2.9515,2.9415,2.9352,2.8787,2.8561,2.8448,2.7595,2.7165,2.6901,2.66,2.6499,2.6499,2.6499,2.6499,2.6449,2.6185,2.585,2.5498,2.5021,2.4456,2.3941,2.3678,2.3346,2.3108,2.3108,2.292,2.2581,2.2071,2.1506,2.1056,2.0754,2.0478,2.0175,1.9849,1.9798,1.9723,1.9497,1.9183,1.8795,1.8267,1.799,1.7626,1.7049,1.7055,1.6973,1.6722,1.674,1.6825,1.6939,1.6981,1.7044,1.7094,1.7157,1.7199,1.7199,1.7199,1.7199,1.7199,1.7199,1.7199,1.7199,1.7199,1.7323,1.7537,1.7537,1.7537,1.7537,1.7537,1.77,1.7928,1.8108,1.8481,1.8869,1.8921,1.9016,1.9147]}]]